OR805 / PH-TFP 7700 Squawk Report (26th of November, 2022)

Aircraft B38M Reg No. PH-TFP Age 3 years old
Model 737 Jet engines 2 First flight 12-02-19
Registered 26-02-19 Rollout N/A Delivered 26-02-19
Construction No. 44649 Line No. 7385 Series 8MAX
ADSHEX 485A83 Airline name TUI fly Netherlands Owner N/A
Airfield based Amsterdam-Schiphol~Noord-Holland~PH First tracked N/A

Flight history for PH-TFP

Route Flight No Date Playback
Eindhoven (EIN) - Tenerife Sur (TFS) - Arrecife Airport (ACE) - Eindhoven (EIN) OR1691 2023-02-07 20:10:00
Eindhoven (EIN) - Gran Canaria (LPA) - Fuerteventura (FUE) - Eindhoven (EIN) OR1655 2023-02-06 19:00:00
???? N/A 2023-02-05 20:44:00
Eindhoven (EIN) - Amilcar Cabral Intl (SID) OR3751 2023-02-05 13:02:00
Gran Canaria (LPA) - Eindhoven (EIN) OR1652 2023-02-04 17:18:00
Eindhoven (EIN) - Gran Canaria (LPA) OR1651 2023-02-04 12:03:00
Eindhoven (EIN) - Tenerife Sur (TFS) - Arrecife Airport (ACE) - Eindhoven (EIN) OR1691 2023-02-03 18:32:00
Eindhoven (EIN) - Gran Canaria (LPA) - Fuerteventura (FUE) - Eindhoven (EIN) OR1655 2023-02-02 18:52:00
???? N/A 2023-02-02 07:01:00
Eindhoven (EIN) - Amilcar Cabral Intl (SID) OR3751 2023-02-01 16:30:00
Eindhoven (EIN) - Tenerife Sur (TFS) - Arrecife Airport (ACE) - Eindhoven (EIN) OR1691 2023-01-31 18:19:00
Eindhoven (EIN) - Gran Canaria (LPA) - Fuerteventura (FUE) - Eindhoven (EIN) OR1655 2023-01-30 18:37:00
???? N/A 2023-01-30 07:09:00
Eindhoven (EIN) - Amilcar Cabral Intl (SID) OR3751 2023-01-29 13:25:00
Gran Canaria (LPA) - Eindhoven (EIN) OR1652 2023-01-28 17:50:00
Eindhoven (EIN) - Gran Canaria (LPA) OR1651 2023-01-28 13:07:00
Eindhoven (EIN) - Tenerife Sur (TFS) - Arrecife Airport (ACE) - Eindhoven (EIN) OR1691 2023-01-27 19:07:00
Eindhoven (EIN) - Gran Canaria (LPA) - Fuerteventura (FUE) - Eindhoven (EIN) OR1655 2023-01-27 06:50:00
???? N/A 2023-01-25 20:44:00
Eindhoven (EIN) - Amilcar Cabral Intl (SID) OR3751 2023-01-25 15:59:00
Time Lat Lon Altitude Heading Speed Vertical Rate
2022-11-27 00:33:53 GMT 52.312637 4.769783 0 300 8 0
2022-11-27 00:33:42 GMT 52.312508 4.770224 0 258 6 0
2022-11-27 00:33:18 GMT 52.313255 4.771290 0 213 14 0
2022-11-27 00:33:16 GMT 52.313332 4.771382 0 213 14 0
2022-11-27 00:33:15 GMT 52.313404 4.771461 0 213 14 0
2022-11-27 00:33:13 GMT 52.313507 4.771558 0 210 14 0
2022-11-27 00:33:12 GMT 52.313564 4.771617 0 208 14 0
2022-11-27 00:33:10 GMT 52.313633 4.771690 0 205 14 0
2022-11-27 00:33:09 GMT 52.313728 4.771774 0 199 14 0
2022-11-27 00:33:08 GMT 52.313782 4.771805 0 196 14 0
2022-11-27 00:33:06 GMT 52.313904 4.771872 0 188 14 0
2022-11-27 00:33:05 GMT 52.313961 4.771892 0 185 14 0
2022-11-27 00:33:03 GMT 52.314091 4.771931 0 182 14 0
2022-11-27 00:33:02 GMT 52.314148 4.771919 0 182 13 0
2022-11-27 00:33:00 GMT 52.314262 4.771931 0 182 13 0
2022-11-27 00:32:57 GMT 52.314438 4.771951 0 182 13 0
2022-11-27 00:32:54 GMT 52.314613 4.771970 0 182 13 0
2022-11-27 00:32:51 GMT 52.314789 4.771976 0 180 13 0
2022-11-27 00:32:49 GMT 52.314903 4.771996 0 180 13 0
2022-11-27 00:32:48 GMT 52.314976 4.771990 0 180 13 0
2022-11-27 00:32:47 GMT 52.315033 4.771990 0 180 13 0
2022-11-27 00:32:44 GMT 52.315186 4.771990 0 174 13 0
2022-11-27 00:32:43 GMT 52.315258 4.771996 0 168 13 0
2022-11-27 00:32:42 GMT 52.315369 4.771970 0 157 14 0
2022-11-27 00:32:40 GMT 52.315430 4.771931 0 149 14 0
2022-11-27 00:32:37 GMT 52.315556 4.771805 0 129 14 0
2022-11-27 00:32:36 GMT 52.315601 4.771729 0 120 14 0
2022-11-27 00:32:34 GMT 52.315685 4.771480 0 98 14 0
2022-11-27 00:32:32 GMT 52.315708 4.771303 0 90 14 0
2022-11-27 00:32:28 GMT 52.315704 4.770947 0 87 17 0
2022-11-27 00:32:26 GMT 52.315693 4.770584 0 87 19 0
2022-11-27 00:32:22 GMT 52.315674 4.770126 0 87 20 0
2022-11-27 00:32:20 GMT 52.315662 4.769832 0 87 21 0
2022-11-27 00:32:17 GMT 52.315647 4.769421 0 87 24 0
2022-11-27 00:32:16 GMT 52.315639 4.769204 0 87 25 0
2022-11-27 00:32:08 GMT 52.315578 4.767439 0 87 26 0
2022-11-27 00:32:05 GMT 52.315567 4.767164 0 87 26 0
2022-11-27 00:32:04 GMT 52.315556 4.766968 0 87 26 0
2022-11-27 00:32:03 GMT 52.315556 4.766636 0 87 26 0
2022-11-27 00:32:02 GMT 52.315544 4.766502 0 87 26 0
2022-11-27 00:32:01 GMT 52.315521 4.765810 0 87 26 0
2022-11-27 00:31:58 GMT 52.315521 4.765810 0 87 26 0
2022-11-27 00:31:57 GMT 52.315510 4.765339 0 87 26 0
2022-11-27 00:31:56 GMT 52.315510 4.765339 0 87 26 0
2022-11-27 00:31:54 GMT 52.315498 4.764957 0 87 26 0
2022-11-27 00:31:53 GMT 52.315475 4.764319 0 87 26 0
2022-11-27 00:31:51 GMT 52.315475 4.764319 0 87 26 0
2022-11-27 00:31:50 GMT 52.315453 4.763593 0 87 26 0
2022-11-27 00:31:47 GMT 52.315453 4.763593 0 87 26 0
2022-11-27 00:31:46 GMT 52.315441 4.763378 0 87 26 0
2022-11-27 00:31:45 GMT 52.315441 4.763142 0 87 26 0
2022-11-27 00:31:44 GMT 52.315430 4.762946 0 87 26 0
2022-11-27 00:31:41 GMT 52.315407 4.762325 0 87 26 0
2022-11-27 00:31:38 GMT 52.315384 4.761848 0 87 26 0
2022-11-27 00:31:36 GMT 52.315372 4.761372 0 87 26 0
2022-11-27 00:31:29 GMT 52.315323 4.759984 0 87 26 0
2022-11-27 00:31:27 GMT 52.315311 4.759630 0 87 26 0
2022-11-27 00:31:24 GMT 52.315281 4.758968 0 87 26 0
2022-11-27 00:31:23 GMT 52.315277 4.758865 0 87 26 0
2022-11-27 00:31:22 GMT 52.315266 4.758414 0 87 26 0
2022-11-27 00:31:20 GMT 52.315258 4.758205 0 87 26 0
2022-11-27 00:31:19 GMT 52.315243 4.757806 0 87 26 0
2022-11-27 00:31:16 GMT 52.315231 4.757472 0 87 26 0
2022-11-27 00:31:14 GMT 52.315212 4.757023 0 87 26 0
2022-11-27 00:31:13 GMT 52.315208 4.756864 0 87 26 0
2022-11-27 00:31:12 GMT 52.315208 4.756590 0 87 26 0
2022-11-27 00:31:10 GMT 52.315189 4.756317 0 87 26 0
2022-11-27 00:31:08 GMT 52.315186 4.755962 0 87 25 0
2022-11-27 00:31:07 GMT 52.315178 4.755707 0 87 25 0
2022-11-27 00:31:06 GMT 52.315170 4.755491 0 87 25 0
2022-11-27 00:31:04 GMT 52.315155 4.755154 0 87 24 0
2022-11-27 00:31:02 GMT 52.315132 4.754562 0 87 24 0
2022-11-27 00:31:00 GMT 52.315125 4.754392 0 87 24 0
2022-11-27 00:30:59 GMT 52.315113 4.753980 0 87 23 0
2022-11-27 00:30:56 GMT 52.315113 4.753863 0 87 23 0
2022-11-27 00:30:55 GMT 52.315102 4.753568 0 87 23 0
2022-11-27 00:30:53 GMT 52.315090 4.753196 0 87 23 0
2022-11-27 00:30:50 GMT 52.315063 4.752693 0 87 22 0
2022-11-27 00:30:49 GMT 52.315056 4.752529 0 87 22 0
2022-11-27 00:30:48 GMT 52.315052 4.752102 0 87 22 0
2022-11-27 00:30:46 GMT 52.315052 4.752102 0 87 22 0
2022-11-27 00:30:44 GMT 52.315029 4.751549 0 87 22 0
2022-11-27 00:30:42 GMT 52.315029 4.751396 0 87 23 0
2022-11-27 00:30:41 GMT 52.315022 4.751214 0 87 23 0
2022-11-27 00:30:40 GMT 52.315010 4.750861 0 87 23 0
2022-11-27 00:30:38 GMT 52.315010 4.750783 0 87 23 0
2022-11-27 00:30:36 GMT 52.314987 4.750371 0 87 23 0
2022-11-27 00:30:34 GMT 52.314983 4.750175 0 87 23 0
2022-11-27 00:30:33 GMT 52.314972 4.749718 0 87 24 0
2022-11-27 00:30:31 GMT 52.314960 4.749546 0 87 24 0
2022-11-27 00:30:29 GMT 52.314938 4.748821 0 87 25 0
2022-11-27 00:30:27 GMT 52.314938 4.748821 0 87 25 0
2022-11-27 00:30:25 GMT 52.314926 4.748448 0 87 25 0
2022-11-27 00:30:23 GMT 52.314903 4.747918 0 87 26 0
2022-11-27 00:30:20 GMT 52.314903 4.747620 0 87 26 0
2022-11-27 00:30:16 GMT 52.314869 4.746780 0 90 25 0
2022-11-27 00:30:14 GMT 52.314857 4.746447 0 87 25 0
2022-11-27 00:30:13 GMT 52.314846 4.745956 0 87 24 0
2022-11-27 00:30:09 GMT 52.314823 4.745464 0 87 23 0
2022-11-27 00:30:07 GMT 52.314812 4.745235 0 87 23 0
2022-11-27 00:30:06 GMT 52.314812 4.744949 0 87 23 0
2022-11-27 00:30:04 GMT 52.314800 4.744701 0 87 22 0
2022-11-27 00:30:02 GMT 52.314789 4.744320 0 87 21 0
2022-11-27 00:29:59 GMT 52.314766 4.743633 0 90 20 0
2022-11-27 00:29:57 GMT 52.314766 4.743633 0 90 20 0
2022-11-27 00:29:56 GMT 52.314754 4.743347 0 90 19 0
2022-11-27 00:29:53 GMT 52.314754 4.742966 0 90 18 0
2022-11-27 00:29:50 GMT 52.314754 4.742680 0 95 18 0
2022-11-27 00:29:49 GMT 52.314766 4.742543 0 101 18 0
2022-11-27 00:29:47 GMT 52.314823 4.742150 0 118 18 0
2022-11-27 00:29:44 GMT 52.314903 4.741917 0 129 18 0
2022-11-27 00:29:42 GMT 52.315029 4.741726 0 149 18 0
2022-11-27 00:29:40 GMT 52.315125 4.741621 0 160 18 0
2022-11-27 00:29:38 GMT 52.315277 4.741542 0 174 18 0
2022-11-27 00:29:37 GMT 52.315395 4.741516 0 180 18 0
2022-11-27 00:29:34 GMT 52.315662 4.741523 0 182 22 0
2022-11-27 00:29:32 GMT 52.315853 4.741535 0 182 25 0
2022-11-27 00:29:27 GMT 52.316402 4.741592 0 182 24 0
2022-11-27 00:29:25 GMT 52.316616 4.741601 0 182 23 0
2022-11-27 00:29:23 GMT 52.316860 4.741631 0 182 23 0
2022-11-27 00:29:20 GMT 52.317181 4.741669 0 182 22 0
2022-11-27 00:29:16 GMT 52.317673 4.741699 0 182 21 0
2022-11-27 00:29:13 GMT 52.317825 4.741719 0 182 21 0
2022-11-27 00:29:11 GMT 52.318058 4.741738 0 182 20 0
2022-11-27 00:29:10 GMT 52.318104 4.741738 0 182 20 0
2022-11-27 00:29:07 GMT 52.318359 4.741758 0 182 19 0
2022-11-27 00:29:05 GMT 52.318535 4.741778 0 182 19 0
2022-11-27 00:29:04 GMT 52.318630 4.741797 0 182 19 0
2022-11-27 00:29:03 GMT 52.318714 4.741802 0 182 18 0
2022-11-27 00:29:02 GMT 52.318806 4.741802 0 182 18 0
2022-11-27 00:29:01 GMT 52.318954 4.741817 0 185 18 0
2022-11-27 00:28:59 GMT 52.319046 4.741840 0 185 18 0
2022-11-27 00:28:57 GMT 52.319199 4.741856 0 185 17 0
2022-11-27 00:28:56 GMT 52.319275 4.741859 0 182 17 0
2022-11-27 00:28:55 GMT 52.319344 4.741859 0 182 17 0
2022-11-27 00:28:54 GMT 52.319511 4.741876 0 180 17 0
2022-11-27 00:28:51 GMT 52.319675 4.741879 0 174 17 0
2022-11-27 00:28:49 GMT 52.319794 4.741856 0 163 17 0
2022-11-27 00:28:48 GMT 52.319981 4.741758 0 146 17 0
2022-11-27 00:28:46 GMT 52.320026 4.741699 0 140 18 0
2022-11-27 00:28:45 GMT 52.320084 4.741621 0 135 18 0
2022-11-27 00:28:43 GMT 52.320202 4.741440 0 126 18 0
2022-11-27 00:28:41 GMT 52.320293 4.741230 0 115 18 0
2022-11-27 00:28:40 GMT 52.320362 4.740963 0 104 18 0
2022-11-27 00:28:38 GMT 52.320374 4.740836 0 98 18 0
2022-11-27 00:28:37 GMT 52.320385 4.740696 0 95 18 0
2022-11-27 00:28:36 GMT 52.320408 4.739894 0 95 24 0
2022-11-27 00:28:31 GMT 52.320408 4.739894 0 95 24 0
2022-11-27 00:28:30 GMT 52.320419 4.739639 0 95 25 0
2022-11-27 00:28:28 GMT 52.320435 4.739247 0 95 25 0
2022-11-27 00:28:27 GMT 52.320442 4.739075 0 95 25 0
2022-11-27 00:28:26 GMT 52.320442 4.738913 0 95 25 0
2022-11-27 00:28:24 GMT 52.320465 4.738560 0 95 25 0
2022-11-27 00:28:22 GMT 52.320480 4.738188 0 95 25 0
2022-11-27 00:28:20 GMT 52.320488 4.737740 0 92 24 0
2022-11-27 00:28:19 GMT 52.320499 4.737530 0 92 24 0
2022-11-27 00:28:18 GMT 52.320499 4.737282 0 95 24 0
2022-11-27 00:28:16 GMT 52.320515 4.737089 0 95 24 0
2022-11-27 00:28:15 GMT 52.320515 4.736893 0 95 23 0
2022-11-27 00:28:11 GMT 52.320545 4.736290 0 95 22 0
2022-11-27 00:28:08 GMT 52.320560 4.735696 0 92 21 0
2022-11-27 00:28:04 GMT 52.320591 4.735107 0 95 20 0
2022-11-27 00:28:02 GMT 52.320602 4.734840 0 98 20 0
2022-11-27 00:28:01 GMT 52.320618 4.734637 0 101 20 0
2022-11-27 00:27:57 GMT 52.320702 4.734166 0 115 20 0
2022-11-27 00:27:55 GMT 52.320774 4.733906 0 123 20 0
2022-11-27 00:27:53 GMT 52.320900 4.733601 0 132 20 0
2022-11-27 00:27:52 GMT 52.320957 4.733486 0 135 20 0
2022-11-27 00:27:51 GMT 52.321014 4.733401 0 137 20 0
2022-11-27 00:27:45 GMT 52.321381 4.732876 0 140 20 0
2022-11-27 00:27:44 GMT 52.321503 4.732694 0 140 20 0
2022-11-27 00:27:42 GMT 52.321632 4.732518 0 140 20 0
2022-11-27 00:27:41 GMT 52.321701 4.732418 0 140 20 0
2022-11-27 00:27:39 GMT 52.321842 4.732224 0 140 20 0
2022-11-27 00:27:38 GMT 52.321907 4.732132 0 140 21 0
2022-11-27 00:27:37 GMT 52.321968 4.732027 0 140 21 0
2022-11-27 00:27:35 GMT 52.322121 4.731812 0 140 21 0
2022-11-27 00:27:33 GMT 52.322353 4.731483 0 140 22 0
2022-11-27 00:27:30 GMT 52.322491 4.731301 0 140 22 0
2022-11-27 00:27:29 GMT 52.322540 4.731243 0 140 22 0
2022-11-27 00:27:27 GMT 52.322643 4.731086 0 140 22 0
2022-11-27 00:27:26 GMT 52.322788 4.730892 0 140 22 0
2022-11-27 00:27:22 GMT 52.322971 4.730615 0 140 22 0
2022-11-27 00:27:21 GMT 52.323120 4.730419 0 140 23 0
2022-11-27 00:27:20 GMT 52.323166 4.730340 0 140 23 0
2022-11-27 00:27:19 GMT 52.323246 4.730225 0 140 23 0
2022-11-27 00:27:16 GMT 52.323460 4.729948 0 140 23 0
2022-11-27 00:27:15 GMT 52.323566 4.729786 0 140 23 0
2022-11-27 00:27:13 GMT 52.323738 4.729536 0 140 23 0
2022-11-27 00:27:12 GMT 52.323875 4.729340 0 140 23 0
2022-11-27 00:27:10 GMT 52.323944 4.729233 0 140 23 0
2022-11-27 00:27:09 GMT 52.324036 4.729118 0 140 23 0
2022-11-27 00:27:06 GMT 52.324242 4.728813 0 140 23 0
2022-11-27 00:27:05 GMT 52.324368 4.728642 0 140 23 0
2022-11-27 00:27:04 GMT 52.324482 4.728476 0 140 23 0
2022-11-27 00:27:02 GMT 52.324562 4.728355 0 140 23 0
2022-11-27 00:27:01 GMT 52.324680 4.728202 0 140 23 0
2022-11-27 00:27:00 GMT 52.324745 4.728107 0 140 23 0
2022-11-27 00:26:58 GMT 52.324879 4.727927 0 140 23 0
2022-11-27 00:26:56 GMT 52.325008 4.727745 0 140 23 0
2022-11-27 00:26:55 GMT 52.325111 4.727592 0 140 23 0
2022-11-27 00:26:54 GMT 52.325203 4.727478 0 140 23 0
2022-11-27 00:26:53 GMT 52.325378 4.727221 0 140 23 0
2022-11-27 00:26:51 GMT 52.325459 4.727103 0 140 23 0
2022-11-27 00:26:50 GMT 52.325546 4.727001 0 140 23 0
2022-11-27 00:26:49 GMT 52.325695 4.726772 0 140 23 0
2022-11-27 00:26:47 GMT 52.325775 4.726658 0 140 23 0
2022-11-27 00:26:46 GMT 52.325947 4.726429 0 140 23 0
2022-11-27 00:26:43 GMT 52.326077 4.726260 0 140 22 0
2022-11-27 00:26:40 GMT 52.326389 4.725808 0 140 22 0
2022-11-27 00:26:38 GMT 52.326473 4.725691 0 137 22 0
2022-11-27 00:26:37 GMT 52.326542 4.725592 0 137 21 0
2022-11-27 00:26:35 GMT 52.326679 4.725380 0 135 21 0
2022-11-27 00:26:34 GMT 52.326763 4.725239 0 135 21 0
2022-11-27 00:26:33 GMT 52.326820 4.725141 0 135 20 0
2022-11-27 00:26:31 GMT 52.326942 4.724941 0 132 20 0
2022-11-27 00:26:30 GMT 52.327019 4.724788 0 132 20 0
2022-11-27 00:26:28 GMT 52.327137 4.724572 0 132 20 0
2022-11-27 00:26:27 GMT 52.327160 4.724522 0 132 20 0
2022-11-27 00:26:26 GMT 52.327377 4.724121 0 132 19 0
2022-11-27 00:26:24 GMT 52.327377 4.724121 0 132 19 0
2022-11-27 00:26:22 GMT 52.327461 4.723945 0 132 19 0
2022-11-27 00:26:21 GMT 52.327518 4.723846 0 132 19 0
2022-11-27 00:26:20 GMT 52.327583 4.723740 0 132 19 0
2022-11-27 00:26:18 GMT 52.327709 4.723511 0 132 19 0
2022-11-27 00:26:17 GMT 52.327766 4.723396 0 132 19 0
2022-11-27 00:26:16 GMT 52.327824 4.723282 0 132 19 0
2022-11-27 00:26:15 GMT 52.327881 4.723186 0 132 19 0
2022-11-27 00:26:13 GMT 52.327995 4.722964 0 132 19 0
2022-11-27 00:26:12 GMT 52.328053 4.722862 0 132 19 0
2022-11-27 00:26:11 GMT 52.328102 4.722767 0 132 19 0
2022-11-27 00:26:09 GMT 52.328205 4.722571 0 126 19 0
2022-11-27 00:26:08 GMT 52.328259 4.722443 0 123 19 0
2022-11-27 00:26:06 GMT 52.328362 4.722195 0 112 19 0
2022-11-27 00:26:05 GMT 52.328373 4.722118 0 106 19 0
2022-11-27 00:26:03 GMT 52.328430 4.721794 0 92 20 0
2022-11-27 00:26:02 GMT 52.328426 4.721669 0 90 20 0
2022-11-27 00:26:01 GMT 52.328426 4.721512 0 87 20 0
2022-11-27 00:26:00 GMT 52.328415 4.721355 0 87 20 0
2022-11-27 00:25:58 GMT 52.328415 4.721100 0 87 19 0
2022-11-27 00:25:56 GMT 52.328407 4.720898 0 87 19 0
2022-11-27 00:25:54 GMT 52.328396 4.720535 0 87 19 0
2022-11-27 00:25:53 GMT 52.328396 4.720383 0 90 19 0
2022-11-27 00:25:52 GMT 52.328392 4.720237 0 92 19 0
2022-11-27 00:25:50 GMT 52.328403 4.720001 0 101 18 0
2022-11-27 00:25:48 GMT 52.328472 4.719570 0 120 18 0
2022-11-27 00:25:45 GMT 52.328556 4.719353 0 132 18 0
2022-11-27 00:25:43 GMT 52.328671 4.719118 0 135 18 0
2022-11-27 00:25:42 GMT 52.328732 4.719020 0 135 19 0
2022-11-27 00:25:41 GMT 52.328823 4.718863 0 132 21 0
2022-11-27 00:25:39 GMT 52.328892 4.718746 0 132 22 0
2022-11-27 00:25:38 GMT 52.329056 4.718451 0 132 25 0
2022-11-27 00:25:36 GMT 52.329105 4.718361 0 132 26 0
2022-11-27 00:25:35 GMT 52.329220 4.718157 0 132 28 0
2022-11-27 00:25:32 GMT 52.329403 4.717808 0 132 29 0
2022-11-27 00:25:31 GMT 52.329517 4.717579 0 132 29 0
2022-11-27 00:25:30 GMT 52.329601 4.717431 0 132 28 0
2022-11-27 00:25:27 GMT 52.329838 4.716988 0 132 28 0
2022-11-27 00:25:24 GMT 52.330055 4.716588 0 132 28 0
2022-11-27 00:25:23 GMT 52.330326 4.716097 0 132 28 0
2022-11-27 00:25:21 GMT 52.330399 4.715958 0 132 28 0
2022-11-27 00:25:19 GMT 52.330547 4.715672 0 132 28 0
2022-11-27 00:25:17 GMT 52.330879 4.715061 0 132 27 0
2022-11-27 00:25:15 GMT 52.330879 4.715061 0 132 27 0
2022-11-27 00:25:14 GMT 52.330959 4.714909 0 132 27 0
2022-11-27 00:25:12 GMT 52.331161 4.714547 0 132 27 0
2022-11-27 00:25:10 GMT 52.331291 4.714312 0 132 27 0
2022-11-27 00:25:08 GMT 52.331474 4.713974 0 132 27 0
2022-11-27 00:25:05 GMT 52.331703 4.713535 0 132 27 0
2022-11-27 00:25:04 GMT 52.331860 4.713252 0 132 27 0
2022-11-27 00:25:01 GMT 52.331932 4.713115 0 132 27 0
2022-11-27 00:25:00 GMT 52.332047 4.712906 0 132 26 0
2022-11-27 00:24:58 GMT 52.332172 4.712658 0 132 26 0
2022-11-27 00:24:57 GMT 52.332268 4.712487 0 132 26 0
2022-11-27 00:24:54 GMT 52.332676 4.711723 0 132 26 0
2022-11-27 00:24:52 GMT 52.332676 4.711723 0 132 26 0
2022-11-27 00:24:51 GMT 52.332745 4.711605 0 132 26 0
2022-11-27 00:24:49 GMT 52.332909 4.711291 0 132 26 0
2022-11-27 00:24:48 GMT 52.332977 4.711153 0 132 26 0
2022-11-27 00:24:46 GMT 52.333141 4.710859 0 132 26 0
2022-11-27 00:24:45 GMT 52.333233 4.710702 0 132 26 0
2022-11-27 00:24:41 GMT 52.333527 4.710212 0 137 26 0
2022-11-27 00:24:40 GMT 52.333752 4.709930 0 146 26 0
2022-11-27 00:24:38 GMT 52.333855 4.709816 0 151 26 0
2022-11-27 00:24:36 GMT 52.334049 4.709643 0 157 26 0
2022-11-27 00:24:33 GMT 52.334396 4.709466 0 168 26 0
2022-11-27 00:24:31 GMT 52.334633 4.709427 0 177 26 0
2022-11-27 00:24:29 GMT 52.334866 4.709427 0 182 30 0
2022-11-27 00:24:28 GMT 52.334980 4.709427 0 182 33 0
2022-11-27 00:24:27 GMT 52.335133 4.709446 0 182 36 0
2022-11-27 00:24:26 GMT 52.335342 4.709473 0 182 39 0
2022-11-27 00:24:25 GMT 52.335712 4.709505 0 182 45 0
2022-11-27 00:24:22 GMT 52.336166 4.709549 0 182 50 0
2022-11-27 00:24:21 GMT 52.336296 4.709545 0 182 52 0
2022-11-27 00:24:20 GMT 52.336658 4.709587 0 182 55 0
2022-11-27 00:24:19 GMT 52.337132 4.709623 0 182 56 0
2022-11-27 00:24:17 GMT 52.337391 4.709644 0 182 57 0
2022-11-27 00:24:16 GMT 52.337624 4.709682 0 182 58 0
2022-11-27 00:24:14 GMT 52.338135 4.709721 0 182 60 0
2022-11-27 00:24:12 GMT 52.338799 4.709778 0 182 63 0
2022-11-27 00:24:11 GMT 52.338947 4.709800 0 182 63 0
2022-11-27 00:24:10 GMT 52.339645 4.709858 0 182 67 0
2022-11-27 00:24:08 GMT 52.339920 4.709873 0 182 67 0
2022-11-27 00:24:07 GMT 52.340542 4.709937 0 182 69 0
2022-11-27 00:24:04 GMT 52.341290 4.709996 0 182 74 0
2022-11-27 00:24:03 GMT 52.341625 4.710035 0 182 76 0
2022-11-27 00:24:00 GMT 52.342625 4.710133 0 182 80 0
2022-11-27 00:23:58 GMT 52.343140 4.710172 0 182 82 0
2022-11-27 00:23:57 GMT 52.343987 4.710231 -300 184 84 0
2022-11-27 00:23:55 GMT 52.344826 4.710310 -300 184 86 -64
2022-11-27 00:23:54 GMT 52.344826 4.710310 -300 184 87 -64
2022-11-27 00:23:53 GMT 52.345276 4.710388 -300 184 91 -64
2022-11-27 00:23:52 GMT 52.346146 4.710464 -300 184 95 -64
2022-11-27 00:23:49 GMT 52.346924 4.710541 -300 183 98 -64
2022-11-27 00:23:48 GMT 52.347931 4.710617 -300 183 102 -128
2022-11-27 00:23:46 GMT 52.348297 4.710617 -300 184 105 -128
2022-11-27 00:23:45 GMT 52.348801 4.710693 -300 184 108 -128
2022-11-27 00:23:44 GMT 52.349945 4.710770 -325 184 116 -128
2022-11-27 00:23:42 GMT 52.350460 4.710859 -325 184 119 -128
2022-11-27 00:23:41 GMT 52.350952 4.710846 -325 184 122 -128
2022-11-27 00:23:40 GMT 52.352180 4.711016 -325 184 128 -192
2022-11-27 00:23:38 GMT 52.352787 4.711016 -300 184 130 -128
2022-11-27 00:23:35 GMT 52.354553 4.711251 -300 184 134 -192
2022-11-27 00:23:34 GMT 52.355160 4.711251 -300 184 134 -256
2022-11-27 00:23:32 GMT 52.356277 4.711408 -275 184 134 -256
2022-11-27 00:23:30 GMT 52.357498 4.711533 -250 183 134 -448
2022-11-27 00:23:29 GMT 52.360001 4.711722 -225 183 134 -640
2022-11-27 00:23:26 GMT 52.360001 4.711722 -225 183 134 -640
2022-11-27 00:23:25 GMT 52.361069 4.711761 -200 183 134 -704
2022-11-27 00:23:24 GMT 52.361435 4.711761 -175 183 134 -704
2022-11-27 00:23:22 GMT 52.362762 4.711838 -150 183 133 -640
2022-11-27 00:23:20 GMT 52.363911 4.711958 -150 183 132 -576
2022-11-27 00:23:19 GMT 52.364502 4.711990 -125 183 132 -640
2022-11-27 00:23:18 GMT 52.366562 4.712143 -100 185 130 -640
2022-11-27 00:23:16 GMT 52.366562 4.712143 -100 185 130 -640
2022-11-27 00:23:14 GMT 52.367310 4.712193 -75 185 130 -640
2022-11-27 00:23:13 GMT 52.368195 4.712350 -75 185 130 -768
2022-11-27 00:23:12 GMT 52.368759 4.712448 -50 185 130 -704
2022-11-27 00:23:10 GMT 52.369949 4.712601 -25 185 130 -640
2022-11-27 00:23:08 GMT 52.371174 4.712664 0 184 130 -704
2022-11-27 00:23:07 GMT 52.372524 4.712821 25 184 129 -704
2022-11-27 00:23:05 GMT 52.373062 4.712906 25 184 129 -704
2022-11-27 00:23:04 GMT 52.374249 4.712978 50 184 128 -704
2022-11-27 00:23:01 GMT 52.375626 4.713135 75 184 128 -768
2022-11-27 00:23:00 GMT 52.376575 4.713213 100 184 128 -704
2022-11-27 00:22:58 GMT 52.377457 4.713287 125 184 128 -704
2022-11-27 00:22:57 GMT 52.377972 4.713370 125 184 128 -640
2022-11-27 00:22:55 GMT 52.378857 4.713449 150 184 128 -704
2022-11-27 00:22:54 GMT 52.379696 4.713527 150 184 128 -768
2022-11-27 00:22:53 GMT 52.380207 4.713606 175 184 128 -768
2022-11-27 00:22:52 GMT 52.381973 4.713684 200 183 128 -768
2022-11-27 00:22:50 GMT 52.381973 4.713684 200 183 127 -768
2022-11-27 00:22:48 GMT 52.383179 4.713821 225 183 127 -704
2022-11-27 00:22:47 GMT 52.383774 4.713821 250 183 128 -704
2022-11-27 00:22:45 GMT 52.384872 4.713898 250 184 128 -640
2022-11-27 00:22:43 GMT 52.385979 4.713998 275 183 128 -640
2022-11-27 00:22:42 GMT 52.386566 4.714050 300 183 128 -640
2022-11-27 00:22:41 GMT 52.387161 4.714127 300 183 127 -640
2022-11-27 00:22:39 GMT 52.388397 4.714203 325 183 127 -640
2022-11-27 00:22:37 GMT 52.389515 4.714312 350 183 127 -640
2022-11-27 00:22:36 GMT 52.390686 4.714355 375 184 126 -640
2022-11-27 00:22:34 GMT 52.391331 4.714469 375 184 126 -640
2022-11-27 00:22:33 GMT 52.391891 4.714469 400 184 125 -640
2022-11-27 00:22:32 GMT 52.393616 4.714661 425 183 124 -704
2022-11-27 00:22:30 GMT 52.393616 4.714661 425 183 124 -704
2022-11-27 00:22:29 GMT 52.394310 4.714704 425 183 124 -640
2022-11-27 00:22:27 GMT 52.395309 4.714813 450 184 123 -640
2022-11-27 00:22:26 GMT 52.395847 4.714861 475 184 123 -640
2022-11-27 00:22:25 GMT 52.396500 4.714890 475 184 122 -640
2022-11-27 00:22:23 GMT 52.397598 4.714966 500 184 122 -512
2022-11-27 00:22:22 GMT 52.398174 4.715018 500 184 121 -576
2022-11-27 00:22:21 GMT 52.398697 4.715118 525 184 121 -576
2022-11-27 00:22:20 GMT 52.399841 4.715195 525 184 120 -512
2022-11-27 00:22:18 GMT 52.400391 4.715271 550 184 120 -512
2022-11-27 00:22:17 GMT 52.401012 4.715332 550 184 120 -512
2022-11-27 00:22:15 GMT 52.402130 4.715500 575 184 119 -640
2022-11-27 00:22:13 GMT 52.402737 4.715567 575 184 119 -640
2022-11-27 00:22:12 GMT 52.403229 4.715576 600 184 118 -640
2022-11-27 00:22:10 GMT 52.404320 4.715724 625 184 118 -576
2022-11-27 00:22:08 GMT 52.405342 4.715803 625 183 117 -640
2022-11-27 00:22:07 GMT 52.406090 4.715881 650 183 116 -704
2022-11-27 00:22:06 GMT 52.407112 4.715960 675 183 115 -576
2022-11-27 00:22:04 GMT 52.407715 4.715958 675 183 115 -512
2022-11-27 00:22:03 GMT 52.408184 4.716038 700 183 115 -512
2022-11-27 00:22:02 GMT 52.409271 4.716110 700 183 115 -576
2022-11-27 00:22:00 GMT 52.409721 4.716117 725 183 114 -576
2022-11-27 00:21:59 GMT 52.410278 4.716195 725 183 114 -640
2022-11-27 00:21:58 GMT 52.410782 4.716187 725 183 113 -576
2022-11-27 00:21:56 GMT 52.411880 4.716263 750 183 113 -576
2022-11-27 00:21:55 GMT 52.412430 4.716339 775 183 113 -576
2022-11-27 00:21:54 GMT 52.412979 4.716352 775 183 112 -576
2022-11-27 00:21:53 GMT 52.413864 4.716431 800 183 112 -576
2022-11-27 00:21:50 GMT 52.414886 4.716509 825 184 111 -512
2022-11-27 00:21:49 GMT 52.416000 4.716568 825 184 111 -512
2022-11-27 00:21:47 GMT 52.416550 4.716644 850 184 111 -512
2022-11-27 00:21:46 GMT 52.416981 4.716666 850 184 110 -576
2022-11-27 00:21:43 GMT 52.418377 4.716823 875 184 110 -576
2022-11-27 00:21:42 GMT 52.419125 4.716902 900 184 109 -576
2022-11-27 00:21:40 GMT 52.420074 4.717026 900 185 109 -576
2022-11-27 00:21:39 GMT 52.420567 4.717058 925 185 109 -640
2022-11-27 00:21:38 GMT 52.421078 4.717137 925 185 109 -640
2022-11-27 00:21:37 GMT 52.421593 4.717137 950 185 109 -640
2022-11-27 00:21:35 GMT 52.422592 4.717255 950 185 109 -640
2022-11-27 00:21:34 GMT 52.423035 4.717372 975 185 109 -576
2022-11-27 00:21:33 GMT 52.424149 4.717484 1,000 185 109 -576
2022-11-27 00:21:30 GMT 52.425156 4.717560 1,000 185 110 -576
2022-11-27 00:21:29 GMT 52.426163 4.717712 1,025 184 111 -576
2022-11-27 00:21:27 GMT 52.426712 4.717765 1,050 184 111 -576
2022-11-27 00:21:26 GMT 52.427086 4.717765 1,050 184 112 -576
2022-11-27 00:21:25 GMT 52.428131 4.717941 1,075 184 113 -576
2022-11-27 00:21:22 GMT 52.429779 4.718094 1,100 184 113 -640
2022-11-27 00:21:19 GMT 52.430809 4.718157 1,125 184 114 -704
2022-11-27 00:21:18 GMT 52.431290 4.718246 1,125 184 115 -704
2022-11-27 00:21:16 GMT 52.432438 4.718314 1,150 184 116 -704
2022-11-27 00:21:15 GMT 52.432903 4.718393 1,175 184 116 -704
2022-11-27 00:21:14 GMT 52.434021 4.718471 1,200 184 118 -704
2022-11-27 00:21:12 GMT 52.434494 4.718552 1,200 184 118 -768
2022-11-27 00:21:11 GMT 52.434998 4.718549 1,225 184 118 -768
2022-11-27 00:21:10 GMT 52.436161 4.718706 1,250 183 119 -768
2022-11-27 00:21:08 GMT 52.436646 4.718704 1,250 183 120 -768
2022-11-27 00:21:07 GMT 52.437195 4.718781 1,275 183 121 -768
2022-11-27 00:21:06 GMT 52.437790 4.718857 1,275 183 121 -768
2022-11-27 00:21:04 GMT 52.438862 4.718942 1,300 183 121 -768
2022-11-27 00:21:02 GMT 52.439987 4.719009 1,325 183 122 -704
2022-11-27 00:21:00 GMT 52.441406 4.719086 1,350 183 123 -576
2022-11-27 00:20:58 GMT 52.441956 4.719162 1,375 183 124 -576
2022-11-27 00:20:57 GMT 52.443470 4.719256 1,400 184 125 -384
2022-11-27 00:20:55 GMT 52.444061 4.719315 1,400 184 125 -384
2022-11-27 00:20:54 GMT 52.444588 4.719334 1,400 184 126 -320
2022-11-27 00:20:53 GMT 52.445938 4.719491 1,425 185 128 -384
2022-11-27 00:20:51 GMT 52.446579 4.719543 1,425 185 128 -448
2022-11-27 00:20:50 GMT 52.446945 4.719543 1,425 185 129 -512
2022-11-27 00:20:48 GMT 52.448357 4.719727 1,450 185 129 -576
2022-11-27 00:20:47 GMT 52.448914 4.719849 1,475 185 130 -640
2022-11-27 00:20:46 GMT 52.449371 4.719849 1,475 185 130 -640
2022-11-27 00:20:44 GMT 52.450653 4.720001 1,500 185 130 -576
2022-11-27 00:20:43 GMT 52.451385 4.720119 1,500 185 131 -512
2022-11-27 00:20:42 GMT 52.452595 4.720276 1,525 185 132 -512
2022-11-27 00:20:40 GMT 52.453125 4.720383 1,525 185 133 -512
2022-11-27 00:20:38 GMT 52.454365 4.720511 1,550 185 133 -512
2022-11-27 00:20:37 GMT 52.455063 4.720590 1,550 184 134 -576
2022-11-27 00:20:34 GMT 52.456696 4.720764 1,575 184 136 -704
2022-11-27 00:20:33 GMT 52.457527 4.720825 1,600 184 137 -768
2022-11-27 00:20:32 GMT 52.458225 4.720904 1,600 184 138 -832
2022-11-27 00:20:30 GMT 52.459484 4.720982 1,650 183 139 -960
2022-11-27 00:20:29 GMT 52.460182 4.721061 1,650 183 140 -960
2022-11-27 00:20:28 GMT 52.460770 4.721146 1,675 183 141 -1024
2022-11-27 00:20:27 GMT 52.462097 4.721222 1,700 183 142 -1024
2022-11-27 00:20:25 GMT 52.462463 4.721298 1,725 183 143 -1024
2022-11-27 00:20:24 GMT 52.463470 4.721375 1,750 184 143 -1024
2022-11-27 00:20:23 GMT 52.464111 4.721375 1,750 184 144 -960
2022-11-27 00:20:21 GMT 52.465485 4.721527 1,800 184 145 -896
2022-11-27 00:20:20 GMT 52.466095 4.721610 1,800 184 146 -832
2022-11-27 00:20:19 GMT 52.466766 4.721603 1,825 184 147 -768
2022-11-27 00:20:17 GMT 52.468189 4.721767 1,850 184 149 -576
2022-11-27 00:20:16 GMT 52.468609 4.721767 1,850 184 150 -512
2022-11-27 00:20:14 GMT 52.470051 4.721924 1,850 184 151 -448
2022-11-27 00:20:13 GMT 52.470749 4.722002 1,875 184 153 -576
2022-11-27 00:20:12 GMT 52.471481 4.722061 1,875 183 154 -640
2022-11-27 00:20:11 GMT 52.472168 4.722137 1,900 183 155 -704
2022-11-27 00:20:09 GMT 52.473770 4.722290 1,925 183 156 -832
2022-11-27 00:20:07 GMT 52.475033 4.722395 1,950 183 157 -896
2022-11-27 00:20:05 GMT 52.476151 4.722443 2,050 183 162 -896
2022-11-27 00:20:00 GMT 52.480061 4.722709 2,025 183 161 -896
2022-11-27 00:19:56 GMT 52.483383 4.722900 2,100 182 166 -832
2022-11-27 00:19:54 GMT 52.484848 4.722977 2,125 183 167 -896
2022-11-27 00:19:51 GMT 52.486950 4.723179 2,200 185 168 -960
2022-11-27 00:19:48 GMT 52.489555 4.723572 2,225 189 168 -960
2022-11-27 00:19:45 GMT 52.491558 4.724121 2,275 191 169 -960
2022-11-27 00:19:41 GMT 52.494461 4.725189 2,350 199 170 -896
2022-11-27 00:19:39 GMT 52.495880 4.725876 2,400 201 170 -896
2022-11-27 00:19:36 GMT 52.498764 4.727631 2,425 202 171 -896
2022-11-27 00:19:34 GMT 52.500641 4.728851 2,450 202 172 -960
2022-11-27 00:19:31 GMT 52.502335 4.729919 2,500 200 174 -960
2022-11-27 00:19:29 GMT 52.503475 4.730556 2,550 196 175 -960
2022-11-27 00:19:26 GMT 52.506409 4.732056 2,575 195 176 -960
2022-11-27 00:19:24 GMT 52.508057 4.732742 2,625 192 178 -1024
2022-11-27 00:19:21 GMT 52.509762 4.733303 2,650 191 178 -1024
2022-11-27 00:19:18 GMT 52.512634 4.734039 2,725 185 181 -1024
2022-11-27 00:19:15 GMT 52.515198 4.734421 2,775 183 182 -1088
2022-11-27 00:19:11 GMT 52.518173 4.734497 2,825 178 184 -1088
2022-11-27 00:19:09 GMT 52.519363 4.734421 2,875 175 185 -1088
2022-11-27 00:19:06 GMT 52.521957 4.734087 2,900 172 187 -1088
2022-11-27 00:19:03 GMT 52.525223 4.733276 2,975 168 190 -1152
2022-11-27 00:19:00 GMT 52.527592 4.732439 3,050 163 193 -1152
2022-11-27 00:18:57 GMT 52.530167 4.731216 3,100 160 193 -1152
2022-11-27 00:18:54 GMT 52.532619 4.729771 3,175 155 197 -1024
2022-11-27 00:18:51 GMT 52.535110 4.728012 3,200 153 200 -832
2022-11-27 00:18:48 GMT 52.537830 4.725769 3,250 147 205 -896
2022-11-27 00:18:45 GMT 52.540112 4.723493 3,275 145 205 -1024
2022-11-27 00:18:43 GMT 52.542023 4.721218 3,325 141 209 -1216
2022-11-27 00:18:40 GMT 52.546417 4.714661 3,400 134 212 -1152
2022-11-27 00:18:37 GMT 52.546417 4.714661 3,450 133 213 -1216
2022-11-27 00:18:34 GMT 52.547981 4.711958 3,525 131 216 -1216
2022-11-27 00:18:31 GMT 52.550262 4.707799 3,575 131 216 -1216
2022-11-27 00:18:29 GMT 52.551193 4.706151 3,625 131 216 -1216
2022-11-27 00:18:26 GMT 52.553753 4.701364 3,675 131 218 -1152
2022-11-27 00:18:23 GMT 52.555893 4.697418 3,725 131 218 -1024
2022-11-27 00:18:20 GMT 52.559620 4.690534 3,775 131 219 -896
2022-11-27 00:18:17 GMT 52.559620 4.690534 3,800 131 220 -832
2022-11-27 00:18:14 GMT 52.564316 4.681854 3,875 131 222 -1024
2022-11-27 00:18:10 GMT 52.566414 4.678135 3,925 132 222 -1088
2022-11-27 00:18:07 GMT 52.566414 4.678135 3,975 132 223 -1024
2022-11-27 00:18:04 GMT 52.568138 4.674997 4,000 132 223 -960
2022-11-27 00:18:01 GMT 52.570602 4.670680 4,050 133 224 -832
2022-11-27 00:17:58 GMT 52.572739 4.666977 4,125 133 225 -896
2022-11-27 00:17:55 GMT 52.574654 4.663618 4,150 130 227 -960
2022-11-27 00:17:53 GMT 52.576904 4.659195 4,200 127 229 -960
2022-11-27 00:17:50 GMT 52.578003 4.656677 4,250 122 233 -1024
2022-11-27 00:17:47 GMT 52.579788 4.651947 4,275 116 238 -1024
2022-11-27 00:17:44 GMT 52.581219 4.647060 4,350 104 247 -960
2022-11-27 00:17:41 GMT 52.582443 4.641571 4,375 104 247 -960
2022-11-27 00:17:37 GMT 52.583454 4.634583 4,450 97 252 -896
2022-11-27 00:17:34 GMT 52.583824 4.629011 4,500 92 257 -1024
2022-11-27 00:17:31 GMT 52.583954 4.621582 4,575 89 259 -1024
2022-11-27 00:17:28 GMT 52.583965 4.617475 4,625 89 260 -1024
2022-11-27 00:17:25 GMT 52.583920 4.610805 4,650 89 261 -1088
2022-11-27 00:17:23 GMT 52.583874 4.607195 4,675 89 261 -1088
2022-11-27 00:17:20 GMT 52.583874 4.602251 4,725 89 261 -1216
2022-11-27 00:17:17 GMT 52.583778 4.594561 4,800 89 261 -1280
2022-11-27 00:17:14 GMT 52.583725 4.589005 4,875 89 262 -1152
2022-11-27 00:17:11 GMT 52.583725 4.582825 4,925 89 262 -1152
2022-11-27 00:17:08 GMT 52.583687 4.578238 5,000 90 262 -1152
2022-11-27 00:17:05 GMT 52.583687 4.570862 5,050 90 262 -1152
2022-11-27 00:17:03 GMT 52.583733 4.566703 5,075 90 262 -1152
2022-11-27 00:17:00 GMT 52.583778 4.560974 5,775 90 263 -1280
2022-11-27 00:16:57 GMT 52.583824 4.554382 5,225 89 263 -1280
2022-11-27 00:16:54 GMT 52.583778 4.549360 5,300 84 264 -1280
2022-11-27 00:16:50 GMT 52.582718 4.536667 5,375 78 265 -1280
2022-11-27 00:16:48 GMT 52.582718 4.536667 5,450 70 269 -1280
2022-11-27 00:16:45 GMT 52.581573 4.530640 5,475 68 269 -1216
2022-11-27 00:16:43 GMT 52.580704 4.526978 5,525 64 271 -1216
2022-11-27 00:16:40 GMT 52.579102 4.521866 5,650 50 276 -832
2022-11-27 00:16:37 GMT 52.577042 4.516602 5,625 52 275 -896
2022-11-27 00:16:34 GMT 52.574982 4.512405 5,650 48 276 -704
2022-11-27 00:16:31 GMT 52.572189 4.507675 5,675 39 281 -576
2022-11-27 00:16:29 GMT 52.570232 4.504865 5,700 35 282 -576
2022-11-27 00:16:26 GMT 52.566101 4.500275 5,750 29 285 -640
2022-11-27 00:16:23 GMT 52.563808 4.498117 5,750 28 286 -640
2022-11-27 00:16:20 GMT 52.559830 4.494705 5,925 25 296 -1344
2022-11-27 00:16:17 GMT 52.556580 4.492111 5,825 25 290 -640
2022-11-27 00:16:14 GMT 52.548958 4.486032 5,850 25 294 -768
2022-11-27 00:16:11 GMT 52.548958 4.486032 5,875 25 293 -704
2022-11-27 00:16:09 GMT 52.545639 4.483414 5,925 25 294 -832
2022-11-27 00:16:06 GMT 52.543076 4.481354 5,975 25 296 -1152
2022-11-27 00:16:03 GMT 52.539879 4.478891 6,000 25 296 -1280
2022-11-27 00:16:00 GMT 52.535660 4.475555 6,075 25 296 -1408
2022-11-27 00:15:57 GMT 52.531967 4.472691 6,175 25 296 -1344
2022-11-27 00:15:54 GMT 52.527969 4.469604 6,250 25 297 -1344
2022-11-27 00:15:51 GMT 52.524284 4.466727 6,300 25 297 -1408
2022-11-27 00:15:49 GMT 52.522293 4.465179 6,875 24 299 -1344
2022-11-27 00:15:46 GMT 52.518173 4.462051 6,400 25 297 -1408
2022-11-27 00:15:43 GMT 52.511536 4.457016 6,475 24 298 -1408
2022-11-27 00:15:41 GMT 52.511536 4.457016 6,525 24 298 -1408
2022-11-27 00:15:39 GMT 52.509659 4.455566 6,525 24 298 -1408
2022-11-27 00:15:36 GMT 52.505493 4.452362 6,625 24 299 -1344
2022-11-27 00:15:33 GMT 52.502380 4.449997 6,700 25 300 -1344
2022-11-27 00:15:30 GMT 52.498215 4.446793 6,750 24 301 -1344
2022-11-27 00:15:27 GMT 52.494278 4.443817 6,850 25 302 -1344
2022-11-27 00:15:24 GMT 52.489510 4.440203 6,925 25 302 -1344
2022-11-27 00:15:21 GMT 52.484158 4.436122 6,975 25 302 -1344
2022-11-27 00:15:19 GMT 52.484158 4.436122 7,050 25 303 -1408
2022-11-27 00:15:16 GMT 52.480900 4.433533 7,100 25 303 -1408
2022-11-27 00:15:13 GMT 52.476334 4.430008 7,175 25 303 -1408
2022-11-27 00:15:10 GMT 52.472900 4.427338 7,225 25 303 -1408
2022-11-27 00:15:07 GMT 52.469009 4.424286 7,325 25 304 -1344
2022-11-27 00:15:04 GMT 52.465302 4.421387 7,400 25 304 -1408
2022-11-27 00:15:01 GMT 52.461136 4.418106 7,450 25 304 -1408
2022-11-27 00:14:59 GMT 52.457932 4.415665 7,500 25 304 -1408
2022-11-27 00:14:56 GMT 52.454773 4.413147 7,550 25 305 -1408
2022-11-27 00:14:53 GMT 52.449783 4.409332 7,650 25 305 -1408
2022-11-27 00:14:50 GMT 52.447083 4.407196 7,725 25 306 -1408
2022-11-27 00:14:47 GMT 52.442642 4.403687 7,775 25 306 -1408
2022-11-27 00:14:44 GMT 52.439438 4.401169 7,825 25 307 -1408
2022-11-27 00:14:41 GMT 52.435867 4.398346 7,900 25 307 -1408
2022-11-27 00:14:39 GMT 52.433041 4.396179 7,975 25 307 -1408
2022-11-27 00:14:36 GMT 52.428806 4.392805 8,850 25 310 -1344
2022-11-27 00:14:33 GMT 52.424973 4.389801 8,100 25 307 -1408
2022-11-27 00:14:30 GMT 52.420101 4.386056 8,200 25 308 -1408
2022-11-27 00:14:27 GMT 52.418285 4.384644 8,250 25 308 -1344
2022-11-27 00:14:24 GMT 52.414284 4.381583 8,300 25 308 -1344
2022-11-27 00:14:21 GMT 52.407299 4.376168 8,375 25 309 -1344
2022-11-27 00:14:19 GMT 52.407299 4.376168 8,475 25 309 -1344
2022-11-27 00:14:16 GMT 52.403809 4.373500 8,475 25 309 -1344
2022-11-27 00:14:13 GMT 52.399292 4.370047 8,525 25 310 -1344
2022-11-27 00:14:10 GMT 52.392124 4.364554 8,650 25 310 -1344
2022-11-27 00:14:07 GMT 52.392124 4.364554 8,700 25 311 -1344
2022-11-27 00:14:04 GMT 52.388119 4.361415 8,800 25 311 -1344
2022-11-27 00:14:02 GMT 52.385651 4.359532 8,825 25 312 -1344
2022-11-27 00:13:59 GMT 52.380936 4.355927 8,875 25 312 -1344
2022-11-27 00:13:56 GMT 52.377274 4.353097 8,925 25 313 -1344
2022-11-27 00:13:53 GMT 52.372833 4.349670 8,975 25 314 -1344
2022-11-27 00:13:50 GMT 52.369675 4.347229 9,050 25 314 -1344
2022-11-27 00:13:47 GMT 52.365875 4.344330 9,175 25 314 -1408
2022-11-27 00:13:44 GMT 52.361912 4.341248 9,200 25 314 -1408
2022-11-27 00:13:42 GMT 52.359398 4.339364 9,275 25 315 -1408
2022-11-27 00:13:39 GMT 52.355164 4.336090 9,325 25 316 -1408
2022-11-27 00:13:36 GMT 52.351856 4.333636 9,375 25 316 -1408
2022-11-27 00:13:33 GMT 52.347759 4.330497 9,425 25 317 -1344
2022-11-27 00:13:30 GMT 52.343262 4.327011 9,500 25 317 -1408
2022-11-27 00:13:27 GMT 52.339920 4.324417 9,625 25 318 -1408
2022-11-27 00:13:24 GMT 52.334911 4.320530 9,675 25 318 -1408
2022-11-27 00:13:21 GMT 52.327183 4.314645 9,750 25 318 -1408
2022-11-27 00:13:19 GMT 52.327183 4.314645 9,800 24 318 -1408
2022-11-27 00:13:16 GMT 52.325321 4.313232 9,850 24 318 -1344
2022-11-27 00:13:13 GMT 52.321289 4.310226 9,900 24 318 -1280
2022-11-27 00:13:10 GMT 52.317169 4.307098 9,975 24 319 -1024
2022-11-27 00:13:07 GMT 52.312332 4.303423 10,025 24 321 -576
2022-11-27 00:13:04 GMT 52.308144 4.300284 10,075 24 324 -640
2022-11-27 00:13:01 GMT 52.304466 4.297459 10,075 24 324 -640
2022-11-27 00:12:59 GMT 52.300919 4.294815 10,100 24 327 -704
2022-11-27 00:12:56 GMT 52.298035 4.292679 10,125 24 327 -640
2022-11-27 00:12:53 GMT 52.293339 4.289141 10,150 24 330 -576
2022-11-27 00:12:50 GMT 52.288879 4.285736 10,175 24 332 -512
2022-11-27 00:12:46 GMT 52.284401 4.282392 10,225 24 336 -512
2022-11-27 00:12:43 GMT 52.278908 4.278233 10,250 24 338 -448
2022-11-27 00:12:40 GMT 52.275787 4.275818 10,250 24 340 -384
2022-11-27 00:12:38 GMT 52.272110 4.273054 10,275 25 344 -320
2022-11-27 00:12:35 GMT 52.267365 4.269366 10,300 25 345 -320
2022-11-27 00:12:32 GMT 52.263885 4.266739 10,300 25 348 -448
2022-11-27 00:12:29 GMT 52.259354 4.263306 10,350 25 350 -960
2022-11-27 00:12:26 GMT 52.254410 4.259491 10,425 25 350 -1408
2022-11-27 00:12:23 GMT 52.250557 4.256574 10,500 25 350 -1728
2022-11-27 00:12:20 GMT 52.246323 4.253278 10,550 25 350 -1856
2022-11-27 00:12:18 GMT 52.242691 4.250453 10,675 25 350 -1920
2022-11-27 00:12:15 GMT 52.239304 4.247818 10,700 25 350 -1920
2022-11-27 00:12:12 GMT 52.233170 4.243088 10,825 25 349 -1856
2022-11-27 00:12:09 GMT 52.230400 4.240958 10,925 25 348 -1856
2022-11-27 00:12:06 GMT 52.226349 4.237747 11,100 25 349 -1856
2022-11-27 00:12:03 GMT 52.220673 4.233322 11,125 25 349 -1920
2022-11-27 00:12:00 GMT 52.217606 4.230957 11,175 25 349 -1856
2022-11-27 00:11:58 GMT 52.214264 4.228363 11,275 25 349 -1856
2022-11-27 00:11:55 GMT 52.208588 4.223938 11,375 25 349 -1856
2022-11-27 00:11:52 GMT 52.205933 4.221954 11,375 25 349 -1856
2022-11-27 00:11:49 GMT 52.201538 4.218593 11,500 25 349 -1920
2022-11-27 00:11:46 GMT 52.196548 4.214859 11,650 24 349 -1856
2022-11-27 00:11:43 GMT 52.192291 4.211655 11,750 24 349 -1856
2022-11-27 00:11:40 GMT 52.188034 4.208450 11,800 24 350 -1856
2022-11-27 00:11:38 GMT 52.184235 4.205627 11,900 24 350 -1856
2022-11-27 00:11:35 GMT 52.176167 4.199524 12,025 24 350 -1920
2022-11-27 00:11:32 GMT 52.176167 4.199524 12,050 24 350 -1920
2022-11-27 00:11:29 GMT 52.165554 4.191520 12,225 24 350 -1920
2022-11-27 00:11:26 GMT 52.165554 4.191520 12,300 24 350 -1920
2022-11-27 00:11:23 GMT 52.163635 4.190063 12,425 24 350 -1984
2022-11-27 00:11:20 GMT 52.158943 4.186497 12,475 24 350 -1984
2022-11-27 00:11:18 GMT 52.151138 4.180603 12,600 25 351 -2048
2022-11-27 00:11:15 GMT 52.151138 4.180603 12,625 25 351 -2048
2022-11-27 00:11:12 GMT 52.146011 4.176712 12,850 24 351 -2048
2022-11-27 00:11:09 GMT 52.142464 4.174020 12,850 24 351 -2048
2022-11-27 00:11:06 GMT 52.133514 4.167252 12,975 24 351 -2048
2022-11-27 00:11:03 GMT 52.133514 4.167252 13,075 24 351 -2048
2022-11-27 00:11:00 GMT 52.129055 4.163975 13,150 24 351 -2048
2022-11-27 00:10:58 GMT 52.125099 4.160993 13,225 24 351 -2048
2022-11-27 00:10:55 GMT 52.121246 4.158096 13,300 24 351 -2048
2022-11-27 00:10:52 GMT 52.117138 4.155029 13,475 24 351 -1984
2022-11-27 00:10:49 GMT 52.112137 4.151230 13,525 24 351 -1984
2022-11-27 00:10:46 GMT 52.103256 4.144592 13,650 25 352 -1984
2022-11-27 00:10:43 GMT 52.103256 4.144592 13,800 25 352 -1984
2022-11-27 00:10:40 GMT 52.099869 4.142003 13,850 25 352 -1984
2022-11-27 00:10:38 GMT 52.096657 4.139491 13,900 24 352 -1984
2022-11-27 00:10:35 GMT 52.091488 4.135646 13,975 23 352 -1984
2022-11-27 00:10:32 GMT 52.086693 4.132272 14,125 19 351 -2048
2022-11-27 00:10:29 GMT 52.083664 4.130325 14,200 18 351 -2048
2022-11-27 00:10:26 GMT 52.073612 4.125131 14,375 14 350 -1984
2022-11-27 00:10:23 GMT 52.073612 4.125131 14,425 12 350 -1984
2022-11-27 00:10:20 GMT 52.069199 4.123383 14,450 11 350 -1984
2022-11-27 00:10:18 GMT 52.065094 4.122070 14,575 9 350 -1920
2022-11-27 00:10:15 GMT 52.061089 4.120972 14,625 7 350 -1856
2022-11-27 00:10:12 GMT 52.055130 4.119795 14,725 4 349 -1856
2022-11-27 00:10:09 GMT 52.051594 4.119402 14,875 0 349 -1920
2022-11-27 00:10:06 GMT 52.045635 4.119088 14,950 359 348 -1920
2022-11-27 00:10:03 GMT 52.036976 4.119638 15,050 357 347 -1984
2022-11-27 00:10:00 GMT 52.036976 4.119638 15,150 357 347 -1984
2022-11-27 00:09:58 GMT 52.034546 4.119873 15,225 357 347 -1920
2022-11-27 00:09:55 GMT 52.028316 4.120579 15,275 357 347 -1920
2022-11-27 00:09:52 GMT 52.024155 4.121017 15,350 357 347 -1856
2022-11-27 00:09:49 GMT 52.019798 4.121521 15,425 357 347 -1856
2022-11-27 00:09:46 GMT 52.014496 4.122009 15,600 357 348 -1856
2022-11-27 00:09:43 GMT 52.008224 4.122696 15,675 357 348 -1856
2022-11-27 00:09:40 GMT 52.004379 4.123077 15,775 357 348 -1856
2022-11-27 00:09:38 GMT 52.000526 4.123483 15,825 357 348 -1856
2022-11-27 00:09:35 GMT 51.996197 4.123875 15,900 357 349 -1856
2022-11-27 00:09:32 GMT 51.992798 4.124268 15,975 357 349 -1856
2022-11-27 00:09:30 GMT 51.988934 4.124581 16,050 357 349 -1856
2022-11-27 00:09:27 GMT 51.984100 4.125061 16,150 357 349 -1920
2022-11-27 00:09:25 GMT 51.981033 4.125366 16,375 357 349 -1920
2022-11-27 00:09:23 GMT 51.976971 4.125759 16,275 357 350 -1920
2022-11-27 00:09:20 GMT 51.971832 4.126282 16,375 357 350 -1920
2022-11-27 00:09:17 GMT 51.967937 4.126700 16,450 357 350 -1856
2022-11-27 00:09:15 GMT 51.964691 4.126968 16,525 357 350 -1856
2022-11-27 00:09:13 GMT 51.960026 4.127407 16,625 357 350 -1856
2022-11-27 00:09:10 GMT 51.955650 4.127877 16,700 357 350 -1856
2022-11-27 00:09:08 GMT 51.953228 4.128113 16,750 357 350 -1920
2022-11-27 00:09:06 GMT 51.948994 4.128505 16,850 357 350 -1920
2022-11-27 00:09:03 GMT 51.944614 4.128976 16,925 357 351 -1984
2022-11-27 00:09:00 GMT 51.939915 4.129368 17,000 359 352 -1920
2022-11-27 00:08:57 GMT 51.935863 4.129525 17,075 0 353 -1856
2022-11-27 00:08:54 GMT 51.930954 4.129410 17,200 2 354 -1856
2022-11-27 00:08:52 GMT 51.925762 4.129054 17,275 5 354 -1920
2022-11-27 00:08:49 GMT 51.923481 4.128741 17,325 5 354 -1920
2022-11-27 00:08:47 GMT 51.919235 4.128036 17,400 7 356 -1920
2022-11-27 00:08:45 GMT 51.914963 4.127093 17,500 9 357 -1920
2022-11-27 00:08:42 GMT 51.907196 4.124832 17,575 11 357 -1920
2022-11-27 00:08:40 GMT 51.907196 4.124832 17,650 12 358 -1856
2022-11-27 00:08:37 GMT 51.904129 4.123688 17,725 14 358 -1856
2022-11-27 00:08:35 GMT 51.899323 4.121678 17,875 17 359 -1856
2022-11-27 00:08:32 GMT 51.895504 4.119795 18,000 19 361 -1856
2022-11-27 00:08:29 GMT 51.891548 4.117661 17,925 19 361 -1856
2022-11-27 00:08:27 GMT 51.887310 4.115067 18,025 22 363 -1920
2022-11-27 00:08:25 GMT 51.879868 4.110074 18,150 23 363 -1984
2022-11-27 00:08:22 GMT 51.875702 4.107179 18,450 22 364 -1920
2022-11-27 00:08:19 GMT 51.872177 4.104730 18,300 23 364 -1920
2022-11-27 00:08:17 GMT 51.872177 4.104730 18,375 23 364 -1920
2022-11-27 00:08:15 GMT 51.867691 4.101612 18,450 23 364 -1920
2022-11-27 00:08:12 GMT 51.862244 4.097900 18,550 22 364 -1920
2022-11-27 00:08:09 GMT 51.859940 4.096298 18,575 22 364 -1920
2022-11-27 00:08:07 GMT 51.856842 4.094189 18,700 22 364 -1920
2022-11-27 00:08:05 GMT 51.852489 4.091187 18,750 22 364 -1920
2022-11-27 00:08:02 GMT 51.844856 4.085999 18,850 22 365 -1920
2022-11-27 00:07:59 GMT 51.840664 4.083176 19,000 22 365 -1856
2022-11-27 00:07:57 GMT 51.840664 4.083176 19,000 22 365 -1856
2022-11-27 00:07:55 GMT 51.836288 4.080200 19,350 22 366 -1856
2022-11-27 00:07:52 GMT 51.831940 4.077264 19,125 22 366 -1856
2022-11-27 00:07:49 GMT 51.829285 4.075408 19,225 22 366 -1856
2022-11-27 00:07:47 GMT 51.821953 4.070435 19,325 22 367 -1856
2022-11-27 00:07:45 GMT 51.821953 4.070435 19,400 22 367 -1856
2022-11-27 00:07:42 GMT 51.814407 4.065387 19,475 22 367 -1856
2022-11-27 00:07:40 GMT 51.814407 4.065387 19,500 22 368 -1792
2022-11-27 00:07:38 GMT 51.811752 4.063605 19,625 22 368 -1792
2022-11-27 00:07:35 GMT 51.806900 4.060339 19,700 22 368 -1856
2022-11-27 00:07:32 GMT 51.797932 4.054337 19,800 22 369 -1856
2022-11-27 00:07:29 GMT 51.797932 4.054337 19,825 22 369 -1856
2022-11-27 00:07:27 GMT 51.794765 4.052200 19,925 22 369 -1856
2022-11-27 00:07:25 GMT 51.789879 4.048920 20,025 22 370 -1856
2022-11-27 00:07:22 GMT 51.785965 4.046249 20,100 22 370 -1856
2022-11-27 00:07:20 GMT 51.782333 4.043808 20,125 22 370 -1856
2022-11-27 00:07:18 GMT 51.779343 4.041707 20,375 22 371 -1920
2022-11-27 00:07:15 GMT 51.774002 4.038086 20,800 22 373 -1920
2022-11-27 00:07:12 GMT 51.770653 4.035873 20,450 22 371 -1920
2022-11-27 00:07:10 GMT 51.766571 4.033022 20,450 22 371 -1920
2022-11-27 00:07:08 GMT 51.763733 4.031092 20,550 22 372 -1920
2022-11-27 00:07:05 GMT 51.753101 4.023895 20,650 22 372 -1920
2022-11-27 00:07:02 GMT 51.753101 4.023895 20,750 22 372 -1920
2022-11-27 00:06:59 GMT 51.744370 4.017953 20,875 22 373 -1920
2022-11-27 00:06:56 GMT 51.744370 4.017953 20,950 22 373 -1920
2022-11-27 00:06:53 GMT 51.738190 4.013721 21,025 22 373 -1920
2022-11-27 00:06:50 GMT 51.734528 4.011272 21,100 22 374 -1920
2022-11-27 00:06:48 GMT 51.730709 4.008713 21,200 22 374 -1920
2022-11-27 00:06:45 GMT 51.726059 4.005556 21,275 22 374 -1920
2022-11-27 00:06:42 GMT 51.722237 4.002991 21,375 22 374 -1920
2022-11-27 00:06:40 GMT 51.718414 4.000434 21,425 22 374 -1920
2022-11-27 00:06:38 GMT 51.716324 3.999023 21,625 22 377 -1856
2022-11-27 00:06:35 GMT 51.710411 3.995056 21,600 22 375 -1856
2022-11-27 00:06:32 GMT 51.705433 3.991699 21,675 22 375 -1856
2022-11-27 00:06:29 GMT 51.702255 3.989596 21,750 22 376 -1856
2022-11-27 00:06:27 GMT 51.698227 3.986924 21,850 22 377 -1856
2022-11-27 00:06:25 GMT 51.691792 3.982620 21,875 22 377 -1856
2022-11-27 00:06:23 GMT 51.691792 3.982620 21,975 22 377 -1856
2022-11-27 00:06:20 GMT 51.683739 3.977203 22,050 22 378 -1856
2022-11-27 00:06:18 GMT 51.683739 3.977203 22,150 22 378 -1792
2022-11-27 00:06:15 GMT 51.673450 3.970261 22,250 22 378 -1856
2022-11-27 00:06:12 GMT 51.673450 3.970261 22,275 22 378 -1856
2022-11-27 00:06:09 GMT 51.666641 3.965693 22,375 22 379 -1856
2022-11-27 00:06:07 GMT 51.666641 3.965693 22,525 22 379 -1856
2022-11-27 00:06:04 GMT 51.661011 3.961833 22,475 22 379 -1856
2022-11-27 00:06:02 GMT 51.657761 3.959656 22,600 22 380 -1920
2022-11-27 00:06:00 GMT 51.654373 3.957305 22,650 22 380 -1920
2022-11-27 00:05:58 GMT 51.650940 3.955004 22,750 22 380 -1920
2022-11-27 00:05:55 GMT 51.646271 3.951812 22,850 22 381 -1920
2022-11-27 00:05:52 GMT 51.636997 3.945618 22,925 22 381 -1920
2022-11-27 00:05:50 GMT 51.636997 3.945618 23,000 22 381 -1920
2022-11-27 00:05:48 GMT 51.635368 3.944473 23,000 22 381 -1920
2022-11-27 00:05:45 GMT 51.629196 3.940306 23,175 22 382 -1920
2022-11-27 00:05:42 GMT 51.625267 3.937683 23,225 22 383 -1920
2022-11-27 00:05:40 GMT 51.618759 3.933254 23,325 22 383 -1920
2022-11-27 00:05:38 GMT 51.618759 3.933254 23,400 22 383 -1920
2022-11-27 00:05:35 GMT 51.614513 3.930359 23,525 22 383 -1920
2022-11-27 00:05:32 GMT 51.608643 3.926350 23,550 22 384 -1856
2022-11-27 00:05:29 GMT 51.600456 3.920822 23,775 22 385 -1856
2022-11-27 00:05:27 GMT 51.597519 3.918853 23,900 22 385 -1920
2022-11-27 00:05:24 GMT 51.597519 3.918853 23,900 22 385 -1920
2022-11-27 00:05:22 GMT 51.592587 3.915558 23,850 22 385 -1920
2022-11-27 00:05:20 GMT 51.585022 3.910465 23,975 22 385 -1920
2022-11-27 00:05:18 GMT 51.585022 3.910465 24,025 22 385 -1856
2022-11-27 00:05:15 GMT 51.580902 3.907718 24,125 22 387 -1792
2022-11-27 00:05:12 GMT 51.576294 3.904648 24,150 22 386 -1856
2022-11-27 00:05:10 GMT 51.573315 3.902664 24,225 22 387 -1856
2022-11-27 00:05:08 GMT 51.569046 3.899775 24,325 22 389 -1664
2022-11-27 00:05:05 GMT 51.559113 3.893169 24,425 22 390 -1024
2022-11-27 00:05:02 GMT 51.555626 3.890839 24,500 22 389 -1408
2022-11-27 00:04:59 GMT 51.555626 3.890839 24,550 22 390 -1216
2022-11-27 00:04:57 GMT 51.551971 3.888344 24,575 22 390 -1088
2022-11-27 00:04:55 GMT 51.547806 3.885597 24,625 22 390 -960
2022-11-27 00:04:52 GMT 51.542824 3.882217 24,675 22 390 -960
2022-11-27 00:04:50 GMT 51.539471 3.880005 24,700 22 390 -960
2022-11-27 00:04:48 GMT 51.536819 3.878174 24,750 22 391 -960
2022-11-27 00:04:45 GMT 51.531139 3.874359 24,775 22 391 -1024
2022-11-27 00:04:42 GMT 51.526154 3.870973 24,825 22 391 -1024
2022-11-27 00:04:39 GMT 51.522293 3.868408 24,875 22 392 -1024
2022-11-27 00:04:37 GMT 51.516815 3.864664 24,925 22 392 -1024
2022-11-27 00:04:34 GMT 51.513638 3.862534 25,075 22 393 -1088
2022-11-27 00:04:31 GMT 51.509262 3.859542 25,075 22 393 -1088
2022-11-27 00:04:29 GMT 51.505051 3.856721 25,025 22 393 -1088
2022-11-27 00:04:27 GMT 51.501572 3.854420 25,100 22 393 -1024
2022-11-27 00:04:25 GMT 51.491848 3.847809 25,150 22 393 -1024
2022-11-27 00:04:22 GMT 51.491848 3.847809 25,175 22 393 -1024
2022-11-27 00:04:19 GMT 51.488663 3.845660 25,225 22 393 -1024
2022-11-27 00:04:17 GMT 51.478088 3.838608 25,325 22 393 -960
2022-11-27 00:04:14 GMT 51.478088 3.838608 25,325 22 394 -960
2022-11-27 00:04:11 GMT 51.475555 3.836899 25,350 22 394 -960
2022-11-27 00:04:09 GMT 51.471367 3.834076 25,375 22 394 -960
2022-11-27 00:04:07 GMT 51.467010 3.831111 25,525 22 394 -1024
2022-11-27 00:04:04 GMT 51.459587 3.826141 25,475 22 395 -1024
2022-11-27 00:04:02 GMT 51.459587 3.826141 25,500 22 395 -1024
2022-11-27 00:03:59 GMT 51.448463 3.818665 25,575 22 396 -1088
2022-11-27 00:03:56 GMT 51.448463 3.818665 25,650 22 396 -1024
2022-11-27 00:03:53 GMT 51.445251 3.816528 25,650 22 397 -1024
2022-11-27 00:03:51 GMT 51.441341 3.813934 25,675 22 397 -1024
2022-11-27 00:03:49 GMT 51.437439 3.811365 25,725 22 397 -1088
2022-11-27 00:03:47 GMT 51.427231 3.804536 25,800 22 398 -1024
2022-11-27 00:03:44 GMT 51.427231 3.804536 25,900 22 400 -1024
2022-11-27 00:03:41 GMT 51.424026 3.802383 25,900 22 400 -1024
2022-11-27 00:03:38 GMT 51.419739 3.799591 25,900 22 400 -1024
2022-11-27 00:03:36 GMT 51.415649 3.796816 25,950 22 400 -1024
2022-11-27 00:03:34 GMT 51.411713 3.794217 26,000 22 401 -1024
2022-11-27 00:03:31 GMT 51.403519 3.788724 26,050 22 402 -1024
2022-11-27 00:03:29 GMT 51.403519 3.788724 26,050 22 402 -1024
2022-11-27 00:03:27 GMT 51.400406 3.786720 26,100 22 403 -1024
2022-11-27 00:03:25 GMT 51.396278 3.783951 26,125 22 403 -1024
2022-11-27 00:03:23 GMT 51.394043 3.782489 26,150 22 403 -960
2022-11-27 00:03:21 GMT 51.389740 3.779594 26,200 22 404 -960
2022-11-27 00:03:19 GMT 51.386314 3.777313 26,225 22 404 -960
2022-11-27 00:03:17 GMT 51.382187 3.774546 26,375 22 406 -960
2022-11-27 00:03:14 GMT 51.372528 3.768088 26,350 22 405 -1024
2022-11-27 00:03:11 GMT 51.372528 3.768088 26,375 22 405 -960
2022-11-27 00:03:09 GMT 51.369232 3.765869 26,400 22 406 -960
2022-11-27 00:03:07 GMT 51.359547 3.759460 26,475 22 406 -960
2022-11-27 00:03:04 GMT 51.359547 3.759460 26,550 22 406 -1024
2022-11-27 00:03:01 GMT 51.351562 3.754206 26,575 22 406 -1024
2022-11-27 00:02:59 GMT 51.351562 3.754206 26,575 22 406 -1024
2022-11-27 00:02:57 GMT 51.347946 3.751757 26,600 22 407 -1088
2022-11-27 00:02:55 GMT 51.344650 3.749604 26,625 22 407 -1024
2022-11-27 00:02:53 GMT 51.341492 3.747526 26,700 22 407 -1024
2022-11-27 00:02:50 GMT 51.335449 3.743443 26,725 22 407 -1024
2022-11-27 00:02:48 GMT 51.332474 3.741513 26,800 22 407 -1088
2022-11-27 00:02:45 GMT 51.327286 3.738022 26,800 22 408 -960
2022-11-27 00:02:43 GMT 51.324123 3.735886 26,850 22 408 -1024
2022-11-27 00:02:40 GMT 51.318024 3.731842 26,900 22 408 -1024
2022-11-27 00:02:38 GMT 51.314392 3.729401 26,900 22 408 -1024
2022-11-27 00:02:35 GMT 51.309860 3.726369 26,975 22 409 -1024
2022-11-27 00:02:33 GMT 51.307434 3.724811 27,000 22 409 -1024
2022-11-27 00:02:31 GMT 51.302895 3.721771 27,050 22 408 -960
2022-11-27 00:02:29 GMT 51.299057 3.719243 27,075 22 408 -1088
2022-11-27 00:02:27 GMT 51.295727 3.717041 27,125 22 408 -1024
2022-11-27 00:02:25 GMT 51.292236 3.714789 27,150 22 408 -1024
2022-11-27 00:02:23 GMT 51.287670 3.711777 27,275 22 408 -1024
2022-11-27 00:02:20 GMT 51.282272 3.708191 27,250 22 409 -1024
2022-11-27 00:02:18 GMT 51.279106 3.706131 27,300 22 409 -1024
2022-11-27 00:02:15 GMT 51.274731 3.703232 27,325 22 410 -960
2022-11-27 00:02:13 GMT 51.272141 3.701502 27,375 22 412 -1024
2022-11-27 00:02:11 GMT 51.267426 3.698384 27,375 22 410 -960
2022-11-27 00:02:09 GMT 51.264404 3.696380 27,400 22 411 -960
2022-11-27 00:02:06 GMT 51.259182 3.692932 27,450 22 411 -1024
2022-11-27 00:02:04 GMT 51.255844 3.690664 27,500 22 412 -1024
2022-11-27 00:02:01 GMT 51.250397 3.687101 27,550 22 412 -1024
2022-11-27 00:01:59 GMT 51.243164 3.682276 27,675 22 413 -1024
2022-11-27 00:01:57 GMT 51.243164 3.682276 27,600 22 412 -1024
2022-11-27 00:01:55 GMT 51.239628 3.679962 27,650 22 413 -1024
2022-11-27 00:01:53 GMT 51.237350 3.678416 27,750 22 413 -1024
2022-11-27 00:01:51 GMT 51.232956 3.675521 27,725 22 413 -1024
2022-11-27 00:01:49 GMT 51.229435 3.673172 27,750 22 413 -1024
2022-11-27 00:01:46 GMT 51.224827 3.670120 27,850 22 413 -960
2022-11-27 00:01:43 GMT 51.219379 3.666534 27,850 22 413 -960
2022-11-27 00:01:41 GMT 51.214584 3.663406 27,900 22 413 -896
2022-11-27 00:01:39 GMT 51.211231 3.661118 27,900 22 413 -896
2022-11-27 00:01:37 GMT 51.202621 3.655396 27,975 22 412 -896
2022-11-27 00:01:34 GMT 51.202621 3.655396 28,000 22 412 -896
2022-11-27 00:01:32 GMT 51.199268 3.653183 28,050 22 411 -896
2022-11-27 00:01:29 GMT 51.193634 3.649465 28,050 22 411 -896
2022-11-27 00:01:27 GMT 51.185909 3.644333 28,175 22 411 -896
2022-11-27 00:01:24 GMT 51.185909 3.644333 28,200 22 411 -896
2022-11-27 00:01:21 GMT 51.179111 3.639755 28,200 22 411 -896
2022-11-27 00:01:19 GMT 51.175598 3.637440 28,225 22 410 -960
2022-11-27 00:01:17 GMT 51.172966 3.635712 28,250 22 410 -960
2022-11-27 00:01:14 GMT 51.168777 3.632911 28,300 22 410 -960
2022-11-27 00:01:12 GMT 51.163696 3.629571 28,350 22 409 -960
2022-11-27 00:01:09 GMT 51.159512 3.626785 28,375 22 409 -960
2022-11-27 00:01:07 GMT 51.149551 3.620144 28,425 22 409 -960
2022-11-27 00:01:04 GMT 51.149551 3.620144 28,475 22 409 -960
2022-11-27 00:01:02 GMT 51.146439 3.618065 28,550 22 409 -960
2022-11-27 00:00:59 GMT 51.142941 3.615799 28,550 22 409 -960
2022-11-27 00:00:57 GMT 51.137695 3.612275 28,575 22 409 -960
2022-11-27 00:00:55 GMT 51.134216 3.609974 28,625 22 408 -960
2022-11-27 00:00:52 GMT 51.127438 3.605499 28,675 22 408 -960
2022-11-27 00:00:49 GMT 51.124100 3.603293 28,700 22 408 -960
2022-11-27 00:00:47 GMT 51.116959 3.598542 28,775 21 407 -960
2022-11-27 00:00:44 GMT 51.116959 3.598542 28,775 21 407 -960
2022-11-27 00:00:42 GMT 51.111237 3.594756 28,825 22 407 -960
2022-11-27 00:00:39 GMT 51.107941 3.592604 28,850 21 407 -960
2022-11-27 00:00:37 GMT 51.102859 3.589486 28,925 19 404 -960
2022-11-27 00:00:34 GMT 51.099319 3.587494 28,950 18 404 -960
2022-11-27 00:00:32 GMT 51.093178 3.584213 29,000 17 402 -960
2022-11-27 00:00:29 GMT 51.089767 3.582434 29,000 17 402 -896
2022-11-27 00:00:27 GMT 51.084843 3.579941 29,050 17 401 -960
2022-11-27 00:00:24 GMT 51.080933 3.577980 29,100 17 401 -960
2022-11-27 00:00:22 GMT 51.078461 3.576718 29,175 17 401 -960
2022-11-27 00:00:20 GMT 51.073902 3.574371 29,150 17 401 -960
2022-11-27 00:00:18 GMT 51.071045 3.572932 29,175 17 401 -960
2022-11-27 00:00:16 GMT 51.065598 3.570185 29,375 17 397 -960
2022-11-27 00:00:13 GMT 51.060516 3.567587 29,250 17 399 -960
2022-11-27 00:00:10 GMT 51.056625 3.565583 29,300 17 399 -960
2022-11-27 00:00:08 GMT 51.052963 3.563727 29,325 17 397 -960
2022-11-27 00:00:06 GMT 51.049278 3.561859 29,375 17 397 -960
2022-11-27 00:00:04 GMT 51.044529 3.559494 29,425 17 397 -960
2022-11-27 00:00:02 GMT 51.042992 3.558655 29,425 17 396 -960
2022-11-27 00:00:00 GMT 51.038803 3.556595 29,500 17 395 -960
2022-11-26 23:59:58 GMT 51.035980 3.555116 29,500 17 396 -960
2022-11-26 23:59:56 GMT 51.029026 3.551636 29,700 17 394 -1024
2022-11-26 23:59:54 GMT 51.029026 3.551636 29,575 17 395 -1024
2022-11-26 23:59:52 GMT 51.025543 3.549846 29,600 17 394 -1024
2022-11-26 23:59:50 GMT 51.020321 3.547211 29,750 17 394 -1024
2022-11-26 23:59:48 GMT 51.018600 3.546295 29,650 17 394 -1024
2022-11-26 23:59:46 GMT 51.015289 3.544650 29,700 17 394 -1088
2022-11-26 23:59:44 GMT 51.011478 3.542709 29,750 17 394 -1088
2022-11-26 23:59:42 GMT 51.008358 3.541107 29,775 17 394 -1088
2022-11-26 23:59:40 GMT 51.003525 3.538637 29,800 17 394 -1088
2022-11-26 23:59:37 GMT 50.997437 3.535519 29,875 17 394 -1024
2022-11-26 23:59:34 GMT 50.993134 3.533292 29,900 17 394 -960
2022-11-26 23:59:32 GMT 50.990707 3.532104 29,925 17 394 -832
2022-11-26 23:59:30 GMT 50.986526 3.529968 29,950 17 394 -640
2022-11-26 23:59:28 GMT 50.981689 3.527502 29,975 17 395 -192
2022-11-26 23:59:25 GMT 50.976974 3.525052 29,975 17 397 -64
2022-11-26 23:59:22 GMT 50.972794 3.522949 29,975 17 397 -64
2022-11-26 23:59:20 GMT 50.965118 3.519040 30,000 17 398 -64
2022-11-26 23:59:18 GMT 50.965118 3.519040 30,000 17 398 -64
2022-11-26 23:59:16 GMT 50.962509 3.517703 30,000 17 398 -64
2022-11-26 23:59:14 GMT 50.955475 3.514099 30,000 17 398 0
2022-11-26 23:59:12 GMT 50.955475 3.514099 30,000 17 398 0
2022-11-26 23:59:10 GMT 50.951294 3.511988 30,000 17 398 0
2022-11-26 23:59:08 GMT 50.948677 3.510666 30,000 17 398 0
2022-11-26 23:59:06 GMT 50.944302 3.508453 30,000 17 398 0
2022-11-26 23:59:04 GMT 50.941463 3.507004 30,000 17 398 0
2022-11-26 23:59:02 GMT 50.937782 3.505173 30,000 17 398 0
2022-11-26 23:59:00 GMT 50.933945 3.503154 30,000 17 398 0
2022-11-26 23:58:58 GMT 50.927635 3.499985 30,000 17 398 0
2022-11-26 23:58:56 GMT 50.927635 3.499985 30,000 17 398 0
2022-11-26 23:58:54 GMT 50.924332 3.498255 30,000 17 398 0
2022-11-26 23:58:52 GMT 50.920139 3.496170 30,000 17 397 0
2022-11-26 23:58:49 GMT 50.914215 3.493133 30,000 17 397 0
2022-11-26 23:58:47 GMT 50.910873 3.491500 30,000 17 397 0
2022-11-26 23:58:44 GMT 50.906178 3.489075 30,000 17 396 0
2022-11-26 23:58:42 GMT 50.903366 3.487640 30,000 17 396 0
2022-11-26 23:58:40 GMT 50.898819 3.485336 30,000 17 396 0
2022-11-26 23:58:38 GMT 50.896545 3.484225 30,000 17 396 0
2022-11-26 23:58:36 GMT 50.892025 3.481903 30,000 17 396 0
2022-11-26 23:58:34 GMT 50.887650 3.479691 30,000 17 396 0
2022-11-26 23:58:32 GMT 50.878895 3.475342 30,000 17 396 0
2022-11-26 23:58:29 GMT 50.878895 3.475342 30,000 17 396 0
2022-11-26 23:58:26 GMT 50.874008 3.472824 30,000 17 396 0
2022-11-26 23:58:24 GMT 50.871552 3.471605 30,000 17 396 0
2022-11-26 23:58:22 GMT 50.868439 3.470047 30,000 17 396 64
2022-11-26 23:58:20 GMT 50.864044 3.467820 30,000 17 396 0
2022-11-26 23:58:18 GMT 50.860062 3.465815 30,000 17 396 0
2022-11-26 23:58:16 GMT 50.856552 3.464050 30,000 17 396 0
2022-11-26 23:58:14 GMT 50.851479 3.461456 30,000 17 396 0
2022-11-26 23:58:11 GMT 50.848358 3.459854 30,000 17 396 0
2022-11-26 23:58:09 GMT 50.839279 3.455349 30,000 17 396 0
2022-11-26 23:58:06 GMT 50.833832 3.452602 30,000 17 396 0
2022-11-26 23:58:03 GMT 50.833832 3.452602 30,000 17 396 0
2022-11-26 23:58:00 GMT 50.828430 3.449855 30,000 17 396 0
2022-11-26 23:57:58 GMT 50.826012 3.448639 30,000 17 396 0
2022-11-26 23:57:56 GMT 50.821636 3.446426 30,000 17 396 0
2022-11-26 23:57:53 GMT 50.816391 3.443843 30,000 17 396 0
2022-11-26 23:57:50 GMT 50.808517 3.439834 30,000 17 396 0
2022-11-26 23:57:48 GMT 50.803619 3.437347 30,000 17 396 0
2022-11-26 23:57:46 GMT 50.803619 3.437347 30,000 17 397 0
2022-11-26 23:57:44 GMT 50.801697 3.436420 30,000 17 397 0
2022-11-26 23:57:42 GMT 50.797852 3.434415 30,000 17 397 0
2022-11-26 23:57:39 GMT 50.792770 3.431891 30,000 17 397 0
2022-11-26 23:57:37 GMT 50.789474 3.430184 30,000 17 397 0
2022-11-26 23:57:34 GMT 50.779835 3.425369 30,000 17 397 0
2022-11-26 23:57:32 GMT 50.779835 3.425369 30,000 17 397 0
2022-11-26 23:57:29 GMT 50.774231 3.422538 30,000 17 397 0
2022-11-26 23:57:27 GMT 50.771641 3.421249 30,000 17 397 0
2022-11-26 23:57:24 GMT 50.760792 3.415756 30,000 17 397 0
2022-11-26 23:57:21 GMT 50.760792 3.415756 30,000 17 397 0
2022-11-26 23:57:19 GMT 50.756416 3.413544 30,000 17 397 0
2022-11-26 23:57:17 GMT 50.748875 3.409805 30,000 17 397 0
2022-11-26 23:57:14 GMT 50.745026 3.407840 30,000 17 397 0
2022-11-26 23:57:12 GMT 50.745026 3.407840 30,000 17 397 0
2022-11-26 23:57:10 GMT 50.741547 3.406059 30,000 17 397 0
2022-11-26 23:57:08 GMT 50.737331 3.404007 30,000 17 397 0
2022-11-26 23:57:05 GMT 50.733307 3.401976 30,000 17 397 0
2022-11-26 23:57:03 GMT 50.729462 3.400040 30,000 17 397 0
2022-11-26 23:57:00 GMT 50.723690 3.397141 30,000 17 397 -64
2022-11-26 23:56:58 GMT 50.714813 3.392623 30,000 17 396 -64
2022-11-26 23:56:56 GMT 50.714813 3.392623 30,000 17 396 0
2022-11-26 23:56:53 GMT 50.712341 3.391435 30,000 17 396 0
2022-11-26 23:56:50 GMT 50.706070 3.388243 30,000 17 396 0
2022-11-26 23:56:48 GMT 50.703442 3.386917 30,000 17 396 0
2022-11-26 23:56:46 GMT 50.700832 3.385620 30,000 17 396 0
2022-11-26 23:56:44 GMT 50.695248 3.382797 30,000 17 396 64
2022-11-26 23:56:41 GMT 50.690689 3.380523 30,000 17 396 0
2022-11-26 23:56:38 GMT 50.684921 3.377628 30,000 17 396 0
2022-11-26 23:56:35 GMT 50.680389 3.375327 30,000 17 396 0
2022-11-26 23:56:33 GMT 50.677094 3.373718 30,000 17 396 0
2022-11-26 23:56:30 GMT 50.671143 3.370707 30,000 17 396 0
2022-11-26 23:56:28 GMT 50.665009 3.367671 30,000 17 396 0
2022-11-26 23:56:26 GMT 50.665009 3.367671 30,000 17 396 0
2022-11-26 23:56:24 GMT 50.660660 3.365430 30,000 17 396 0
2022-11-26 23:56:22 GMT 50.658234 3.364202 30,000 17 396 0
2022-11-26 23:56:20 GMT 50.650543 3.360371 30,000 17 396 0
2022-11-26 23:56:18 GMT 50.650543 3.360371 30,000 17 396 0
2022-11-26 23:56:16 GMT 50.648071 3.359142 30,000 17 396 0
2022-11-26 23:56:14 GMT 50.643723 3.356974 30,000 17 396 0
2022-11-26 23:56:12 GMT 50.640427 3.355311 30,000 17 396 0
2022-11-26 23:56:10 GMT 50.634979 3.352637 30,000 17 396 0
2022-11-26 23:56:07 GMT 50.629578 3.349890 30,000 17 396 0
2022-11-26 23:56:04 GMT 50.622070 3.346132 30,000 17 396 0
2022-11-26 23:56:02 GMT 50.622070 3.346132 30,000 17 396 0
2022-11-26 23:55:59 GMT 50.617554 3.343852 30,000 17 396 0
2022-11-26 23:55:57 GMT 50.613174 3.341700 30,000 17 396 0
2022-11-26 23:55:54 GMT 50.609161 3.339699 30,000 17 396 0
2022-11-26 23:55:52 GMT 50.605499 3.337892 30,000 17 396 0
2022-11-26 23:55:49 GMT 50.600655 3.335390 30,000 17 396 0
2022-11-26 23:55:47 GMT 50.596985 3.333556 30,000 17 396 0
2022-11-26 23:55:44 GMT 50.591034 3.330592 30,000 17 396 0
2022-11-26 23:55:42 GMT 50.588455 3.329303 30,000 17 396 0
2022-11-26 23:55:39 GMT 50.578171 3.324159 30,000 17 396 0
2022-11-26 23:55:37 GMT 50.578171 3.324159 30,000 17 395 0
2022-11-26 23:55:34 GMT 50.573776 3.321991 30,000 17 396 0
2022-11-26 23:55:32 GMT 50.567001 3.318594 30,000 17 395 0
2022-11-26 23:55:30 GMT 50.567001 3.318594 30,000 17 395 0
2022-11-26 23:55:28 GMT 50.559315 3.314753 30,000 17 395 0
2022-11-26 23:55:26 GMT 50.559315 3.314753 30,000 17 396 0
2022-11-26 23:55:24 GMT 50.555145 3.312667 30,000 17 396 0
2022-11-26 23:55:21 GMT 50.552193 3.311116 30,000 17 396 0
2022-11-26 23:55:18 GMT 50.545715 3.307897 30,000 17 396 0
2022-11-26 23:55:16 GMT 50.543114 3.306588 30,000 17 396 0
2022-11-26 23:55:14 GMT 50.535278 3.302693 30,000 17 396 0
2022-11-26 23:55:12 GMT 50.535278 3.302693 30,000 17 396 0
2022-11-26 23:55:09 GMT 50.529831 3.300018 30,000 17 396 0
2022-11-26 23:55:07 GMT 50.522537 3.296344 30,000 17 396 0
2022-11-26 23:55:04 GMT 50.522537 3.296344 30,000 17 396 0
2022-11-26 23:55:02 GMT 50.518341 3.294236 30,000 17 396 0
2022-11-26 23:55:00 GMT 50.514679 3.292429 30,000 17 396 0
2022-11-26 23:54:58 GMT 50.511368 3.290776 30,000 17 396 0
2022-11-26 23:54:56 GMT 50.505066 3.287586 30,000 17 396 0
2022-11-26 23:54:54 GMT 50.505066 3.287586 30,000 17 396 0
2022-11-26 23:54:52 GMT 50.500519 3.285358 30,000 17 396 0
2022-11-26 23:54:50 GMT 50.496887 3.283502 30,000 17 396 0
2022-11-26 23:54:48 GMT 50.493393 3.281804 30,000 17 396 0
2022-11-26 23:54:45 GMT 50.483047 3.276672 30,000 17 396 0
2022-11-26 23:54:42 GMT 50.483047 3.276672 30,000 17 397 0
2022-11-26 23:54:39 GMT 50.478012 3.274143 30,000 17 397 0
2022-11-26 23:54:37 GMT 50.474499 3.272367 30,000 17 397 0
2022-11-26 23:54:34 GMT 50.469955 3.270167 30,000 17 397 0
2022-11-26 23:54:32 GMT 50.466629 3.268507 30,000 17 397 0
2022-11-26 23:54:30 GMT 50.462082 3.266192 30,000 17 397 0
2022-11-26 23:54:28 GMT 50.458420 3.264385 30,000 17 397 0
2022-11-26 23:54:26 GMT 50.449814 3.260121 30,000 17 397 0
2022-11-26 23:54:23 GMT 50.449814 3.260121 30,000 17 397 0
2022-11-26 23:54:20 GMT 50.444237 3.257298 30,000 17 397 0
2022-11-26 23:54:18 GMT 50.440559 3.255516 30,000 17 397 0
2022-11-26 23:54:16 GMT 50.436695 3.253586 30,000 17 397 0
2022-11-26 23:54:13 GMT 50.432831 3.251664 30,000 17 397 0
2022-11-26 23:54:10 GMT 50.427429 3.248917 30,000 17 397 0
2022-11-26 23:54:08 GMT 50.420403 3.245421 30,000 17 397 0
2022-11-26 23:54:06 GMT 50.420403 3.245421 30,000 17 397 0
2022-11-26 23:54:03 GMT 50.414307 3.242377 30,000 17 397 0
2022-11-26 23:54:00 GMT 50.410446 3.240461 30,000 17 398 64
2022-11-26 23:53:58 GMT 50.405365 3.237931 30,000 17 398 64
2022-11-26 23:53:56 GMT 50.401505 3.235993 30,000 17 398 64
2022-11-26 23:53:53 GMT 50.397964 3.234212 30,000 17 398 64
2022-11-26 23:53:50 GMT 50.391682 3.231020 30,000 17 398 0
2022-11-26 23:53:48 GMT 50.388515 3.229461 30,000 17 398 0
2022-11-26 23:53:46 GMT 50.385681 3.228101 30,000 17 398 0
2022-11-26 23:53:43 GMT 50.378693 3.224562 30,000 17 399 0
2022-11-26 23:53:40 GMT 50.370941 3.220729 30,000 17 399 0
2022-11-26 23:53:38 GMT 50.370941 3.220729 30,000 17 399 0
2022-11-26 23:53:36 GMT 50.368126 3.219365 30,000 17 399 64
2022-11-26 23:53:33 GMT 50.361282 3.215951 30,000 17 399 64
2022-11-26 23:53:30 GMT 50.356857 3.213798 30,000 17 399 0
2022-11-26 23:53:28 GMT 50.354233 3.212489 30,000 17 399 0
2022-11-26 23:53:26 GMT 50.349472 3.210176 30,000 17 399 0
2022-11-26 23:53:24 GMT 50.346817 3.208875 30,000 17 399 0
2022-11-26 23:53:21 GMT 50.342056 3.206562 30,000 17 400 -64
2022-11-26 23:53:19 GMT 50.336426 3.203816 30,000 17 400 -64
2022-11-26 23:53:16 GMT 50.333084 3.202153 30,000 17 400 -64
2022-11-26 23:53:14 GMT 50.328835 3.200065 30,000 17 400 -64
2022-11-26 23:53:11 GMT 50.324459 3.197912 30,000 17 400 -64
2022-11-26 23:53:09 GMT 50.314777 3.193236 30,000 17 399 -64
2022-11-26 23:53:06 GMT 50.311050 3.191454 30,000 17 399 -64
2022-11-26 23:53:03 GMT 50.311050 3.191454 30,000 17 399 -64
2022-11-26 23:53:01 GMT 50.307003 3.189450 30,000 17 399 -64
2022-11-26 23:52:59 GMT 50.301361 3.186758 30,000 17 400 64
2022-11-26 23:52:56 GMT 50.297134 3.184699 30,000 17 400 0
2022-11-26 23:52:53 GMT 50.291656 3.182060 30,000 17 400 64
2022-11-26 23:52:50 GMT 50.286163 3.179386 30,000 17 401 64
2022-11-26 23:52:48 GMT 50.283691 3.178157 30,000 17 401 64
2022-11-26 23:52:46 GMT 50.280350 3.176567 30,000 17 401 64
2022-11-26 23:52:43 GMT 50.274693 3.173787 30,000 17 401 128
2022-11-26 23:52:41 GMT 50.271149 3.172013 30,000 17 401 128
2022-11-26 23:52:39 GMT 50.266708 3.169845 29,875 17 400 1664
2022-11-26 23:52:36 GMT 50.262497 3.167821 29,925 17 400 1024
2022-11-26 23:52:33 GMT 50.256134 3.164641 29,900 17 400 1344
2022-11-26 23:52:30 GMT 50.250114 3.161687 29,800 17 400 1728
2022-11-26 23:52:28 GMT 50.248344 3.160796 29,775 17 400 1728
2022-11-26 23:52:26 GMT 50.243408 3.158353 29,700 17 401 1728
2022-11-26 23:52:23 GMT 50.239700 3.156546 29,625 17 401 1728
2022-11-26 23:52:21 GMT 50.236336 3.154858 29,575 17 401 1728
2022-11-26 23:52:19 GMT 50.231915 3.152705 29,475 17 401 1728
2022-11-26 23:52:16 GMT 50.226093 3.149810 29,400 17 406 1600
2022-11-26 23:52:13 GMT 50.221996 3.147880 29,350 17 402 1856
2022-11-26 23:52:11 GMT 50.218460 3.146137 29,225 17 402 1920
2022-11-26 23:52:09 GMT 50.207108 3.140500 29,175 17 403 1920
2022-11-26 23:52:06 GMT 50.207108 3.140500 29,075 17 403 1920
2022-11-26 23:52:03 GMT 50.202530 3.138259 29,000 17 403 1920
2022-11-26 23:52:00 GMT 50.198090 3.136018 28,875 17 403 1920
2022-11-26 23:51:58 GMT 50.194530 3.134295 28,875 17 403 1920
2022-11-26 23:51:55 GMT 50.189365 3.131772 28,700 17 404 1984
2022-11-26 23:51:52 GMT 50.184895 3.129545 28,700 17 404 1984
2022-11-26 23:51:50 GMT 50.179916 3.127128 28,575 17 404 2048
2022-11-26 23:51:48 GMT 50.175816 3.125091 28,550 17 404 2048
2022-11-26 23:51:45 GMT 50.171539 3.123008 28,450 17 405 2048
2022-11-26 23:51:42 GMT 50.165810 3.120191 28,275 17 405 2112
2022-11-26 23:51:39 GMT 50.159729 3.117226 28,150 17 406 2176
2022-11-26 23:51:36 GMT 50.156124 3.115441 28,100 17 406 2176
2022-11-26 23:51:34 GMT 50.147186 3.111082 28,000 17 407 1984
2022-11-26 23:51:31 GMT 50.147186 3.111082 27,950 17 407 1792
2022-11-26 23:51:29 GMT 50.142700 3.108914 27,875 17 407 1600
2022-11-26 23:51:27 GMT 50.140182 3.107685 27,850 17 406 1600
2022-11-26 23:51:25 GMT 50.136574 3.105939 27,800 17 403 1664
2022-11-26 23:51:23 GMT 50.126194 3.100891 27,650 17 406 1664
2022-11-26 23:51:20 GMT 50.126194 3.100891 27,625 17 406 1664
2022-11-26 23:51:18 GMT 50.123680 3.099629 27,600 17 405 1600
2022-11-26 23:51:16 GMT 50.119953 3.097773 27,525 17 405 1600
2022-11-26 23:51:13 GMT 50.114555 3.095175 27,450 17 405 1600
2022-11-26 23:51:11 GMT 50.111530 3.093691 27,375 17 404 1600
2022-11-26 23:51:09 GMT 50.101894 3.089014 27,125 17 404 1664
2022-11-26 23:51:06 GMT 50.101894 3.089014 27,225 17 403 1664
2022-11-26 23:51:03 GMT 50.096725 3.086490 27,175 17 403 1664
2022-11-26 23:51:01 GMT 50.093185 3.084783 27,125 17 403 1664
2022-11-26 23:50:59 GMT 50.083740 3.080219 27,025 17 403 1728
2022-11-26 23:50:56 GMT 50.083740 3.080219 26,925 17 402 1728
2022-11-26 23:50:53 GMT 50.078613 3.077690 26,800 17 402 1664
2022-11-26 23:50:50 GMT 50.072563 3.074761 26,800 17 402 1728
2022-11-26 23:50:48 GMT 50.065674 3.071347 26,725 17 402 1728
2022-11-26 23:50:46 GMT 50.065674 3.071347 26,675 17 402 1664
2022-11-26 23:50:43 GMT 50.060509 3.068897 26,600 17 401 1600
2022-11-26 23:50:41 GMT 50.057156 3.067190 26,550 17 401 1600
2022-11-26 23:50:38 GMT 50.051834 3.064607 26,475 17 400 1664
2022-11-26 23:50:35 GMT 50.046890 3.062222 26,425 17 400 1728
2022-11-26 23:50:32 GMT 50.042305 3.059989 26,300 17 400 1792
2022-11-26 23:50:30 GMT 50.038101 3.057885 26,125 17 399 1664
2022-11-26 23:50:27 GMT 50.032810 3.055313 26,125 17 399 1664
2022-11-26 23:50:25 GMT 50.029270 3.053531 26,100 17 399 1664
2022-11-26 23:50:23 GMT 50.024895 3.051378 26,025 17 399 1600
2022-11-26 23:50:21 GMT 50.017319 3.047694 25,900 17 398 1664
2022-11-26 23:50:18 GMT 50.012421 3.045309 25,875 17 398 1664
2022-11-26 23:50:16 GMT 50.012421 3.045309 25,825 17 397 1856
2022-11-26 23:50:13 GMT 50.007530 3.042842 25,750 17 397 1920
2022-11-26 23:50:11 GMT 49.998596 3.038515 25,625 17 397 1856
2022-11-26 23:50:08 GMT 49.998596 3.038515 25,550 17 397 1792
2022-11-26 23:50:05 GMT 49.993835 3.036202 25,450 17 397 1792
2022-11-26 23:50:01 GMT 49.986862 3.032746 25,375 17 396 1792
2022-11-26 23:49:59 GMT 49.982986 3.030853 25,325 17 396 1792
2022-11-26 23:49:57 GMT 49.976212 3.027528 25,225 17 396 1856
2022-11-26 23:49:54 GMT 49.976212 3.027528 25,200 17 396 1856
2022-11-26 23:49:51 GMT 49.969589 3.024284 25,075 17 395 1856
2022-11-26 23:49:49 GMT 49.966095 3.022614 25,025 17 395 1856
2022-11-26 23:49:46 GMT 49.961025 3.020127 24,925 17 395 1856
2022-11-26 23:49:44 GMT 49.950970 3.015227 24,600 17 394 1920
2022-11-26 23:49:41 GMT 49.950970 3.015227 24,750 17 394 1920
2022-11-26 23:49:38 GMT 49.946594 3.013075 24,675 17 394 1920
2022-11-26 23:49:36 GMT 49.944874 3.012258 24,625 17 393 1920
2022-11-26 23:49:34 GMT 49.935333 3.007580 24,375 17 393 0
2022-11-26 23:49:31 GMT 49.935333 3.007580 24,450 17 393 1920
2022-11-26 23:49:29 GMT 49.931030 3.005484 24,375 17 393 1856
2022-11-26 23:49:27 GMT 49.928440 3.004241 24,275 17 392 1792
2022-11-26 23:49:25 GMT 49.923935 3.002014 24,250 17 392 1792
2022-11-26 23:49:21 GMT 49.918056 2.999193 24,150 17 392 1792
2022-11-26 23:49:19 GMT 49.908051 2.994294 24,025 17 391 1856
2022-11-26 23:49:16 GMT 49.908051 2.994294 23,975 17 391 1856
2022-11-26 23:49:14 GMT 49.900131 2.990377 23,850 17 390 1856
2022-11-26 23:49:11 GMT 49.896194 2.988426 23,825 17 390 1856
2022-11-26 23:49:09 GMT 49.896194 2.988426 23,650 17 390 1856
2022-11-26 23:49:07 GMT 49.893768 2.987269 23,675 17 389 1856
2022-11-26 23:49:05 GMT 49.888264 2.984570 23,600 17 389 1856
2022-11-26 23:49:02 GMT 49.885208 2.983005 23,550 17 389 1856
2022-11-26 23:48:59 GMT 49.879211 2.980114 23,375 17 389 1920
2022-11-26 23:48:57 GMT 49.871658 2.976428 23,375 17 388 1920
2022-11-26 23:48:54 GMT 49.871658 2.976428 23,250 17 387 1856
2022-11-26 23:48:51 GMT 49.865707 2.973464 23,200 17 387 1856
2022-11-26 23:48:49 GMT 49.861774 2.971579 23,050 17 387 1856
2022-11-26 23:48:47 GMT 49.859024 2.970284 23,075 17 386 1856
2022-11-26 23:48:44 GMT 49.854607 2.968090 23,000 17 386 1856
2022-11-26 23:48:41 GMT 49.848972 2.965418 22,900 17 386 1920
2022-11-26 23:48:39 GMT 49.844692 2.963414 22,800 17 384 1920
2022-11-26 23:48:36 GMT 49.841125 2.961683 22,750 17 384 1856
2022-11-26 23:48:32 GMT 49.832977 2.957852 22,600 16 383 1792
2022-11-26 23:48:30 GMT 49.830585 2.956733 22,575 16 383 1792
2022-11-26 23:48:28 GMT 49.826019 2.954599 22,475 16 382 1856
2022-11-26 23:48:26 GMT 49.824348 2.953763 22,450 16 382 1856
2022-11-26 23:48:24 GMT 49.820297 2.951908 22,250 16 381 1920
2022-11-26 23:48:21 GMT 49.811172 2.947602 22,250 16 381 1920
2022-11-26 23:48:19 GMT 49.811172 2.947602 22,175 16 381 1920
2022-11-26 23:48:17 GMT 49.808613 2.946489 22,150 16 380 1856
2022-11-26 23:48:15 GMT 49.805912 2.945227 22,075 16 379 1856
2022-11-26 23:48:12 GMT 49.799210 2.942109 21,975 16 379 1856
2022-11-26 23:48:09 GMT 49.794159 2.939782 21,875 16 378 1920
2022-11-26 23:48:07 GMT 49.791992 2.938769 21,825 16 378 1920
2022-11-26 23:48:05 GMT 49.789307 2.937542 21,775 16 378 1920
2022-11-26 23:48:02 GMT 49.782074 2.934289 21,650 16 377 1984
2022-11-26 23:48:00 GMT 49.780746 2.933639 21,625 16 377 1984
2022-11-26 23:47:58 GMT 49.776581 2.931759 21,525 16 377 1984
2022-11-26 23:47:56 GMT 49.774071 2.930603 21,450 16 376 2048
2022-11-26 23:47:53 GMT 49.768021 2.927929 21,300 16 376 2048
2022-11-26 23:47:50 GMT 49.763691 2.925926 21,300 16 375 2048
2022-11-26 23:47:48 GMT 49.759220 2.923848 21,225 16 375 1984
2022-11-26 23:47:44 GMT 49.753555 2.921207 21,075 17 375 2048
2022-11-26 23:47:41 GMT 49.748283 2.918726 20,950 17 374 2048
2022-11-26 23:47:38 GMT 49.739017 2.914272 20,675 18 374 2112
2022-11-26 23:47:35 GMT 49.739017 2.914272 20,775 17 374 2112
2022-11-26 23:47:32 GMT 49.732269 2.910857 20,625 18 374 2048
2022-11-26 23:47:29 GMT 49.727692 2.908486 20,525 19 374 2048
2022-11-26 23:47:27 GMT 49.722610 2.905667 20,325 20 373 2240
2022-11-26 23:47:21 GMT 49.715652 2.901764 20,250 20 373 2112
2022-11-26 23:47:18 GMT 49.711578 2.899451 20,125 20 373 2176
2022-11-26 23:47:16 GMT 49.703125 2.894675 20,050 20 373 2176
2022-11-26 23:47:13 GMT 49.703125 2.894675 19,975 20 373 2112
2022-11-26 23:47:11 GMT 49.700054 2.892967 19,925 20 373 1984
2022-11-26 23:47:08 GMT 49.693909 2.889477 19,825 20 372 1920
2022-11-26 23:47:05 GMT 49.690659 2.887670 19,725 20 371 1920
2022-11-26 23:47:01 GMT 49.683243 2.883477 19,600 20 371 1984
2022-11-26 23:46:58 GMT 49.678574 2.880875 19,500 20 370 1984
2022-11-26 23:46:56 GMT 49.674541 2.878566 19,400 20 369 1984
2022-11-26 23:46:53 GMT 49.668118 2.875003 19,275 19 369 1984
2022-11-26 23:46:50 GMT 49.665070 2.873286 19,250 19 369 2048
2022-11-26 23:46:48 GMT 49.661728 2.871407 19,125 20 368 2048
2022-11-26 23:46:45 GMT 49.657551 2.869065 19,050 20 368 1984
2022-11-26 23:46:41 GMT 49.651360 2.865576 18,900 20 367 1920
2022-11-26 23:46:37 GMT 49.645615 2.862300 18,825 20 366 1856
2022-11-26 23:46:34 GMT 49.639252 2.858758 18,600 20 363 1856
2022-11-26 23:46:31 GMT 49.634975 2.856297 18,600 20 364 1792
2022-11-26 23:46:29 GMT 49.631668 2.854441 18,525 20 363 1920
2022-11-26 23:46:27 GMT 49.628494 2.852687 18,475 20 362 1984
2022-11-26 23:46:25 GMT 49.625523 2.850952 18,400 20 362 1984
2022-11-26 23:46:21 GMT 49.619705 2.847686 18,275 20 361 1984
2022-11-26 23:46:17 GMT 49.613754 2.844303 18,150 20 360 1984
2022-11-26 23:46:14 GMT 49.608307 2.841267 18,050 20 360 2048
2022-11-26 23:46:11 GMT 49.603596 2.838630 17,925 20 358 2112
2022-11-26 23:46:07 GMT 49.597687 2.835268 17,800 20 358 2112
2022-11-26 23:46:04 GMT 49.593960 2.833136 17,625 20 357 2048
2022-11-26 23:46:01 GMT 49.588234 2.829945 17,600 20 356 2048
2022-11-26 23:45:58 GMT 49.583115 2.827049 17,475 20 355 2176
2022-11-26 23:45:55 GMT 49.579102 2.824787 17,375 20 355 2368
2022-11-26 23:45:52 GMT 49.574455 2.822224 17,250 20 355 2368
2022-11-26 23:45:50 GMT 49.570770 2.820162 17,200 19 355 2432
2022-11-26 23:45:48 GMT 49.567242 2.818142 17,075 19 355 2368
2022-11-26 23:45:45 GMT 49.563980 2.816360 16,975 19 354 2240
2022-11-26 23:45:41 GMT 49.556580 2.812277 16,825 19 353 2176
2022-11-26 23:45:38 GMT 49.547829 2.807378 16,650 19 353 2304
2022-11-26 23:45:35 GMT 49.547829 2.807378 16,600 19 353 2368
2022-11-26 23:45:31 GMT 49.541542 2.803889 16,425 19 352 2496
2022-11-26 23:45:28 GMT 49.536987 2.801369 16,300 19 352 2432
2022-11-26 23:45:25 GMT 49.532978 2.799138 16,200 19 352 2432
2022-11-26 23:45:21 GMT 49.526276 2.795370 16,025 19 351 2368
2022-11-26 23:45:17 GMT 49.520035 2.791864 15,875 20 350 2304
2022-11-26 23:45:15 GMT 49.517895 2.790676 15,800 20 350 2368
2022-11-26 23:45:11 GMT 49.511051 2.786816 15,625 20 349 2496
2022-11-26 23:45:08 GMT 49.506500 2.784239 15,500 20 349 2560
2022-11-26 23:45:04 GMT 49.501972 2.781620 15,325 19 348 2624
2022-11-26 23:45:01 GMT 49.495735 2.778353 15,200 17 347 2624
2022-11-26 23:44:58 GMT 49.491119 2.776144 15,050 15 346 2624
2022-11-26 23:44:55 GMT 49.486954 2.774337 14,750 12 343 2496
2022-11-26 23:44:51 GMT 49.479675 2.771663 14,750 12 343 2496
2022-11-26 23:44:48 GMT 49.475952 2.770485 14,650 10 342 2432
2022-11-26 23:44:45 GMT 49.471298 2.769205 14,375 359 334 2240
2022-11-26 23:44:40 GMT 49.464081 2.767664 14,325 6 339 2432
2022-11-26 23:44:38 GMT 49.459396 2.766965 14,200 3 338 2304
2022-11-26 23:44:36 GMT 49.457237 2.766773 14,150 2 337 2304
2022-11-26 23:44:32 GMT 49.450974 2.766386 14,000 0 336 2368
2022-11-26 23:44:28 GMT 49.443695 2.766531 13,825 359 335 2304
2022-11-26 23:44:25 GMT 49.440765 2.766603 13,750 359 334 2240
2022-11-26 23:44:20 GMT 49.433029 2.766847 13,525 359 333 2304
2022-11-26 23:44:18 GMT 49.428726 2.766965 13,450 359 333 2240
2022-11-26 23:44:16 GMT 49.426281 2.767037 13,400 359 332 2240
2022-11-26 23:44:10 GMT 49.417969 2.767217 13,175 359 330 2176
2022-11-26 23:44:08 GMT 49.413429 2.767398 13,050 359 330 2176
2022-11-26 23:44:06 GMT 49.410645 2.767428 13,025 359 329 2176
2022-11-26 23:44:02 GMT 49.402164 2.767687 12,900 359 328 2112
2022-11-26 23:44:00 GMT 49.402164 2.767687 12,775 359 327 2176
2022-11-26 23:43:58 GMT 49.398396 2.767832 12,725 359 327 2176
2022-11-26 23:43:55 GMT 49.393974 2.767904 12,625 359 326 2048
2022-11-26 23:43:50 GMT 49.387222 2.768121 12,400 359 323 1664
2022-11-26 23:43:48 GMT 49.382893 2.768266 12,400 359 323 1664
2022-11-26 23:43:46 GMT 49.381210 2.768273 12,375 359 323 1536
2022-11-26 23:43:43 GMT 49.375443 2.768484 12,275 359 320 1408
2022-11-26 23:43:40 GMT 49.372330 2.768555 12,150 359 317 1472
2022-11-26 23:43:38 GMT 49.368668 2.768696 12,150 359 317 1472
2022-11-26 23:43:33 GMT 49.361946 2.768844 12,050 359 314 1536
2022-11-26 23:43:30 GMT 49.357590 2.768977 11,950 359 312 1664
2022-11-26 23:43:28 GMT 49.353699 2.769118 11,875 359 310 1856
2022-11-26 23:43:26 GMT 49.351547 2.769189 11,825 359 309 1920
2022-11-26 23:43:23 GMT 49.346558 2.769400 11,725 359 308 2048
2022-11-26 23:43:20 GMT 49.342896 2.769470 11,625 359 307 2112
2022-11-26 23:43:18 GMT 49.339325 2.769611 11,525 359 306 2240
2022-11-26 23:43:16 GMT 49.337364 2.769711 11,475 359 306 2304
2022-11-26 23:43:10 GMT 49.328613 2.769963 11,225 359 305 2624
2022-11-26 23:43:08 GMT 49.325493 2.770073 11,125 359 305 2752
2022-11-26 23:43:05 GMT 49.322662 2.770104 10,675 0 308 3264
2022-11-26 23:43:00 GMT 49.314228 2.770362 10,725 0 306 3264
2022-11-26 23:42:58 GMT 49.311951 2.770386 10,650 0 307 3200
2022-11-26 23:42:53 GMT 49.305386 2.770578 10,400 0 309 3264
2022-11-26 23:42:49 GMT 49.299519 2.770651 10,200 0 311 3136
2022-11-26 23:42:47 GMT 49.296818 2.770723 10,100 0 312 2944
2022-11-26 23:42:45 GMT 49.293915 2.770808 9,925 359 312 2368
2022-11-26 23:42:39 GMT 49.285400 2.770949 9,750 359 312 2368
2022-11-26 23:42:37 GMT 49.282379 2.771090 9,375 359 307 1600
2022-11-26 23:42:35 GMT 49.279503 2.771157 9,600 359 311 2304
2022-11-26 23:42:28 GMT 49.268841 2.771446 9,325 359 309 1984
2022-11-26 23:42:25 GMT 49.265022 2.771590 9,250 359 308 1728
2022-11-26 23:42:21 GMT 49.258163 2.771794 9,125 359 305 1536
2022-11-26 23:42:19 GMT 49.256607 2.771865 9,100 0 305 1536
2022-11-26 23:42:17 GMT 49.254089 2.771935 9,050 0 303 1600
2022-11-26 23:42:15 GMT 49.250732 2.771952 8,975 0 302 1792
2022-11-26 23:42:11 GMT 49.240444 2.772241 8,775 0 300 2432
2022-11-26 23:42:08 GMT 49.240444 2.772241 8,700 0 300 2432
2022-11-26 23:42:04 GMT 49.236557 2.772358 8,575 359 300 2368
2022-11-26 23:41:59 GMT 49.228107 2.772602 8,375 359 298 1920
2022-11-26 23:41:57 GMT 49.226196 2.772675 8,350 359 298 1920
2022-11-26 23:41:55 GMT 49.222870 2.772780 8,250 359 297 1984
2022-11-26 23:41:49 GMT 49.214813 2.773062 8,050 359 295 2112
2022-11-26 23:41:47 GMT 49.212650 2.773108 8,000 359 295 2048
2022-11-26 23:41:45 GMT 49.209206 2.773253 7,900 359 294 2048
2022-11-26 23:41:39 GMT 49.199066 2.773555 7,650 359 291 2048
2022-11-26 23:41:37 GMT 49.199066 2.773555 7,650 359 291 2048
2022-11-26 23:41:35 GMT 49.195862 2.773696 7,575 359 291 2112
2022-11-26 23:41:31 GMT 49.189564 2.773903 7,400 359 288 1984
2022-11-26 23:41:28 GMT 49.185791 2.774048 7,325 359 288 2048
2022-11-26 23:41:24 GMT 49.181274 2.774192 7,200 359 288 1984
2022-11-26 23:41:21 GMT 49.176498 2.774330 7,075 359 286 1984
2022-11-26 23:41:19 GMT 49.173981 2.774400 7,025 359 286 1984
2022-11-26 23:41:17 GMT 49.172150 2.774470 7,000 359 285 1984
2022-11-26 23:41:14 GMT 49.168705 2.774554 6,900 359 284 2048
2022-11-26 23:41:09 GMT 49.161491 2.774698 6,675 359 282 1984
2022-11-26 23:41:07 GMT 49.159149 2.774823 6,650 359 282 1984
2022-11-26 23:41:04 GMT 49.155350 2.774893 6,550 0 281 2048
2022-11-26 23:40:59 GMT 49.147945 2.775060 6,350 0 280 2176
2022-11-26 23:40:57 GMT 49.146011 2.775104 6,275 0 279 2176
2022-11-26 23:40:54 GMT 49.142258 2.775175 6,200 0 279 2176
2022-11-26 23:40:49 GMT 49.134956 2.775349 5,975 0 278 2496
2022-11-26 23:40:47 GMT 49.133011 2.775386 5,925 0 278 2560
2022-11-26 23:40:44 GMT 49.129696 2.775421 5,775 0 278 2688
2022-11-26 23:40:41 GMT 49.124668 2.775566 5,600 0 279 2752
2022-11-26 23:40:39 GMT 49.121967 2.775638 5,500 359 279 2688
2022-11-26 23:40:37 GMT 49.120152 2.775638 5,350 359 280 2560
2022-11-26 23:40:34 GMT 49.116531 2.775738 5,325 359 280 2496
2022-11-26 23:40:29 GMT 49.109398 2.775927 5,100 359 281 2432
2022-11-26 23:40:27 GMT 49.107071 2.775999 5,025 359 281 2496
2022-11-26 23:40:21 GMT 49.099018 2.776216 4,750 359 282 2944
2022-11-26 23:40:19 GMT 49.095993 2.776288 4,650 359 282 3008
2022-11-26 23:40:17 GMT 49.094055 2.776301 4,575 359 283 2944
2022-11-26 23:40:14 GMT 49.090126 2.776433 4,425 359 283 2752
2022-11-26 23:40:08 GMT 49.081467 2.776867 4,000 1 284 2240
2022-11-26 23:39:58 GMT 49.069130 2.776288 3,825 8 286 1984
2022-11-26 23:39:56 GMT 49.066498 2.775597 3,750 12 286 1984
2022-11-26 23:39:48 GMT 49.056190 2.770362 3,475 27 286 2048
2022-11-26 23:39:46 GMT 49.054096 2.768627 3,400 29 286 2112
2022-11-26 23:39:38 GMT 49.043839 2.756864 2,925 46 281 1728
2022-11-26 23:39:28 GMT 49.037476 2.744610 2,775 62 274 2048
2022-11-26 23:39:26 GMT 49.036285 2.741441 2,800 60 274 2112
2022-11-26 23:39:23 GMT 49.034588 2.736246 2,675 67 271 1792
2022-11-26 23:39:18 GMT 49.032440 2.726370 2,500 79 263 1280
2022-11-26 23:39:16 GMT 49.031937 2.722730 2,525 78 264 1280
2022-11-26 23:39:09 GMT 49.030930 2.709609 2,375 85 252 896
2022-11-26 23:39:07 GMT 49.030609 2.704116 2,325 84 248 960
2022-11-26 23:39:03 GMT 49.030354 2.700107 2,275 84 244 1024
2022-11-26 23:38:58 GMT 49.029842 2.691217 2,175 84 240 1024
2022-11-26 23:38:56 GMT 49.029655 2.688542 2,000 84 236 1024
2022-11-26 23:38:48 GMT 49.028824 2.674467 2,025 84 227 960
2022-11-26 23:38:46 GMT 49.028679 2.672063 1,975 84 226 960
2022-11-26 23:38:45 GMT 49.028458 2.668269 1,950 85 222 960
2022-11-26 23:38:43 GMT 49.028351 2.666859 1,950 85 221 1024
2022-11-26 23:38:40 GMT 49.028046 2.661297 1,850 85 217 1280
2022-11-26 23:38:38 GMT 49.027981 2.659414 1,850 85 216 1344
2022-11-26 23:38:37 GMT 49.027908 2.658058 1,825 86 215 1344
2022-11-26 23:38:36 GMT 49.027794 2.656378 1,800 86 214 1344
2022-11-26 23:38:33 GMT 49.027588 2.651297 1,725 87 209 832
2022-11-26 23:38:31 GMT 49.027420 2.645392 1,700 87 206 512
2022-11-26 23:38:29 GMT 49.027420 2.645392 1,700 87 205 512
2022-11-26 23:38:26 GMT 49.027233 2.640694 1,650 86 201 832
2022-11-26 23:38:25 GMT 49.027222 2.639817 1,650 86 199 960
2022-11-26 23:38:23 GMT 49.027096 2.636646 1,600 86 197 1216
2022-11-26 23:38:21 GMT 49.027000 2.633972 1,575 86 197 1408
2022-11-26 23:38:20 GMT 49.026947 2.632775 1,550 86 195 1536
2022-11-26 23:38:19 GMT 49.026901 2.631366 1,475 86 195 1600
2022-11-26 23:38:17 GMT 49.026718 2.627423 1,425 86 193 1728
2022-11-26 23:38:15 GMT 49.026672 2.625944 1,400 86 193 1664
2022-11-26 23:38:14 GMT 49.026581 2.623347 1,350 86 192 1408
2022-11-26 23:38:12 GMT 49.026489 2.621718 1,325 86 192 1280
2022-11-26 23:38:11 GMT 49.026443 2.620380 1,325 86 191 1152
2022-11-26 23:38:09 GMT 49.026302 2.617637 1,275 85 189 960
2022-11-26 23:38:08 GMT 49.026211 2.616047 1,275 85 188 896
2022-11-26 23:38:07 GMT 49.026169 2.614887 1,250 85 187 832
2022-11-26 23:38:05 GMT 49.026070 2.612505 1,225 85 184 832
2022-11-26 23:38:04 GMT 49.025986 2.611084 1,225 85 183 896
2022-11-26 23:38:03 GMT 49.025940 2.610028 1,200 85 182 896
2022-11-26 23:38:01 GMT 49.025791 2.607229 1,175 85 179 1088
2022-11-26 23:38:00 GMT 49.025745 2.606217 1,150 85 179 1216
2022-11-26 23:37:59 GMT 49.025650 2.604988 1,125 85 178 1280
2022-11-26 23:37:58 GMT 49.025604 2.603615 1,100 85 177 1408
2022-11-26 23:37:56 GMT 49.025482 2.601013 1,050 86 176 1728
2022-11-26 23:37:55 GMT 49.025326 2.597327 975 86 175 1856
2022-11-26 23:37:53 GMT 49.025326 2.597327 950 86 175 1856
2022-11-26 23:37:51 GMT 49.025162 2.593619 900 86 174 1856
2022-11-26 23:37:49 GMT 49.025116 2.592633 825 86 173 1728
2022-11-26 23:37:48 GMT 49.025070 2.590802 800 86 173 1664
2022-11-26 23:37:47 GMT 49.025047 2.590171 800 86 172 1536
2022-11-26 23:37:45 GMT 49.024906 2.586919 725 85 171 1472
2022-11-26 23:37:43 GMT 49.024704 2.582632 650 85 168 1536
2022-11-26 23:37:41 GMT 49.024704 2.582632 625 84 168 1536
2022-11-26 23:37:39 GMT 49.024532 2.580414 600 84 167 1600
2022-11-26 23:37:38 GMT 49.024475 2.579322 550 84 166 1600
2022-11-26 23:37:37 GMT 49.024429 2.578336 525 84 165 1600
2022-11-26 23:37:36 GMT 49.024300 2.576077 475 84 164 1472
2022-11-26 23:37:34 GMT 49.024208 2.574848 450 83 163 1472
2022-11-26 23:37:33 GMT 49.024021 2.572535 400 83 163 1536
2022-11-26 23:37:31 GMT 49.023972 2.571364 375 83 162 1664
2022-11-26 23:37:30 GMT 49.023880 2.570237 325 83 161 1856
2022-11-26 23:37:28 GMT 49.023697 2.567913 250 83 162 2112
2022-11-26 23:37:27 GMT 49.023605 2.566787 225 83 161 2112
2022-11-26 23:37:25 GMT 49.023422 2.564463 150 84 162 1792
2022-11-26 23:37:24 GMT 49.023376 2.563477 125 84 162 1600
2022-11-26 23:37:23 GMT 49.023277 2.562200 100 84 162 1216
2022-11-26 23:37:21 GMT 49.023136 2.560031 75 84 159 576
2022-11-26 23:37:20 GMT 49.023090 2.558658 75 85 157 256
2022-11-26 23:37:19 GMT 49.022999 2.556923 50 85 155 192
2022-11-26 23:37:16 GMT 49.022873 2.554744 50 85 153 128
2022-11-26 23:37:15 GMT 49.022812 2.553815 50 85 147 64
2022-11-26 23:37:14 GMT 49.022766 2.552803 50 85 145 64
2022-11-26 23:37:04 GMT 49.022278 2.543898 75 85 92 0
2022-11-26 23:36:58 GMT 49.022026 2.539180 75 85 92 0
2022-11-26 23:36:57 GMT 49.021992 2.538528 0 87 90
2022-11-26 23:36:56 GMT 49.021957 2.537859 0 87 86
2022-11-26 23:36:55 GMT 49.021870 2.536161 0 87 74
2022-11-26 23:36:53 GMT 49.021870 2.536161 0 87 74
2022-11-26 23:36:52 GMT 49.021812 2.535167 0 87 66
2022-11-26 23:36:49 GMT 49.021763 2.534285 0 87 58
2022-11-26 23:36:48 GMT 49.021717 2.533469 0 87 46
2022-11-26 23:36:46 GMT 49.021694 2.533089 0 87 42
2022-11-26 23:36:45 GMT 49.021683 2.532782 0 87 38
2022-11-26 23:36:43 GMT 49.021660 2.532349 0 87 33
2022-11-26 23:36:41 GMT 49.021637 2.531879 0 87 21
2022-11-26 23:36:40 GMT 49.021637 2.531716 0 87 17
2022-11-26 23:36:39 GMT 49.021637 2.531626 0 87 17
2022-11-26 23:36:38 GMT 49.021614 2.531264 0 84 12
2022-11-26 23:36:36 GMT 49.021614 2.531264 0 84 11
2022-11-26 23:36:35 GMT 49.021614 2.531246 0 87 11
2022-11-26 23:36:34 GMT 49.021603 2.531066 0 87 9
2022-11-26 23:36:32 GMT 49.021603 2.531030 0 87 9
2022-11-26 23:36:31 GMT 49.021591 2.530958 0 84 9
2022-11-26 23:36:29 GMT 49.021591 2.530834 0 81 9
2022-11-26 23:36:28 GMT 49.021591 2.530777 0 75 9
2022-11-26 23:36:26 GMT 49.021580 2.530650 0 64 9
2022-11-26 23:36:24 GMT 49.021523 2.530482 0 50 9
2022-11-26 23:36:22 GMT 49.021500 2.530430 0 47 9
2022-11-26 23:36:20 GMT 49.021461 2.530343 0 39 9
2022-11-26 23:36:18 GMT 49.021420 2.530289 0 30 10
2022-11-26 23:36:17 GMT 49.021374 2.530236 0 22 10
2022-11-26 23:36:16 GMT 49.021328 2.530201 0 14 10
2022-11-26 23:36:15 GMT 49.021263 2.530162 0 5 11
2022-11-26 23:36:13 GMT 49.021183 2.530144 0 0 13
2022-11-26 23:36:11 GMT 49.021065 2.530144 0 357 14
2022-11-26 23:36:08 GMT 49.020870 2.530165 0 354 15
2022-11-26 23:36:07 GMT 49.020802 2.530183 0 354 14
2022-11-26 23:36:05 GMT 49.020634 2.530198 0 354 14
2022-11-26 23:36:03 GMT 49.020573 2.530201 0 354 14
2022-11-26 23:36:01 GMT 49.020412 2.530218 0 354 14
2022-11-26 23:36:00 GMT 49.020355 2.530234 0 354 13
2022-11-26 23:35:59 GMT 49.020309 2.530236 0 354 13
2022-11-26 23:35:58 GMT 49.020252 2.530253 0 354 14
2022-11-26 23:35:55 GMT 49.020069 2.530271 0 354 14
2022-11-26 23:35:54 GMT 49.019951 2.530289 0 354 14
2022-11-26 23:35:51 GMT 49.019890 2.530289 0 354 14
2022-11-26 23:35:50 GMT 49.019798 2.530307 0 354 14
2022-11-26 23:35:46 GMT 49.019531 2.530342 0 354 14
2022-11-26 23:35:33 GMT 49.018627 2.530518 0 317 14
2022-11-26 23:35:31 GMT 49.018627 2.530518 0 317 14
2022-11-26 23:34:55 GMT 49.018650 2.535095 0 267 16
2022-11-26 23:34:45 GMT 49.018650 2.535095 0 267 16
2022-11-26 23:34:40 GMT 49.018681 2.535655 0 264 16
2022-11-26 23:34:38 GMT 49.018703 2.535963 0 264 16
2022-11-26 23:34:24 GMT 49.018772 2.537444 0 264 16
2022-11-26 23:33:53 GMT 49.018936 2.540353 0 267 11
2022-11-26 23:33:51 GMT 49.018936 2.540444 0 267 11
2022-11-26 23:33:50 GMT 49.018948 2.540536 0 264 10
2022-11-26 23:33:45 GMT 49.018959 2.540859 0 264 10
2022-11-26 23:33:28 GMT 49.019005 2.541871 0 264 9
2022-11-26 23:33:27 GMT 49.019016 2.541926 0 264 8
2022-11-26 23:33:24 GMT 49.019028 2.542070 0 264 11
2022-11-26 23:33:23 GMT 49.019028 2.542179 0 264 14
2022-11-26 23:33:21 GMT 49.019039 2.542395 0 264 15
2022-11-26 23:33:19 GMT 49.019066 2.542612 0 264 15
2022-11-26 23:33:18 GMT 49.019066 2.542703 0 264 15
2022-11-26 23:33:17 GMT 49.019073 2.542807 0 264 15
2022-11-26 23:33:16 GMT 49.019085 2.543053 0 264 15
2022-11-26 23:33:12 GMT 49.019108 2.543564 0 267 15
2022-11-26 23:33:10 GMT 49.019108 2.543564 0 264 16
2022-11-26 23:33:09 GMT 49.019112 2.543769 0 264 16
2022-11-26 23:33:07 GMT 49.019119 2.543881 0 264 17
2022-11-26 23:33:06 GMT 49.019135 2.544004 0 264 18
2022-11-26 23:33:03 GMT 49.019146 2.544293 0 264 17
2022-11-26 23:33:00 GMT 49.019154 2.544638 0 264 17
2022-11-26 23:32:58 GMT 49.019176 2.544937 0 264 17
2022-11-26 23:32:57 GMT 49.019176 2.545060 0 264 16
2022-11-26 23:32:55 GMT 49.019199 2.545254 0 264 16
2022-11-26 23:32:53 GMT 49.019211 2.545448 0 264 16
2022-11-26 23:32:52 GMT 49.019211 2.545571 0 264 17
2022-11-26 23:32:50 GMT 49.019226 2.545829 0 264 18
2022-11-26 23:32:49 GMT 49.019234 2.545958 0 264 18
2022-11-26 23:32:48 GMT 49.019234 2.546082 0 264 18
2022-11-26 23:32:45 GMT 49.019257 2.546451 0 264 16
2022-11-26 23:32:42 GMT 49.019279 2.546733 0 264 16
2022-11-26 23:32:41 GMT 49.019283 2.546859 0 264 15
2022-11-26 23:32:40 GMT 49.019291 2.547050 0 264 14
2022-11-26 23:32:37 GMT 49.019321 2.547383 0 267 13
2022-11-26 23:32:34 GMT 49.019321 2.547491 0 267 13
2022-11-26 23:32:33 GMT 49.019321 2.547636 0 272 12
2022-11-26 23:32:31 GMT 49.019325 2.547754 0 278 12
2022-11-26 23:32:30 GMT 49.019310 2.547870 0 284 11
2022-11-26 23:32:29 GMT 49.019310 2.547943 0 292 11
2022-11-26 23:32:28 GMT 49.019291 2.548001 0 300 10
2022-11-26 23:32:27 GMT 49.019276 2.548069 0 306 10
2022-11-26 23:32:25 GMT 49.019226 2.548196 0 317 10
2022-11-26 23:32:24 GMT 49.019199 2.548230 0 320 10
2022-11-26 23:32:21 GMT 49.019089 2.548376 0 334 9
2022-11-26 23:32:20 GMT 49.019062 2.548406 0 340 9
2022-11-26 23:32:18 GMT 49.019016 2.548423 0 345 10
2022-11-26 23:32:16 GMT 49.018913 2.548485 0 354 11
2022-11-26 23:32:15 GMT 49.018867 2.548485 0 357 11
2022-11-26 23:32:12 GMT 49.018730 2.548511 0 357 13
2022-11-26 23:32:11 GMT 49.018635 2.548521 0 357 13
2022-11-26 23:32:10 GMT 49.018574 2.548521 0 357 13
2022-11-26 23:32:08 GMT 49.018456 2.548546 0 357 13
2022-11-26 23:32:07 GMT 49.018379 2.548557 0 357 13
2022-11-26 23:32:05 GMT 49.018204 2.548575 0 357 13
2022-11-26 23:32:04 GMT 49.018204 2.548575 0 357 13
2022-11-26 23:32:01 GMT 49.018021 2.548599 0 357 13
2022-11-26 23:30:53 GMT 49.014324 2.549075 0 351 9
2022-11-26 23:30:52 GMT 49.014278 2.549092 0 351 9
2022-11-26 23:30:50 GMT 49.014210 2.549099 0 348 9
2022-11-26 23:30:49 GMT 49.014164 2.549117 0 348 8
2022-11-26 23:30:48 GMT 49.014130 2.549127 0 348 8
2022-11-26 23:30:46 GMT 49.014061 2.549145 0 348 8
2022-11-26 23:30:44 GMT 49.013981 2.549180 0 348 7
2022-11-26 23:30:40 GMT 49.013866 2.549215 0 345 7
2022-11-26 23:30:37 GMT 49.013779 2.549244 0 345 7
2022-11-26 23:30:35 GMT 49.013710 2.549280 0 345 7
2022-11-26 23:30:34 GMT 49.013695 2.549286 0 345 7
2022-11-26 23:30:26 GMT 49.013466 2.549388 0 343 7
2022-11-26 23:30:24 GMT 49.013432 2.549406 0 343 6
2022-11-26 23:30:22 GMT 49.013363 2.549424 0 340 6
2022-11-26 23:30:14 GMT 49.013142 2.549569 0 295 6
2022-11-26 23:30:05 GMT 49.013100 2.549832 0 253 7
2022-11-26 23:30:03 GMT 49.013103 2.549858 0 253 8
2022-11-26 23:30:02 GMT 49.013119 2.549930 0 253 8
2022-11-26 23:30:01 GMT 49.013134 2.550025 0 253 8
2022-11-26 23:29:58 GMT 49.013180 2.550201 0 253 8
2022-11-26 23:29:55 GMT 49.013199 2.550310 0 253 7
2022-11-26 23:29:51 GMT 49.013222 2.550418 0 253 6
2022-11-26 23:29:47 GMT 49.013245 2.550563 0 253 5
2022-11-26 23:29:45 GMT 49.013256 2.550617 0 253 4
2022-11-26 23:29:44 GMT 49.013260 2.550642 0 253 0
2022-11-26 23:29:34 GMT 49.013283 2.550765 0 253 0
2022-11-26 23:29:19 GMT 49.013290 2.550762 0 253 0
2022-11-26 23:29:14 GMT 49.013279 2.550762 0 253 0
2022-11-26 23:29:09 GMT 49.013290 2.550762 0 253 0
2022-11-26 23:29:04 GMT 49.013283 2.550765 0 253 0
2022-11-26 23:28:44 GMT 49.013290 2.550762 0 253 0
2022-11-26 23:28:34 GMT 49.013283 2.550765 0 253 0
2022-11-26 23:27:49 GMT 49.013290 2.550762 0 253 0
2022-11-26 23:27:39 GMT 49.013290 2.550762 0 253 0
2022-11-26 23:27:34 GMT 49.013290 2.550762 0 253 0
2022-11-26 23:27:24 GMT 49.013283 2.550765 0 253 0
2022-11-26 23:27:04 GMT 49.013290 2.550762 0 253 0
2022-11-26 23:27:00 GMT 49.013279 2.550762 0 253 0
2022-11-26 23:26:55 GMT 49.013283 2.550765 0 253 0
2022-11-26 23:26:50 GMT 49.013279 2.550762 0 253 0
2022-11-26 23:26:44 GMT 49.013290 2.550762 0 253 0
2022-11-26 23:26:39 GMT 49.013279 2.550762 0 253 0
2022-11-26 23:26:34 GMT 49.013290 2.550762 0 253 0
2022-11-26 23:26:24 GMT 49.013283 2.550765 0 253 0
2022-11-26 23:26:14 GMT 49.013290 2.550762 0 253 0
2022-11-26 23:26:04 GMT 49.013283 2.550765 0 253 0
2022-11-26 23:25:59 GMT 49.013279 2.550762 0 253 0
2022-11-26 23:25:45 GMT 49.013283 2.550765 0 253 0
2022-11-26 23:25:29 GMT 49.013279 2.550762 0 253 0
2022-11-26 23:25:19 GMT 49.013283 2.550765 0 253 0
2022-11-26 23:24:40 GMT 49.013279 2.550762 0 253 0
2022-11-26 23:24:14 GMT 49.013283 2.550765 0 253 0
2022-11-26 23:24:04 GMT 49.013279 2.550762 0 253 0
2022-11-26 23:23:59 GMT 49.013283 2.550765 0 253 0
2022-11-26 23:23:49 GMT 49.013283 2.550765 0 253 0
2022-11-26 23:23:44 GMT 49.013283 2.550765 0 253 0
2022-11-26 23:23:15 GMT 49.013279 2.550762 0 253 0
2022-11-26 23:23:06 GMT 49.013283 2.550765 0 253 0
2022-11-26 23:22:55 GMT 49.013279 2.550762 0 253 0
We lost coverage of the aircraft here for a total of 88 minutes
2022-11-26 21:54:45 GMT 49.013283 2.550765 0 253 0
2022-11-26 21:54:44 GMT 49.013290 2.550762 0 253 0
2022-11-26 21:54:40 GMT 49.013290 2.550762 0 253 0
2022-11-26 21:54:39 GMT 49.013283 2.550765 0 253 0
2022-11-26 21:54:37 GMT 49.013283 2.550765 0 253 0
2022-11-26 21:54:32 GMT 49.013290 2.550762 0 253 0
2022-11-26 21:54:30 GMT 49.013283 2.550765 0 253 0
2022-11-26 21:54:25 GMT 49.013290 2.550762 0 253 0
2022-11-26 21:54:20 GMT 49.013283 2.550765 0 253 0
2022-11-26 21:54:19 GMT 49.013290 2.550762 0 253 0
2022-11-26 21:54:18 GMT 49.013294 2.550765 0 253 3
2022-11-26 21:54:17 GMT 49.013290 2.550816 0 253 4
2022-11-26 21:54:15 GMT 49.013302 2.550834 0 255 5
2022-11-26 21:54:11 GMT 49.013329 2.550996 0 253 7
2022-11-26 21:54:09 GMT 49.013340 2.551082 0 253 7
2022-11-26 21:54:04 GMT 49.013397 2.551340 0 253 8
2022-11-26 21:54:01 GMT 49.013420 2.551502 0 255 8
2022-11-26 21:53:57 GMT 49.013454 2.551665 0 267 9
2022-11-26 21:53:54 GMT 49.013466 2.551846 0 286 11
2022-11-26 21:53:53 GMT 49.013409 2.552138 0 326 11
2022-11-26 21:53:51 GMT 49.013409 2.552138 0 334 11
2022-11-26 21:53:48 GMT 49.013271 2.552226 0 2 13
2022-11-26 21:53:47 GMT 49.013222 2.552225 0 8 14
2022-11-26 21:53:46 GMT 49.013145 2.552226 0 14 17
2022-11-26 21:53:44 GMT 49.012974 2.552138 0 22 20
2022-11-26 21:53:42 GMT 49.012882 2.552099 0 22 21
2022-11-26 21:53:40 GMT 49.012722 2.551980 0 25 22
2022-11-26 21:53:39 GMT 49.012615 2.551918 0 25 22
2022-11-26 21:53:38 GMT 49.012478 2.551828 0 22 22
2022-11-26 21:53:35 GMT 49.012230 2.551680 0 14 23
2022-11-26 21:53:34 GMT 49.012047 2.551611 0 5 23
2022-11-26 21:53:31 GMT 49.011726 2.551610 0 354 23
2022-11-26 21:53:28 GMT 49.011349 2.551733 0 343 24
2022-11-26 21:53:27 GMT 49.011349 2.551733 0 343 24
2022-11-26 21:53:24 GMT 49.011028 2.551874 0 345 27
2022-11-26 21:53:20 GMT 49.010498 2.552099 0 345 27
2022-11-26 21:53:18 GMT 49.010277 2.552189 0 345 27
2022-11-26 21:52:58 GMT 49.008148 2.553111 0 345 20
2022-11-26 21:52:55 GMT 49.007835 2.553247 0 345 19
2022-11-26 21:52:54 GMT 49.007786 2.553273 0 343 19
2022-11-26 21:52:52 GMT 49.007610 2.553346 0 334 18
2022-11-26 21:52:45 GMT 49.007298 2.553828 0 281 18
2022-11-26 21:52:42 GMT 49.007263 2.554285 0 264 22
2022-11-26 21:52:40 GMT 49.007275 2.554556 0 264 25
2022-11-26 21:52:37 GMT 49.007309 2.555080 0 264 28
2022-11-26 21:52:32 GMT 49.007366 2.556056 0 264 31
2022-11-26 21:52:31 GMT 49.007393 2.556363 0 261 31
2022-11-26 21:52:30 GMT 49.007412 2.556593 0 261 31
2022-11-26 21:52:21 GMT 49.007584 2.558529 0 261 30
2022-11-26 21:52:18 GMT 49.007660 2.559146 0 258 30
2022-11-26 21:52:17 GMT 49.007675 2.559321 0 261 30
2022-11-26 21:52:16 GMT 49.007687 2.559533 0 261 30
2022-11-26 21:52:14 GMT 49.007774 2.560338 0 261 29
2022-11-26 21:52:12 GMT 49.007774 2.560338 0 261 29
2022-11-26 21:52:11 GMT 49.007790 2.560572 0 261 29
2022-11-26 21:52:08 GMT 49.007847 2.561115 0 261 29
2022-11-26 21:52:06 GMT 49.007904 2.561751 0 261 28
2022-11-26 21:52:03 GMT 49.007938 2.562156 0 261 28
2022-11-26 21:52:01 GMT 49.007973 2.562507 0 261 28
2022-11-26 21:51:57 GMT 49.008057 2.563320 0 261 29
2022-11-26 21:51:50 GMT 49.008179 2.564744 0 261 30
2022-11-26 21:51:48 GMT 49.008217 2.565199 0 264 30
2022-11-26 21:51:44 GMT 49.008263 2.565994 0 264 31
2022-11-26 21:51:38 GMT 49.008339 2.567280 0 264 31
2022-11-26 21:51:37 GMT 49.008465 2.569551 0 264 29
2022-11-26 21:51:26 GMT 49.008465 2.569551 0 264 29
2022-11-26 21:51:20 GMT 49.008533 2.570818 0 264 27
2022-11-26 21:51:17 GMT 49.008556 2.571361 0 264 26
2022-11-26 21:51:12 GMT 49.008602 2.572319 0 264 25
2022-11-26 21:51:10 GMT 49.008625 2.572649 0 264 25
2022-11-26 21:51:09 GMT 49.008636 2.572807 0 264 25
2022-11-26 21:51:05 GMT 49.008671 2.573389 0 264 25
2022-11-26 21:51:03 GMT 49.008682 2.573741 0 264 25
2022-11-26 21:51:02 GMT 49.008694 2.573988 0 264 25
2022-11-26 21:51:00 GMT 49.008717 2.574340 0 264 25
2022-11-26 21:50:58 GMT 49.008739 2.574885 0 264 25
2022-11-26 21:50:57 GMT 49.008739 2.574885 0 264 25
2022-11-26 21:50:53 GMT 49.008778 2.575481 0 264 24
2022-11-26 21:50:52 GMT 49.008808 2.576118 0 264 24
2022-11-26 21:50:50 GMT 49.008808 2.576118 0 264 24
2022-11-26 21:50:48 GMT 49.008823 2.576366 0 264 24
We lost coverage of the aircraft here for a total of 5 minutes
2022-11-26 21:45:35 GMT 48.996986 2.576782 0 87 50 0
2022-11-26 21:45:12 GMT 48.996231 2.563195 -100 85 139 -128
2022-11-26 21:45:11 GMT 48.996185 2.562344 -100 85 139 -128
2022-11-26 21:45:10 GMT 48.996140 2.561364 -75 85 141 -64
2022-11-26 21:45:09 GMT 48.996094 2.560378 -75 84 142 -64
2022-11-26 21:45:07 GMT 48.995956 2.558265 -75 84 144 -256
2022-11-26 21:45:06 GMT 48.995903 2.557357 -50 84 144 -320
2022-11-26 21:45:05 GMT 48.995811 2.555189 -25 85 144 -576
2022-11-26 21:45:03 GMT 48.995728 2.553687 -25 85 144 -576
2022-11-26 21:45:02 GMT 48.995625 2.552442 0 86 144 -576
2022-11-26 21:45:01 GMT 48.995590 2.551575 25 86 144 -640
2022-11-26 21:45:00 GMT 48.995544 2.550518 25 86 144 -704
2022-11-26 21:44:58 GMT 48.995483 2.548539 50 86 144 -832
2022-11-26 21:44:57 GMT 48.995438 2.547527 75 85 144 -768
2022-11-26 21:44:55 GMT 48.995361 2.545800 100 85 144 -768
2022-11-26 21:44:54 GMT 48.995300 2.544781 100 86 144 -832
2022-11-26 21:44:53 GMT 48.995255 2.543769 125 86 144 -832
2022-11-26 21:44:52 GMT 48.995205 2.542757 125 86 145 -832
2022-11-26 21:44:50 GMT 48.995113 2.540588 150 85 145 -768
2022-11-26 21:44:49 GMT 48.995068 2.539504 175 85 145 -832
2022-11-26 21:44:48 GMT 48.994926 2.537480 200 85 145 -896
2022-11-26 21:44:46 GMT 48.994881 2.536324 225 85 145 -896
2022-11-26 21:44:45 GMT 48.994835 2.535312 225 84 146 -832
2022-11-26 21:44:43 GMT 48.994740 2.533361 250 84 146 -704
2022-11-26 21:44:42 GMT 48.994675 2.532489 275 84 146 -704
2022-11-26 21:44:41 GMT 48.994583 2.531433 275 84 147 -640
2022-11-26 21:44:39 GMT 48.994507 2.529385 300 84 147 -576
2022-11-26 21:44:37 GMT 48.994415 2.527723 325 84 148 -512
2022-11-26 21:44:36 GMT 48.994354 2.526644 325 84 148 -576
2022-11-26 21:44:35 GMT 48.994228 2.524687 375 85 148 -960
2022-11-26 21:44:32 GMT 48.994080 2.522419 375 85 148 -960
2022-11-26 21:44:30 GMT 48.993904 2.519049 425 85 149 -960
2022-11-26 21:44:27 GMT 48.993805 2.517066 450 85 149 -896
2022-11-26 21:44:26 GMT 48.993671 2.514351 475 85 150 -832
2022-11-26 21:44:24 GMT 48.993671 2.514351 500 85 150 -768
2022-11-26 21:44:22 GMT 48.993530 2.512277 525 85 151 -832
2022-11-26 21:44:21 GMT 48.993484 2.511316 550 85 151 -896
2022-11-26 21:44:20 GMT 48.993347 2.508967 575 85 152 -896
2022-11-26 21:44:18 GMT 48.993301 2.508122 600 85 153 -832
2022-11-26 21:44:17 GMT 48.993252 2.506834 600 85 153 -896
2022-11-26 21:44:16 GMT 48.993156 2.504449 625 85 154 -960
2022-11-26 21:44:14 GMT 48.993065 2.503220 675 85 154 -896
2022-11-26 21:44:12 GMT 48.992973 2.501052 675 84 155 -896
2022-11-26 21:44:11 GMT 48.992889 2.500094 700 84 156 -960
2022-11-26 21:44:10 GMT 48.992832 2.498811 700 84 156 -960
2022-11-26 21:44:09 GMT 48.992706 2.496713 725 84 158 -896
2022-11-26 21:44:07 GMT 48.992599 2.495559 775 84 158 -832
2022-11-26 21:44:06 GMT 48.992458 2.493318 775 84 160 -1024
2022-11-26 21:44:04 GMT 48.992413 2.492090 800 84 161 -1024
2022-11-26 21:44:02 GMT 48.992271 2.489849 825 85 162 -832
2022-11-26 21:44:01 GMT 48.992203 2.488685 850 85 163 -832
2022-11-26 21:44:00 GMT 48.992134 2.487681 850 86 164 -768
2022-11-26 21:43:58 GMT 48.992043 2.485440 900 87 167 -768
2022-11-26 21:43:56 GMT 48.991947 2.481971 950 86 168 -832
2022-11-26 21:43:53 GMT 48.991837 2.478403 950 86 169 -832
2022-11-26 21:43:51 GMT 48.991791 2.477135 975 85 169 -832
2022-11-26 21:43:49 GMT 48.991669 2.474887 1,000 84 170 -832
2022-11-26 21:43:48 GMT 48.991562 2.473473 1,025 83 171 -960
2022-11-26 21:43:46 GMT 48.991436 2.471201 1,050 84 172 -1024
2022-11-26 21:43:44 GMT 48.991241 2.468755 1,075 83 174 -1024
2022-11-26 21:43:43 GMT 48.991150 2.467557 1,100 83 174 -1024
2022-11-26 21:43:42 GMT 48.991112 2.466431 1,100 83 175 -1024
2022-11-26 21:43:41 GMT 48.990971 2.465130 1,125 83 176 -960
2022-11-26 21:43:38 GMT 48.990692 2.460576 1,200 84 178 -1024
2022-11-26 21:43:36 GMT 48.990555 2.458543 1,225 85 179 -1024
2022-11-26 21:43:35 GMT 48.990463 2.457275 1,275 85 181 -1024
2022-11-26 21:43:33 GMT 48.990318 2.454288 1,275 85 181 -1024
2022-11-26 21:43:31 GMT 48.990234 2.452134 1,300 85 181 -1024
2022-11-26 21:43:30 GMT 48.990143 2.450726 1,325 85 183 -960
2022-11-26 21:43:29 GMT 48.990086 2.449590 1,325 85 183 -960
2022-11-26 21:43:26 GMT 48.989899 2.445831 1,375 85 185 -960
2022-11-26 21:43:25 GMT 48.989807 2.443735 1,425 85 186 -1152
2022-11-26 21:43:22 GMT 48.989685 2.441148 1,450 85 185 -1280
2022-11-26 21:43:21 GMT 48.989574 2.439399 1,475 85 185 -1280
2022-11-26 21:43:19 GMT 48.989273 2.434106 1,550 85 184 -1088
2022-11-26 21:43:17 GMT 48.989273 2.434106 1,575 85 184 -960
2022-11-26 21:43:15 GMT 48.989155 2.431882 1,600 85 183 -768
2022-11-26 21:43:14 GMT 48.989059 2.430653 1,600 85 182 -640
2022-11-26 21:43:13 GMT 48.988907 2.427556 1,625 85 182 -64
2022-11-26 21:43:10 GMT 48.988770 2.424880 1,625 85 182 -64
2022-11-26 21:43:08 GMT 48.988644 2.422919 1,625 85 182 0
2022-11-26 21:43:07 GMT 48.988495 2.419880 1,625 85 182 0
2022-11-26 21:43:05 GMT 48.988403 2.418471 1,625 85 182 0
2022-11-26 21:43:04 GMT 48.988358 2.417203 1,625 85 182 0
2022-11-26 21:43:03 GMT 48.988266 2.415936 1,625 84 182 64
2022-11-26 21:43:01 GMT 48.988129 2.413378 1,625 84 182 0
2022-11-26 21:43:00 GMT 48.988083 2.412366 1,625 84 182 0
2022-11-26 21:42:59 GMT 48.987991 2.410936 1,625 84 182 0
2022-11-26 21:42:57 GMT 48.987854 2.408259 1,625 85 182 0
2022-11-26 21:42:56 GMT 48.987804 2.407090 1,625 85 182 0
2022-11-26 21:42:54 GMT 48.987572 2.403404 1,625 85 182 0
2022-11-26 21:42:51 GMT 48.987442 2.400583 1,625 85 182 64
2022-11-26 21:42:50 GMT 48.987305 2.397977 1,625 85 182 64
2022-11-26 21:42:48 GMT 48.987213 2.396569 1,625 85 182 64
2022-11-26 21:42:47 GMT 48.987167 2.395301 1,625 85 182 64
2022-11-26 21:42:46 GMT 48.987030 2.392907 1,625 85 182 64
2022-11-26 21:42:44 GMT 48.986965 2.391478 1,625 85 182 128
2022-11-26 21:42:42 GMT 48.986828 2.389310 1,600 85 182 128
2022-11-26 21:42:40 GMT 48.986664 2.386357 1,600 85 182 128
2022-11-26 21:42:39 GMT 48.986481 2.383188 1,600 85 182 64
2022-11-26 21:42:37 GMT 48.986454 2.382009 1,600 84 182 64
2022-11-26 21:42:35 GMT 48.986389 2.380864 1,600 84 182 0
2022-11-26 21:42:33 GMT 48.986221 2.377817 1,600 84 182 0
2022-11-26 21:42:32 GMT 48.986115 2.376568 1,600 85 182 64
2022-11-26 21:42:30 GMT 48.985989 2.374348 1,600 85 182 64
2022-11-26 21:42:29 GMT 48.985943 2.373119 1,600 85 183 64
2022-11-26 21:42:28 GMT 48.985794 2.370019 1,600 85 183 64
2022-11-26 21:42:25 GMT 48.985664 2.367915 1,600 85 185 64
2022-11-26 21:42:23 GMT 48.985523 2.365313 1,600 85 187 0
2022-11-26 21:42:21 GMT 48.985336 2.361916 1,600 85 187 0
2022-11-26 21:42:20 GMT 48.985291 2.360793 1,600 85 188 -64
2022-11-26 21:42:18 GMT 48.985195 2.359025 1,600 85 189 0
2022-11-26 21:42:17 GMT 48.985058 2.357073 1,600 84 192 0
2022-11-26 21:42:15 GMT 48.984825 2.352592 1,600 84 195 0
2022-11-26 21:42:12 GMT 48.984734 2.351219 1,600 84 196 -64
2022-11-26 21:42:11 GMT 48.984451 2.347243 1,600 84 201 -128
2022-11-26 21:42:09 GMT 48.984360 2.345798 1,600 84 202 -128
2022-11-26 21:42:08 GMT 48.984264 2.344569 1,600 84 202 -192
2022-11-26 21:42:07 GMT 48.984192 2.343257 1,600 84 203 -320
2022-11-26 21:42:05 GMT 48.984009 2.340299 1,625 84 205 -512
2022-11-26 21:42:04 GMT 48.983780 2.337060 1,650 85 207 -576
2022-11-26 21:42:02 GMT 48.983734 2.336074 1,650 85 207 -768
2022-11-26 21:42:00 GMT 48.983566 2.332715 1,675 85 208 -896
2022-11-26 21:41:59 GMT 48.983475 2.331125 1,700 86 208 -1152
2022-11-26 21:41:58 GMT 48.983414 2.329806 1,725 86 209 -1152
2022-11-26 21:41:56 GMT 48.983322 2.327271 1,750 87 209 -1152
2022-11-26 21:41:54 GMT 48.983288 2.325126 1,800 88 209 -1088
2022-11-26 21:41:53 GMT 48.983242 2.323608 1,800 89 209 -1024
2022-11-26 21:41:51 GMT 48.983242 2.319633 1,850 90 210 -960
2022-11-26 21:41:50 GMT 48.983242 2.318188 1,875 90 211 -896
2022-11-26 21:41:48 GMT 48.983231 2.315791 1,900 89 211 -896
2022-11-26 21:41:47 GMT 48.983242 2.313851 1,925 89 212 -896
2022-11-26 21:41:46 GMT 48.983242 2.310743 1,950 87 213 -832
2022-11-26 21:41:43 GMT 48.983105 2.306984 1,975 84 215 -768
2022-11-26 21:41:41 GMT 48.983002 2.304734 2,000 83 217 -768
2022-11-26 21:41:40 GMT 48.982773 2.301847 2,000 81 219 -640
2022-11-26 21:41:38 GMT 48.982681 2.300650 2,025 78 221 -512
2022-11-26 21:41:37 GMT 48.982452 2.298960 2,025 76 222 -448
2022-11-26 21:41:35 GMT 48.982033 2.296070 2,050 73 226 -512
2022-11-26 21:41:34 GMT 48.981720 2.294382 2,050 71 228 -512
2022-11-26 21:41:33 GMT 48.981335 2.292529 2,075 71 228 -512
2022-11-26 21:41:31 GMT 48.980530 2.289382 2,075 66 231 -640
2022-11-26 21:41:30 GMT 48.980347 2.288818 2,100 63 233 -768
2022-11-26 21:41:28 GMT 48.979431 2.285649 2,125 61 234 -896
2022-11-26 21:41:26 GMT 48.978378 2.282621 2,150 60 236 -896
2022-11-26 21:41:25 GMT 48.976398 2.277712 2,200 56 239 -960
2022-11-26 21:41:23 GMT 48.976398 2.277712 2,200 56 239 -960
2022-11-26 21:41:21 GMT 48.975266 2.275085 2,225 56 243 -896
2022-11-26 21:41:20 GMT 48.974579 2.273466 2,225 56 243 -896
2022-11-26 21:41:19 GMT 48.972794 2.269381 2,250 56 243 -896
2022-11-26 21:41:17 GMT 48.972794 2.269381 2,275 56 244 -896
2022-11-26 21:41:16 GMT 48.972153 2.267902 2,300 56 245 -1024
2022-11-26 21:41:14 GMT 48.970860 2.265063 2,325 55 246 -1088
2022-11-26 21:41:12 GMT 48.969975 2.263039 2,350 55 247 -1152
2022-11-26 21:41:11 GMT 48.968903 2.260789 2,400 53 248 -1280
2022-11-26 21:41:09 GMT 48.968021 2.258919 2,425 52 249 -1280
2022-11-26 21:41:08 GMT 48.966995 2.256895 2,450 50 249 -1280
2022-11-26 21:41:07 GMT 48.966202 2.255366 2,475 48 250 -1280
2022-11-26 21:41:06 GMT 48.965424 2.254028 2,500 48 250 -1280
2022-11-26 21:41:03 GMT 48.962620 2.249740 2,575 38 255 -1216
2022-11-26 21:41:01 GMT 48.961643 2.248439 2,575 38 255 -1216
2022-11-26 21:41:00 GMT 48.960712 2.247355 2,600 36 255 -1216
2022-11-26 21:40:58 GMT 48.958786 2.245225 2,675 30 258 -1216
2022-11-26 21:40:56 GMT 48.956474 2.243018 2,725 26 259 -1216
2022-11-26 21:40:55 GMT 48.952789 2.240366 2,750 22 260 -1216
2022-11-26 21:40:53 GMT 48.952789 2.240366 2,775 20 261 -1216
2022-11-26 21:40:52 GMT 48.951187 2.239450 2,825 15 262 -1216
2022-11-26 21:40:49 GMT 48.949352 2.238537 2,825 15 262 -1216
2022-11-26 21:40:47 GMT 48.945721 2.237163 2,875 9 263 -1152
2022-11-26 21:40:45 GMT 48.944595 2.236915 2,950 6 264 -1152
2022-11-26 21:40:43 GMT 48.942078 2.236352 2,950 5 265 -1152
2022-11-26 21:40:42 GMT 48.938877 2.235935 2,975 3 265 -1216
2022-11-26 21:40:40 GMT 48.937546 2.235788 3,050 3 266 -1280
2022-11-26 21:40:38 GMT 48.935574 2.235645 3,075 3 267 -1280
2022-11-26 21:40:36 GMT 48.932640 2.235429 3,100 2 268 -1280
2022-11-26 21:40:35 GMT 48.930130 2.235225 3,125 2 268 -1280
2022-11-26 21:40:33 GMT 48.928894 2.235084 3,175 3 269 -1280
2022-11-26 21:40:31 GMT 48.926403 2.234923 3,200 3 269 -1280
2022-11-26 21:40:30 GMT 48.925049 2.234802 3,250 3 270 -1216
2022-11-26 21:40:29 GMT 48.922440 2.234591 3,275 3 271 -1152
2022-11-26 21:40:26 GMT 48.919930 2.234344 3,300 3 271 -1152
2022-11-26 21:40:25 GMT 48.918674 2.234200 3,325 3 272 -1152
2022-11-26 21:40:24 GMT 48.918045 2.234168 3,350 3 272 -1152
2022-11-26 21:40:23 GMT 48.914108 2.233816 3,375 3 273 -1152
2022-11-26 21:40:21 GMT 48.914108 2.233816 3,400 3 273 -1152
2022-11-26 21:40:20 GMT 48.912506 2.233675 3,425 3 274 -1152
2022-11-26 21:40:19 GMT 48.909805 2.233394 3,475 3 275 -1152
2022-11-26 21:40:17 GMT 48.908665 2.233260 3,500 3 275 -1152
2022-11-26 21:40:16 GMT 48.904987 2.232899 3,525 3 276 -1152
2022-11-26 21:40:14 GMT 48.904987 2.232899 3,550 4 277 -1152
2022-11-26 21:40:12 GMT 48.902287 2.232610 3,575 4 278 -1152
2022-11-26 21:40:10 GMT 48.899872 2.232337 3,625 4 278 -1152
2022-11-26 21:40:09 GMT 48.896118 2.231844 3,675 5 280 -1088
2022-11-26 21:40:07 GMT 48.896118 2.231844 3,675 5 281 -1024
2022-11-26 21:40:06 GMT 48.893257 2.231381 3,725 7 283 -960
2022-11-26 21:40:04 GMT 48.891953 2.231164 3,725 7 283 -832
2022-11-26 21:40:03 GMT 48.890652 2.230947 3,750 8 285 -768
2022-11-26 21:40:01 GMT 48.887951 2.230225 3,775 11 287 -768
2022-11-26 21:39:58 GMT 48.884033 2.228887 3,800 16 290 -704
2022-11-26 21:39:56 GMT 48.881561 2.227830 3,825 17 291 -704
2022-11-26 21:39:55 GMT 48.880554 2.227267 3,825 20 294 -704
2022-11-26 21:39:54 GMT 48.877853 2.225717 3,850 22 295 -704
2022-11-26 21:39:52 GMT 48.876732 2.225021 3,875 25 297 -704
2022-11-26 21:39:50 GMT 48.873890 2.222924 3,900 28 300 -704
2022-11-26 21:39:49 GMT 48.872772 2.221985 3,900 30 301 -704
2022-11-26 21:39:47 GMT 48.870399 2.219889 3,925 33 303 -704
2022-11-26 21:39:46 GMT 48.868305 2.217720 3,950 36 305 -704
2022-11-26 21:39:44 GMT 48.866581 2.215841 3,975 39 307 -704
2022-11-26 21:39:43 GMT 48.864674 2.213601 3,975 41 309 -704
2022-11-26 21:39:41 GMT 48.863602 2.212155 4,000 42 309 -768
2022-11-26 21:39:40 GMT 48.862427 2.210576 4,025 44 310 -768
2022-11-26 21:39:38 GMT 48.860275 2.207336 4,050 47 312 -768
2022-11-26 21:39:36 GMT 48.856750 2.201209 4,075 51 315 -704
2022-11-26 21:39:34 GMT 48.856750 2.201209 4,075 51 315 -704
2022-11-26 21:39:33 GMT 48.855873 2.199506 4,100 56 318 -704
2022-11-26 21:39:31 GMT 48.854340 2.196254 4,125 57 320 -640
2022-11-26 21:39:30 GMT 48.852585 2.192054 4,150 60 321 -576
2022-11-26 21:39:28 GMT 48.851990 2.190505 4,150 61 323 -576
2022-11-26 21:39:25 GMT 48.849777 2.184111 4,175 66 325 -512
2022-11-26 21:39:23 GMT 48.848518 2.179702 4,200 69 327 -512
2022-11-26 21:39:21 GMT 48.847450 2.175365 4,200 70 328 -512
2022-11-26 21:39:20 GMT 48.846954 2.172969 4,225 73 330 -640
2022-11-26 21:39:19 GMT 48.846451 2.170504 4,225 75 331 -704
2022-11-26 21:39:17 GMT 48.845772 2.166258 4,250 78 332 -960
2022-11-26 21:39:15 GMT 48.844940 2.159306 4,325 81 333 -1344
2022-11-26 21:39:14 GMT 48.844940 2.159306 4,325 83 334 -1536
2022-11-26 21:39:11 GMT 48.844574 2.154940 4,375 86 334 -1728
2022-11-26 21:39:10 GMT 48.844482 2.152334 4,400 87 335 -1728
2022-11-26 21:39:09 GMT 48.844330 2.147899 4,475 91 336 -1856
2022-11-26 21:39:07 GMT 48.844345 2.145785 4,500 91 336 -1856
2022-11-26 21:39:06 GMT 48.844482 2.139869 4,600 94 336 -1856
2022-11-26 21:39:04 GMT 48.844608 2.137780 4,600 96 336 -1856
2022-11-26 21:39:03 GMT 48.845078 2.131700 4,675 98 337 -1920
2022-11-26 21:39:00 GMT 48.845493 2.128167 4,700 100 337 -1920
2022-11-26 21:38:58 GMT 48.846176 2.123601 4,775 104 337 -1920
2022-11-26 21:38:57 GMT 48.846588 2.121277 4,850 105 338 -1920
2022-11-26 21:38:54 GMT 48.848007 2.114507 4,925 110 338 -1920
2022-11-26 21:38:52 GMT 48.848969 2.110502 5,025 112 338 -1920
2022-11-26 21:38:50 GMT 48.850571 2.105079 5,050 117 339 -1920
2022-11-26 21:38:48 GMT 48.851990 2.100783 5,250 122 340 -1984
2022-11-26 21:38:46 GMT 48.853638 2.096487 5,250 122 340 -1984
2022-11-26 21:38:44 GMT 48.855148 2.092896 5,250 124 341 -1984
2022-11-26 21:38:43 GMT 48.856064 2.090924 5,300 126 341 -2048
2022-11-26 21:38:42 GMT 48.857071 2.088740 5,350 128 341 -1984
2022-11-26 21:38:39 GMT 48.861145 2.081135 5,425 131 342 -1792
2022-11-26 21:38:37 GMT 48.862335 2.079233 5,500 132 343 -1664
2022-11-26 21:38:34 GMT 48.865814 2.073529 5,575 133 347 -1600
2022-11-26 21:38:32 GMT 48.867794 2.070345 5,625 132 349 -1664
2022-11-26 21:38:31 GMT 48.868912 2.068610 5,700 130 353 -1920
2022-11-26 21:38:29 GMT 48.871078 2.064937 5,700 130 353 -1920
2022-11-26 21:38:27 GMT 48.873138 2.061415 5,800 128 355 -2176
2022-11-26 21:38:25 GMT 48.875053 2.057696 5,900 125 358 -2304
2022-11-26 21:38:23 GMT 48.876984 2.053598 5,950 122 361 -2304
2022-11-26 21:38:22 GMT 48.877800 2.051697 5,975 121 362 -2368
2022-11-26 21:38:21 GMT 48.879730 2.046908 6,025 120 363 -2304
2022-11-26 21:38:19 GMT 48.880642 2.044469 6,100 118 365 -2240
2022-11-26 21:38:17 GMT 48.882797 2.038105 6,200 115 370 -2176
2022-11-26 21:38:15 GMT 48.883713 2.035290 6,200 114 371 -2176
2022-11-26 21:38:14 GMT 48.884552 2.032471 6,250 114 371 -2240
2022-11-26 21:38:12 GMT 48.886089 2.027483 6,325 114 373 -2560
2022-11-26 21:38:11 GMT 48.886505 2.026038 6,375 114 373 -2752
2022-11-26 21:38:10 GMT 48.887970 2.021273 6,500 115 373 -3072
2022-11-26 21:38:08 GMT 48.888702 2.018879 6,575 116 373 -3200
2022-11-26 21:38:06 GMT 48.890305 2.013949 6,575 116 374 -3264
2022-11-26 21:38:04 GMT 48.893417 2.004864 6,850 117 374 -3520
2022-11-26 21:38:02 GMT 48.893417 2.004864 6,850 117 374 -3520
2022-11-26 21:38:01 GMT 48.894516 2.001624 6,925 117 374 -3520
2022-11-26 21:37:59 GMT 48.895889 1.997681 7,025 117 375 -3584
2022-11-26 21:37:58 GMT 48.896713 1.995357 7,075 117 375 -3648
2022-11-26 21:37:57 GMT 48.897675 1.992540 7,200 117 375 -3648
2022-11-26 21:37:53 GMT 48.900375 1.984863 7,400 117 375 -3776
2022-11-26 21:37:50 GMT 48.903305 1.976483 7,550 117 375 -3840
2022-11-26 21:37:48 GMT 48.904266 1.973666 7,675 117 375 -3840
2022-11-26 21:37:47 GMT 48.905174 1.971106 7,775 117 375 -3840
2022-11-26 21:37:46 GMT 48.906849 1.966191 7,875 117 375 -3840
2022-11-26 21:37:44 GMT 48.907688 1.963878 7,975 117 375 -3840
2022-11-26 21:37:41 GMT 48.909828 1.957590 8,175 117 375 -3840
2022-11-26 21:37:40 GMT 48.911636 1.952468 8,250 117 375 -3776
2022-11-26 21:37:38 GMT 48.912415 1.950144 8,325 117 375 -3776
2022-11-26 21:37:37 GMT 48.913239 1.947749 8,450 117 375 -3776
2022-11-26 21:37:36 GMT 48.914108 1.945214 8,500 117 375 -3776
2022-11-26 21:37:35 GMT 48.915527 1.940988 8,600 117 376 -3840
2022-11-26 21:37:33 GMT 48.916348 1.938653 8,650 117 376 -3840
2022-11-26 21:37:31 GMT 48.917999 1.933735 8,775 117 376 -3840
2022-11-26 21:37:30 GMT 48.918720 1.931642 9,000 117 376 -3776
2022-11-26 21:37:28 GMT 48.921844 1.922537 9,050 117 376 -3648
2022-11-26 21:37:25 GMT 48.923447 1.917819 9,175 117 377 -3456
2022-11-26 21:37:23 GMT 48.924408 1.915002 9,275 117 377 -3392
2022-11-26 21:37:20 GMT 48.927193 1.906778 9,425 117 378 -2944
2022-11-26 21:37:18 GMT 48.930313 1.897527 9,625 117 380 -2752
2022-11-26 21:37:16 GMT 48.930313 1.897527 9,625 117 381 -2560
2022-11-26 21:37:14 GMT 48.931870 1.893029 9,675 117 381 -2560
2022-11-26 21:37:13 GMT 48.932739 1.890423 9,775 117 381 -2560
2022-11-26 21:37:12 GMT 48.933563 1.888029 9,800 117 384 -2560
2022-11-26 21:37:11 GMT 48.935944 1.880830 9,900 116 385 -2432
2022-11-26 21:37:09 GMT 48.935944 1.880830 9,925 116 385 -2368
2022-11-26 21:37:08 GMT 48.936951 1.877887 9,950 116 386 -2304
2022-11-26 21:37:07 GMT 48.938553 1.873099 10,025 116 389 -2240
2022-11-26 21:37:04 GMT 48.940182 1.868182 10,100 116 389 -2240
2022-11-26 21:37:03 GMT 48.941017 1.865724 10,150 117 390 -2240
2022-11-26 21:37:01 GMT 48.942741 1.860592 10,225 117 393 -2176
2022-11-26 21:37:00 GMT 48.943634 1.857887 10,275 117 394 -2112
2022-11-26 21:36:59 GMT 48.945164 1.853509 10,325 117 396 -2112
2022-11-26 21:36:57 GMT 48.945923 1.851267 10,350 117 397 -2112
2022-11-26 21:36:56 GMT 48.946564 1.849295 10,400 117 398 -2176
2022-11-26 21:36:53 GMT 48.949219 1.841548 10,500 118 401 -2752
2022-11-26 21:36:52 GMT 48.950180 1.838872 10,550 118 401 -2752
2022-11-26 21:36:49 GMT 48.953064 1.830632 10,725 118 402 -3392
2022-11-26 21:36:47 GMT 48.954483 1.826688 10,850 118 402 -3392
2022-11-26 21:36:46 GMT 48.956177 1.821970 10,900 118 403 -3328
2022-11-26 21:36:44 GMT 48.956985 1.819683 11,000 118 404 -3072
2022-11-26 21:36:43 GMT 48.959106 1.813730 11,050 118 404 -3072
2022-11-26 21:36:41 GMT 48.960022 1.811265 11,150 118 405 -3008
2022-11-26 21:36:40 GMT 48.960896 1.808769 11,200 118 405 -2944
2022-11-26 21:36:38 GMT 48.962524 1.804288 11,275 118 407 -3008
2022-11-26 21:36:37 GMT 48.963364 1.802040 11,325 118 407 -3008
2022-11-26 21:36:36 GMT 48.966110 1.794458 11,425 119 408 -3008
2022-11-26 21:36:34 GMT 48.966110 1.794458 11,500 119 409 -2944
2022-11-26 21:36:32 GMT 48.967461 1.790699 11,525 119 410 -2944
2022-11-26 21:36:29 GMT 48.970348 1.782893 11,675 119 411 -3008
2022-11-26 21:36:27 GMT 48.972748 1.776405 11,850 119 413 -3008
2022-11-26 21:36:25 GMT 48.974167 1.772557 11,925 119 414 -3008
2022-11-26 21:36:23 GMT 48.976227 1.767038 12,125 119 414 -3072
2022-11-26 21:36:21 GMT 48.978012 1.762179 12,125 119 414 -3136
2022-11-26 21:36:20 GMT 48.978867 1.759909 12,175 119 415 -3264
2022-11-26 21:36:19 GMT 48.979797 1.757379 12,275 119 416 -3328
2022-11-26 21:36:17 GMT 48.981903 1.751756 12,325 119 417 -3392
2022-11-26 21:36:16 GMT 48.982681 1.749714 12,425 119 417 -3392
2022-11-26 21:36:15 GMT 48.984695 1.744432 12,525 119 417 -3456
2022-11-26 21:36:13 GMT 48.985569 1.742128 12,575 119 417 -3392
2022-11-26 21:36:11 GMT 48.987488 1.737037 12,675 119 418 -3328
2022-11-26 21:36:10 GMT 48.988449 1.734502 12,750 119 418 -3328
2022-11-26 21:36:09 GMT 48.989410 1.731896 12,800 119 418 -3328
2022-11-26 21:36:08 GMT 48.992386 1.724008 12,875 119 419 -3264
2022-11-26 21:36:06 GMT 48.992386 1.724008 12,975 119 420 -3200
2022-11-26 21:36:05 GMT 48.993343 1.721456 13,025 119 421 -3136
2022-11-26 21:36:04 GMT 48.995300 1.716325 13,125 119 421 -3072
2022-11-26 21:36:02 GMT 48.996136 1.714012 13,175 119 422 -3072
2022-11-26 21:36:00 GMT 48.998558 1.707507 13,300 119 422 -3136
2022-11-26 21:35:58 GMT 49.002045 1.698162 13,450 119 424 -3264
2022-11-26 21:35:56 GMT 49.002045 1.698162 13,475 119 424 -3328
2022-11-26 21:35:54 GMT 49.004059 1.692740 13,600 119 425 -3328
2022-11-26 21:35:53 GMT 49.005020 1.690134 13,650 119 425 -3328
2022-11-26 21:35:50 GMT 49.007729 1.682787 13,825 119 427 -3328
2022-11-26 21:35:49 GMT 49.008705 1.680185 13,875 119 428 -3328
2022-11-26 21:35:48 GMT 49.010754 1.674692 14,050 119 428 -3328
2022-11-26 21:35:45 GMT 49.014816 1.663654 14,200 119 429 -3264
2022-11-26 21:35:43 GMT 49.014816 1.663654 14,225 119 430 -3200
2022-11-26 21:35:42 GMT 49.016052 1.660203 14,275 119 430 -3136
2022-11-26 21:35:40 GMT 49.018021 1.654921 14,400 119 431 -3008
2022-11-26 21:35:39 GMT 49.018993 1.652286 14,425 119 431 -3008
2022-11-26 21:35:37 GMT 49.020996 1.646682 14,550 119 433 -3008
2022-11-26 21:35:36 GMT 49.021507 1.645347 14,575 119 433 -3072
2022-11-26 21:35:35 GMT 49.023468 1.640062 14,700 119 434 -3136
2022-11-26 21:35:32 GMT 49.025604 1.634144 14,775 119 436 -3200
2022-11-26 21:35:30 GMT 49.027679 1.628582 14,925 119 436 -3264
2022-11-26 21:35:29 GMT 49.028732 1.625624 14,975 119 437 -3264
2022-11-26 21:35:28 GMT 49.029739 1.622948 15,025 119 437 -3264
2022-11-26 21:35:27 GMT 49.031799 1.617314 15,125 119 438 -3264
2022-11-26 21:35:24 GMT 49.033768 1.611892 15,225 119 438 -3264
2022-11-26 21:35:22 GMT 49.035828 1.606258 15,350 119 439 -3328
2022-11-26 21:35:21 GMT 49.037933 1.600553 15,475 119 440 -3264
2022-11-26 21:35:19 GMT 49.038895 1.597877 15,525 119 441 -3072
2022-11-26 21:35:18 GMT 49.039902 1.595130 15,575 119 441 -3072
2022-11-26 21:35:15 GMT 49.042191 1.588933 15,675 118 443 -2880
2022-11-26 21:35:14 GMT 49.043297 1.585934 15,750 118 443 -2816
2022-11-26 21:35:13 GMT 49.044273 1.583188 15,800 118 445 -2752
2022-11-26 21:35:11 GMT 49.047272 1.574918 15,925 118 446 -2816
2022-11-26 21:35:09 GMT 49.048370 1.571960 15,975 118 447 -2944
2022-11-26 21:35:08 GMT 49.049252 1.569455 16,075 118 448 -2944
2022-11-26 21:35:07 GMT 49.050743 1.565335 16,100 118 448 -3008
2022-11-26 21:35:05 GMT 49.052746 1.559769 16,200 118 449 -3072
2022-11-26 21:35:04 GMT 49.053768 1.557023 16,250 118 451 -3072
2022-11-26 21:35:02 GMT 49.055786 1.551467 16,350 118 451 -3136
2022-11-26 21:35:01 GMT 49.056381 1.549777 16,400 118 452 -3136
2022-11-26 21:34:59 GMT 49.058487 1.543931 16,500 118 452 -3136
2022-11-26 21:34:57 GMT 49.060520 1.538375 16,600 118 453 -3264
2022-11-26 21:34:55 GMT 49.062836 1.531959 16,725 118 454 -3264
2022-11-26 21:34:53 GMT 49.064709 1.526883 16,825 118 455 -3328
2022-11-26 21:34:51 GMT 49.066105 1.522980 16,900 118 455 -3392
2022-11-26 21:34:50 GMT 49.067734 1.518508 17,000 118 456 -3456
2022-11-26 21:34:49 GMT 49.068851 1.515390 17,050 118 457 -3456
2022-11-26 21:34:47 GMT 49.071899 1.506958 17,225 118 458 -3328
2022-11-26 21:34:44 GMT 49.074051 1.500972 17,350 118 459 -3136
2022-11-26 21:34:43 GMT 49.075058 1.498155 17,400 118 459 -3072
2022-11-26 21:34:41 GMT 49.078766 1.487521 17,500 117 462 -3008
2022-11-26 21:34:39 GMT 49.078766 1.487521 17,575 117 462 -3008
2022-11-26 21:34:37 GMT 49.080597 1.482027 17,675 116 463 -3200
2022-11-26 21:34:35 GMT 49.082584 1.475565 17,800 113 465 -3392
2022-11-26 21:34:34 GMT 49.084213 1.469844 17,925 111 465 -3392
2022-11-26 21:34:32 GMT 49.085052 1.466819 17,975 110 466 -3328
2022-11-26 21:34:30 GMT 49.086353 1.461254 18,175 108 468 -3136
2022-11-26 21:34:28 GMT 49.087799 1.454677 18,175 107 468 -3072
2022-11-26 21:34:27 GMT 49.088470 1.451181 18,225 104 470 -2944
2022-11-26 21:34:25 GMT 49.089615 1.444847 18,325 102 471 -2880
2022-11-26 21:34:23 GMT 49.090591 1.438053 18,425 96 474 -3264
2022-11-26 21:34:22 GMT 49.091011 1.434728 18,475 96 474 -3264
2022-11-26 21:34:20 GMT 49.091721 1.428152 18,575 96 474 -3264
2022-11-26 21:34:18 GMT 49.092178 1.422166 18,675 92 476 -3456
2022-11-26 21:34:16 GMT 49.092545 1.415194 18,800 92 476 -3456
2022-11-26 21:34:15 GMT 49.092781 1.405166 18,900 90 477 -3392
2022-11-26 21:34:13 GMT 49.092773 1.402095 18,950 84 479 -2880
2022-11-26 21:34:10 GMT 49.092640 1.394685 19,125 84 479 -2880
2022-11-26 21:34:08 GMT 49.091949 1.381953 19,275 82 479 -2880
2022-11-26 21:34:06 GMT 49.091949 1.381953 19,300 81 478 -2944
2022-11-26 21:34:04 GMT 49.091309 1.374911 19,400 79 478 -2944
2022-11-26 21:34:03 GMT 49.090897 1.371601 19,700 77 479 -3008
2022-11-26 21:34:01 GMT 49.089893 1.364039 19,700 76 478 -3008
2022-11-26 21:33:59 GMT 49.089104 1.359124 19,700 74 479 -3008
2022-11-26 21:33:58 GMT 49.088497 1.355872 19,825 73 478 -2944
2022-11-26 21:33:56 GMT 49.086411 1.345543 19,875 69 478 -2944
2022-11-26 21:33:54 GMT 49.085587 1.342093 19,900 67 478 -2944
2022-11-26 21:33:52 GMT 49.084072 1.336068 20,000 66 477 -2944
2022-11-26 21:33:50 GMT 49.082108 1.329346 20,075 64 477 -2944
2022-11-26 21:33:49 GMT 49.081146 1.326247 20,200 63 477 -3008
2022-11-26 21:33:47 GMT 49.079041 1.319979 20,300 60 476 -3072
2022-11-26 21:33:46 GMT 49.077988 1.317092 20,425 59 475 -3200
2022-11-26 21:33:44 GMT 49.075974 1.311854 20,425 57 476 -3264
2022-11-26 21:33:43 GMT 49.073639 1.306246 20,625 55 475 -3200
2022-11-26 21:33:40 GMT 49.071274 1.300940 20,625 54 475 -3072
2022-11-26 21:33:37 GMT 49.067314 1.292556 20,775 53 474 -3072
2022-11-26 21:33:36 GMT 49.064438 1.286668 20,925 53 475 -3072
2022-11-26 21:33:33 GMT 49.062607 1.282865 20,950 53 475 -3008
2022-11-26 21:33:32 GMT 49.061962 1.281570 21,100 53 475 -3008
2022-11-26 21:33:30 GMT 49.058426 1.274270 21,100 53 475 -3008
2022-11-26 21:33:28 GMT 49.055786 1.268921 21,300 53 476 -2944
2022-11-26 21:33:26 GMT 49.053864 1.264873 21,300 53 476 -2944
2022-11-26 21:33:25 GMT 49.052418 1.261910 21,375 53 477 -2880
2022-11-26 21:33:23 GMT 49.049927 1.256808 21,450 53 477 -2880
2022-11-26 21:33:22 GMT 49.048088 1.253020 21,525 53 477 -2944
2022-11-26 21:33:20 GMT 49.045715 1.248105 21,650 53 478 -2944
2022-11-26 21:33:18 GMT 49.041897 1.240299 21,875 53 478 -3008
2022-11-26 21:33:15 GMT 49.038918 1.234083 21,875 53 479 -3008
2022-11-26 21:33:14 GMT 49.037201 1.230539 21,925 53 479 -3008
2022-11-26 21:33:13 GMT 49.035614 1.227288 21,975 53 479 -2944
2022-11-26 21:33:11 GMT 49.033905 1.223778 22,025 53 479 -2880
2022-11-26 21:33:09 GMT 49.030609 1.216947 22,175 53 481 -2816
2022-11-26 21:33:07 GMT 49.027885 1.211243 22,225 53 481 -2816
2022-11-26 21:33:05 GMT 49.024300 1.203870 22,350 53 481 -2880
2022-11-26 21:33:03 GMT 49.023148 1.201454 22,475 53 481 -2880
2022-11-26 21:33:00 GMT 49.018761 1.192450 22,675 53 483 -2880
2022-11-26 21:32:58 GMT 49.013214 1.180960 22,775 53 483 -2880
2022-11-26 21:32:56 GMT 49.013214 1.180960 22,900 53 483 -2880
2022-11-26 21:32:54 GMT 49.011337 1.177157 22,900 53 484 -2880
2022-11-26 21:32:53 GMT 49.009918 1.174129 23,025 53 484 -2880
2022-11-26 21:32:51 GMT 49.006424 1.167008 23,050 53 484 -2880
2022-11-26 21:32:49 GMT 49.002048 1.157973 23,200 53 485 -2944
2022-11-26 21:32:46 GMT 49.000187 1.154143 23,275 53 485 -2944
2022-11-26 21:32:43 GMT 48.996044 1.145686 23,425 53 486 -2944
2022-11-26 21:32:41 GMT 48.990921 1.135254 23,600 53 487 -2752
2022-11-26 21:32:39 GMT 48.990921 1.135254 23,600 53 488 -2688
2022-11-26 21:32:37 GMT 48.988224 1.129713 23,700 53 488 -2624
2022-11-26 21:32:35 GMT 48.985432 1.123930 23,750 53 488 -2624
2022-11-26 21:32:34 GMT 48.984081 1.121184 23,825 53 489 -2688
2022-11-26 21:32:33 GMT 48.982590 1.118141 23,875 53 490 -2752
2022-11-26 21:32:30 GMT 48.978771 1.110414 24,075 53 491 -2944
2022-11-26 21:32:28 GMT 48.976089 1.104901 24,100 53 491 -2880
2022-11-26 21:32:27 GMT 48.974716 1.102154 24,175 53 491 -2816
2022-11-26 21:32:24 GMT 48.970505 1.093562 24,300 53 493 -2496
2022-11-26 21:32:22 GMT 48.967941 1.088280 24,400 53 493 -2432
2022-11-26 21:32:20 GMT 48.964527 1.081286 24,475 53 495 -2432
2022-11-26 21:32:19 GMT 48.963737 1.079624 24,500 53 495 -2432
2022-11-26 21:32:16 GMT 48.960571 1.073263 24,625 53 496 -2560
2022-11-26 21:32:15 GMT 48.959106 1.070181 24,650 53 496 -2688
2022-11-26 21:32:14 GMT 48.957451 1.066830 24,700 53 496 -2688
2022-11-26 21:32:13 GMT 48.956100 1.064011 24,800 53 498 -2688
2022-11-26 21:32:11 GMT 48.953339 1.058420 24,800 53 498 -2624
2022-11-26 21:32:09 GMT 48.949772 1.051074 24,975 53 499 -2432
2022-11-26 21:32:08 GMT 48.948532 1.048561 24,975 53 499 -2304
2022-11-26 21:32:06 GMT 48.945923 1.043208 25,050 53 500 -2240
2022-11-26 21:32:05 GMT 48.944698 1.040665 25,075 53 501 -2112
2022-11-26 21:32:03 GMT 48.941620 1.034475 25,150 53 502 -2304
2022-11-26 21:32:01 GMT 48.938873 1.028841 25,225 53 503 -2432
2022-11-26 21:32:00 GMT 48.937481 1.025993 25,300 53 503 -2624
2022-11-26 21:31:58 GMT 48.934845 1.020602 25,400 53 503 -3072
2022-11-26 21:31:56 GMT 48.930817 1.012432 25,525 53 503 -3328
2022-11-26 21:31:55 GMT 48.930817 1.012432 25,525 53 503 -3456
2022-11-26 21:31:53 GMT 48.928032 1.006767 25,675 53 503 -3712
2022-11-26 21:31:52 GMT 48.926075 1.002792 25,750 53 503 -3776
2022-11-26 21:31:50 GMT 48.923264 0.997080 25,850 53 503 -3840
2022-11-26 21:31:49 GMT 48.921745 0.993974 25,925 53 503 -3904
2022-11-26 21:31:46 GMT 48.915367 0.980963 26,150 53 502 -3904
2022-11-26 21:31:44 GMT 48.915367 0.980963 26,225 53 502 -3904
2022-11-26 21:31:42 GMT 48.912735 0.975600 26,275 53 502 -3840
2022-11-26 21:31:40 GMT 48.909691 0.969399 26,500 53 501 -3776
2022-11-26 21:31:38 GMT 48.907455 0.964918 26,650 53 501 -3712
2022-11-26 21:31:36 GMT 48.903854 0.957571 26,975 53 500 -3648
2022-11-26 21:31:34 GMT 48.901356 0.952486 26,975 53 500 -3584
2022-11-26 21:31:32 GMT 48.896793 0.943234 27,050 53 501 -3584
2022-11-26 21:31:28 GMT 48.893024 0.935645 27,225 53 501 -3520
2022-11-26 21:31:27 GMT 48.891541 0.932570 27,275 53 501 -3328
2022-11-26 21:31:25 GMT 48.888885 0.927218 27,400 53 501 -3264
2022-11-26 21:31:23 GMT 48.886414 0.922147 27,475 53 501 -3200
2022-11-26 21:31:21 GMT 48.883484 0.916232 27,625 53 501 -3008
2022-11-26 21:31:18 GMT 48.878632 0.906372 27,775 53 501 -3008
2022-11-26 21:31:17 GMT 48.876266 0.901602 27,950 53 502 -3008
2022-11-26 21:31:14 GMT 48.872131 0.893132 28,000 53 502 -2944
2022-11-26 21:31:12 GMT 48.870724 0.890326 28,050 53 502 -2944
2022-11-26 21:31:10 GMT 48.867977 0.884616 28,150 53 503 -2880
2022-11-26 21:31:09 GMT 48.866592 0.881864 28,200 53 503 -2880
2022-11-26 21:31:08 GMT 48.865173 0.879047 28,250 53 503 -2816
2022-11-26 21:31:05 GMT 48.858627 0.865737 28,425 53 503 -2752
2022-11-26 21:31:02 GMT 48.857529 0.863483 28,475 53 503 -2752
2022-11-26 21:31:01 GMT 48.856018 0.860384 28,550 53 503 -2752
2022-11-26 21:31:00 GMT 48.853088 0.854469 28,725 53 504 -2688
2022-11-26 21:30:57 GMT 48.848740 0.845666 28,800 52 506 -2496
2022-11-26 21:30:55 GMT 48.847321 0.842849 28,825 52 506 -2496
2022-11-26 21:30:53 GMT 48.844517 0.837202 28,925 52 506 -2496
2022-11-26 21:30:52 GMT 48.842697 0.833552 28,975 53 507 -2624
2022-11-26 21:30:50 GMT 48.840683 0.829609 29,000 53 507 -2624
2022-11-26 21:30:48 GMT 48.837479 0.823059 29,125 52 507 -2624
2022-11-26 21:30:46 GMT 48.835190 0.818552 29,175 52 507 -2624
2022-11-26 21:30:45 GMT 48.833908 0.816017 29,325 52 509 -2560
2022-11-26 21:30:43 GMT 48.831108 0.810314 29,325 52 509 -2560
2022-11-26 21:30:42 GMT 48.829109 0.806339 29,375 52 509 -2432
2022-11-26 21:30:41 GMT 48.827709 0.803520 29,425 52 509 -2368
2022-11-26 21:30:40 GMT 48.825714 0.799537 29,475 52 509 -2368
2022-11-26 21:30:38 GMT 48.822876 0.793833 29,525 52 511 -2496
2022-11-26 21:30:37 GMT 48.820030 0.788124 29,625 53 512 -2624
2022-11-26 21:30:35 GMT 48.818588 0.785233 29,675 53 512 -2752
2022-11-26 21:30:33 GMT 48.816605 0.781227 29,950 53 512 -2880
2022-11-26 21:30:32 GMT 48.811661 0.771156 29,850 53 512 -2880
2022-11-26 21:30:30 GMT 48.811661 0.771156 29,900 53 513 -2880
2022-11-26 21:30:29 GMT 48.810242 0.768339 29,950 53 513 -2880
2022-11-26 21:30:27 GMT 48.807266 0.762282 30,050 53 513 -2880
2022-11-26 21:30:26 GMT 48.805969 0.759719 30,100 53 513 -2944
2022-11-26 21:30:24 GMT 48.803146 0.753972 30,225 53 513 -3328
2022-11-26 21:30:22 GMT 48.800991 0.749600 30,325 53 513 -3392
2022-11-26 21:30:20 GMT 48.794586 0.736647 30,500 53 513 -3520
2022-11-26 21:30:18 GMT 48.794586 0.736647 30,550 53 513 -3520
2022-11-26 21:30:16 GMT 48.791912 0.731241 30,650 53 513 -3584
2022-11-26 21:30:15 GMT 48.790329 0.728061 30,725 53 512 -3584
2022-11-26 21:30:13 GMT 48.787491 0.722351 30,850 53 512 -3584
2022-11-26 21:30:11 GMT 48.782135 0.711435 31,075 53 511 -3584
2022-11-26 21:30:09 GMT 48.782135 0.711435 31,075 53 511 -3584
2022-11-26 21:30:07 GMT 48.778412 0.703992 31,200 53 511 -3584
2022-11-26 21:30:05 GMT 48.776596 0.700306 31,325 53 511 -3584
2022-11-26 21:30:04 GMT 48.773483 0.693970 31,525 53 510 -3584
2022-11-26 21:30:01 GMT 48.771336 0.689681 31,525 53 510 -3584
2022-11-26 21:30:00 GMT 48.770218 0.687441 31,625 53 510 -3584
2022-11-26 21:29:58 GMT 48.767120 0.681152 31,675 53 510 -3584
2022-11-26 21:29:57 GMT 48.765701 0.678265 31,775 53 510 -3584
2022-11-26 21:29:55 GMT 48.763321 0.673476 31,850 53 510 -3520
2022-11-26 21:29:54 GMT 48.761902 0.670589 31,900 53 510 -3456
2022-11-26 21:29:53 GMT 48.760483 0.667772 32,075 53 509 -3392
2022-11-26 21:29:51 GMT 48.756813 0.660336 32,075 53 509 -3392
2022-11-26 21:29:49 GMT 48.754578 0.655783 32,200 53 509 -3392
2022-11-26 21:29:47 GMT 48.751598 0.649783 32,375 53 508 -3520
2022-11-26 21:29:45 GMT 48.748619 0.643857 32,550 53 508 -3584
2022-11-26 21:29:43 GMT 48.744431 0.635328 33,400 53 507 -3264
2022-11-26 21:29:42 GMT 48.744431 0.635328 32,650 53 507 -3648
2022-11-26 21:29:41 GMT 48.739746 0.625939 32,800 53 507 -3456
2022-11-26 21:29:39 GMT 48.739746 0.625939 32,800 53 507 -3456
2022-11-26 21:29:38 GMT 48.738518 0.623402 32,850 53 507 -3456
2022-11-26 21:29:35 GMT 48.734299 0.614882 33,000 53 507 -3328
2022-11-26 21:29:34 GMT 48.733025 0.612343 33,075 53 507 -3136
2022-11-26 21:29:32 GMT 48.730652 0.607573 33,150 53 506 -2944
2022-11-26 21:29:31 GMT 48.728531 0.603262 33,225 53 506 -2816
2022-11-26 21:29:29 GMT 48.725601 0.597346 33,300 53 507 -2240
2022-11-26 21:29:27 GMT 48.723083 0.592276 33,375 53 507 -1600
2022-11-26 21:29:25 GMT 48.720108 0.586290 33,450 53 507 -1344
2022-11-26 21:29:24 GMT 48.717289 0.580613 33,450 53 507 -1152
2022-11-26 21:29:22 GMT 48.715893 0.577794 33,500 53 507 -960
2022-11-26 21:29:21 GMT 48.711685 0.569317 33,550 52 508 -896
2022-11-26 21:29:19 GMT 48.711685 0.569317 33,575 52 508 -960
2022-11-26 21:29:17 GMT 48.708725 0.563338 33,575 52 508 -960
2022-11-26 21:29:15 GMT 48.704628 0.555171 33,650 52 508 -960
2022-11-26 21:29:12 GMT 48.699097 0.544105 33,700 52 507 -960
2022-11-26 21:29:10 GMT 48.699097 0.544105 33,700 52 507 -960
2022-11-26 21:29:08 GMT 48.695984 0.537908 33,725 52 507 -960
2022-11-26 21:29:06 GMT 48.693176 0.532259 33,775 52 507 -960
2022-11-26 21:29:03 GMT 48.689621 0.525161 33,800 52 506 -960
2022-11-26 21:29:02 GMT 48.687355 0.520694 33,825 52 506 -960
2022-11-26 21:29:00 GMT 48.682140 0.510214 33,900 52 507 -960
2022-11-26 21:28:58 GMT 48.682140 0.510214 33,900 52 507 -960
2022-11-26 21:28:56 GMT 48.678883 0.503781 33,925 52 507 -960
2022-11-26 21:28:55 GMT 48.677582 0.501216 33,975 52 508 -960
2022-11-26 21:28:53 GMT 48.671768 0.489666 33,975 52 508 -960
2022-11-26 21:28:51 GMT 48.671768 0.489666 34,000 52 508 -960
2022-11-26 21:28:49 GMT 48.669388 0.484807 34,025 52 508 -960
2022-11-26 21:28:48 GMT 48.668243 0.482553 34,050 52 508 -960
2022-11-26 21:28:46 GMT 48.665268 0.476638 34,075 52 507 -960
2022-11-26 21:28:45 GMT 48.660782 0.467975 34,125 51 507 -960
2022-11-26 21:28:43 GMT 48.660782 0.467975 34,125 51 507 -960
2022-11-26 21:28:42 GMT 48.657715 0.462200 34,150 50 505 -960
2022-11-26 21:28:39 GMT 48.655468 0.458173 34,175 50 505 -896
2022-11-26 21:28:38 GMT 48.652767 0.453258 34,225 49 505 -896
2022-11-26 21:28:36 GMT 48.651093 0.450295 34,225 49 505 -896
2022-11-26 21:28:34 GMT 48.648514 0.445791 34,250 49 505 -896
2022-11-26 21:28:33 GMT 48.645035 0.439594 34,275 49 505 -832
2022-11-26 21:28:31 GMT 48.641876 0.433960 34,350 49 505 -896
2022-11-26 21:28:28 GMT 48.638535 0.428115 34,375 49 505 -896
2022-11-26 21:28:26 GMT 48.635220 0.422179 34,375 49 505 -896
2022-11-26 21:28:25 GMT 48.633682 0.419504 34,400 49 505 -896
2022-11-26 21:28:24 GMT 48.631851 0.416283 34,425 49 505 -896
2022-11-26 21:28:23 GMT 48.628979 0.411265 34,450 49 504 -896
2022-11-26 21:28:21 GMT 48.627457 0.408536 34,450 49 504 -896
2022-11-26 21:28:19 GMT 48.624603 0.403531 34,475 49 504 -896
2022-11-26 21:28:17 GMT 48.621857 0.398688 34,525 49 504 -896
2022-11-26 21:28:15 GMT 48.619171 0.393888 34,525 49 504 -960
2022-11-26 21:28:14 GMT 48.617615 0.391212 34,550 49 504 -960
2022-11-26 21:28:13 GMT 48.614922 0.386401 34,575 49 504 -960
2022-11-26 21:28:11 GMT 48.613106 0.383220 34,600 49 504 -960
2022-11-26 21:28:10 GMT 48.609615 0.377077 34,625 49 504 -960
2022-11-26 21:28:08 GMT 48.607937 0.374113 34,650 49 505 -896
2022-11-26 21:28:07 GMT 48.605667 0.370084 34,675 49 505 -960
2022-11-26 21:28:05 GMT 48.604156 0.367408 34,700 49 505 -960
2022-11-26 21:28:04 GMT 48.602509 0.364521 34,725 49 504 -960
2022-11-26 21:28:02 GMT 48.599487 0.359168 34,775 49 505 -960
2022-11-26 21:28:01 GMT 48.596161 0.353297 34,775 49 504 -960
2022-11-26 21:27:58 GMT 48.593262 0.348182 34,825 49 503 -1024
2022-11-26 21:27:57 GMT 48.591614 0.345295 34,850 49 503 -1024
2022-11-26 21:27:56 GMT 48.590248 0.342889 34,850 49 503 -1024
2022-11-26 21:27:54 GMT 48.587360 0.337830 34,875 49 503 -960
2022-11-26 21:27:52 GMT 48.580399 0.325505 34,950 49 503 -960
2022-11-26 21:27:50 GMT 48.580399 0.325505 34,950 49 503 -960
2022-11-26 21:27:48 GMT 48.577400 0.320194 34,975 49 502 -960
2022-11-26 21:27:47 GMT 48.575863 0.317519 35,000 49 502 -960
2022-11-26 21:27:45 GMT 48.573025 0.312460 35,025 49 502 -960
2022-11-26 21:27:43 GMT 48.568043 0.303714 35,075 49 502 -960
2022-11-26 21:27:41 GMT 48.566666 0.301349 35,100 49 502 -960
2022-11-26 21:27:40 GMT 48.561852 0.292800 35,125 49 502 -1024
2022-11-26 21:27:38 GMT 48.561852 0.292800 35,150 49 502 -1024
2022-11-26 21:27:37 GMT 48.560364 0.290198 35,175 49 502 -1024
2022-11-26 21:27:35 GMT 48.557476 0.285139 35,200 49 502 -1024
2022-11-26 21:27:34 GMT 48.556137 0.282757 35,225 49 502 -1024
2022-11-26 21:27:32 GMT 48.553101 0.277477 35,250 49 501 -1024
2022-11-26 21:27:30 GMT 48.548443 0.269237 35,300 49 501 -1024
2022-11-26 21:27:28 GMT 48.546909 0.266563 35,325 49 501 -1024
2022-11-26 21:27:26 GMT 48.543743 0.260998 35,350 49 501 -960
2022-11-26 21:27:25 GMT 48.540894 0.255996 35,375 49 501 -960
2022-11-26 21:27:21 GMT 48.536545 0.248319 35,400 49 501 -960
2022-11-26 21:27:20 GMT 48.535172 0.245925 35,450 49 500 -960
2022-11-26 21:27:18 GMT 48.532009 0.240326 35,475 49 500 -960
2022-11-26 21:27:17 GMT 48.530365 0.237474 35,500 49 500 -960
2022-11-26 21:27:16 GMT 48.527355 0.232158 35,525 49 500 -960
2022-11-26 21:27:14 GMT 48.525822 0.229484 35,525 49 500 -960
2022-11-26 21:27:13 GMT 48.524609 0.227388 35,550 49 500 -960
2022-11-26 21:27:11 GMT 48.521442 0.221823 35,575 49 500 -960
2022-11-26 21:27:10 GMT 48.517673 0.215245 35,625 49 500 -960
2022-11-26 21:27:07 GMT 48.515579 0.211559 35,625 49 500 -960
2022-11-26 21:27:05 GMT 48.512558 0.206275 35,675 49 500 -960
2022-11-26 21:27:03 GMT 48.509388 0.200717 35,700 49 500 -1024
2022-11-26 21:27:02 GMT 48.507759 0.197826 35,725 49 500 -1024
2022-11-26 21:27:00 GMT 48.505508 0.193881 35,750 49 500 -1024
2022-11-26 21:26:59 GMT 48.504128 0.191466 35,775 49 499 -1024
2022-11-26 21:26:57 GMT 48.500793 0.185641 35,800 49 499 -1024
2022-11-26 21:26:55 GMT 48.498413 0.181486 35,825 49 499 -1024
2022-11-26 21:26:53 GMT 48.495529 0.176486 35,875 49 499 -1024
2022-11-26 21:26:50 GMT 48.490860 0.168316 35,925 49 499 -960
2022-11-26 21:26:48 GMT 48.486671 0.160964 35,975 49 499 -704
2022-11-26 21:26:45 GMT 48.482437 0.153597 35,975 49 499 -384
2022-11-26 21:26:43 GMT 48.480331 0.149865 36,000 49 499 -192
2022-11-26 21:26:40 GMT 48.475983 0.142259 36,000 49 499 -64
2022-11-26 21:26:38 GMT 48.472378 0.135956 36,000 49 499 -64
2022-11-26 21:26:34 GMT 48.465454 0.123878 36,000 49 499 -64
2022-11-26 21:26:31 GMT 48.462135 0.118103 36,000 49 499 0
2022-11-26 21:26:28 GMT 48.457153 0.109430 36,000 49 499 64
2022-11-26 21:26:25 GMT 48.452362 0.100990 36,000 49 499 64
2022-11-26 21:26:23 GMT 48.449203 0.095497 36,000 49 499 128
2022-11-26 21:26:21 GMT 48.442261 0.083409 36,000 49 499 0
2022-11-26 21:26:18 GMT 48.442261 0.083409 36,000 49 499 0
2022-11-26 21:26:15 GMT 48.438488 0.076832 36,000 49 499 0
2022-11-26 21:26:13 GMT 48.434715 0.070327 36,000 49 499 0
2022-11-26 21:26:10 GMT 48.427315 0.057461 36,000 49 499 -128
2022-11-26 21:26:08 GMT 48.427315 0.057461 36,000 49 499 -128
2022-11-26 21:26:05 GMT 48.422836 0.049579 36,000 49 499 64
2022-11-26 21:26:03 GMT 48.419819 0.044307 36,000 49 499 64
2022-11-26 21:26:01 GMT 48.417679 0.040621 36,000 49 499 0
2022-11-26 21:25:59 GMT 48.413303 0.033031 36,000 49 499 0
2022-11-26 21:25:55 GMT 48.408188 0.024085 36,000 49 499 -128
2022-11-26 21:25:53 GMT 48.404434 0.017536 36,000 49 499 -64
2022-11-26 21:25:50 GMT 48.399445 0.008874 36,000 49 499 0
2022-11-26 21:25:48 GMT 48.396591 0.003903 36,000 49 499 0
2022-11-26 21:25:46 GMT 48.391331 -0.005276 36,000 49 499 0
2022-11-26 21:25:44 GMT 48.391331 -0.005276 36,000 49 499 64
2022-11-26 21:25:42 GMT 48.388275 -0.010493 36,000 49 499 64
2022-11-26 21:25:39 GMT 48.383606 -0.018592 36,000 49 499 64
2022-11-26 21:25:36 GMT 48.379086 -0.026454 36,000 49 499 0
2022-11-26 21:25:33 GMT 48.375458 -0.032748 36,000 49 499 0
2022-11-26 21:25:31 GMT 48.372150 -0.038524 36,000 49 500 128
2022-11-26 21:25:29 GMT 48.367630 -0.046340 36,000 49 500 64
2022-11-26 21:25:26 GMT 48.364014 -0.052678 36,000 49 500 64
2022-11-26 21:25:24 GMT 48.360977 -0.057895 36,000 49 500 0
2022-11-26 21:25:22 GMT 48.357056 -0.064721 36,000 49 501 -128
2022-11-26 21:25:19 GMT 48.353718 -0.070472 36,000 49 501 -128
2022-11-26 21:25:16 GMT 48.348408 -0.079651 36,000 49 501 -64
2022-11-26 21:25:14 GMT 48.341892 -0.090999 36,000 49 501 64
2022-11-26 21:25:11 GMT 48.341892 -0.090999 36,000 49 501 64
2022-11-26 21:25:08 GMT 48.336445 -0.100467 36,000 49 501 0
2022-11-26 21:25:05 GMT 48.331467 -0.109159 36,000 49 502 0
2022-11-26 21:25:03 GMT 48.326431 -0.117821 36,000 49 502 0
2022-11-26 21:25:01 GMT 48.323273 -0.123314 36,000 49 502 128
2022-11-26 21:24:59 GMT 48.323273 -0.123314 36,000 49 502 128
2022-11-26 21:24:57 GMT 48.320068 -0.128878 36,000 48 502 -64
2022-11-26 21:24:54 GMT 48.316132 -0.135709 36,000 48 502 -64
2022-11-26 21:24:52 GMT 48.312752 -0.141449 36,000 48 502 -64
2022-11-26 21:24:49 GMT 48.308212 -0.149301 36,000 48 502 -64
2022-11-26 21:24:46 GMT 48.299809 -0.163783 36,000 48 502 -64
2022-11-26 21:24:44 GMT 48.299809 -0.163783 36,000 48 502 0
2022-11-26 21:24:41 GMT 48.289146 -0.182142 36,000 48 502 -64
2022-11-26 21:24:37 GMT 48.289146 -0.182142 36,000 48 502 -64
2022-11-26 21:24:34 GMT 48.284401 -0.190237 36,000 48 502 -64
2022-11-26 21:24:32 GMT 48.280930 -0.196275 36,000 48 502 64
2022-11-26 21:24:29 GMT 48.277279 -0.202597 36,000 48 502 64
2022-11-26 21:24:27 GMT 48.274979 -0.206557 36,000 49 501 64
2022-11-26 21:24:25 GMT 48.271923 -0.211776 36,000 49 501 64
2022-11-26 21:24:23 GMT 48.269073 -0.216769 36,000 49 502 -64
2022-11-26 21:24:21 GMT 48.265549 -0.222825 36,000 49 501 -128
2022-11-26 21:24:18 GMT 48.261032 -0.230713 36,000 49 501 -64
2022-11-26 21:24:15 GMT 48.255844 -0.239586 36,000 49 501 0
2022-11-26 21:24:13 GMT 48.252232 -0.245891 36,000 49 501 0
2022-11-26 21:24:09 GMT 48.241295 -0.264756 36,000 49 501 64
2022-11-26 21:24:05 GMT 48.241295 -0.264756 36,000 49 501 64
2022-11-26 21:24:03 GMT 48.236755 -0.272616 36,000 49 500 64
2022-11-26 21:24:01 GMT 48.235245 -0.275222 36,000 49 500 -128
2022-11-26 21:23:58 GMT 48.230392 -0.283602 36,000 49 500 -128
2022-11-26 21:23:55 GMT 48.221649 -0.298727 36,000 49 500 0
2022-11-26 21:23:53 GMT 48.221649 -0.298727 36,000 49 500 0
2022-11-26 21:23:48 GMT 48.214233 -0.311561 36,000 48 499 128
2022-11-26 21:23:44 GMT 48.208752 -0.320916 36,000 48 499 128
2022-11-26 21:23:42 GMT 48.206657 -0.324603 36,000 48 499 64
2022-11-26 21:23:39 GMT 48.201210 -0.333927 36,000 48 498 0
2022-11-26 21:23:37 GMT 48.198792 -0.338119 36,000 48 499 0
2022-11-26 21:23:34 GMT 48.194088 -0.346142 36,000 48 499 -64
2022-11-26 21:23:32 GMT 48.191341 -0.350840 36,000 48 499 -64
2022-11-26 21:23:30 GMT 48.187244 -0.357851 36,000 48 499 0
2022-11-26 21:23:27 GMT 48.183334 -0.364662 36,000 49 499 -128
2022-11-26 21:23:24 GMT 48.178215 -0.373463 36,000 49 499 -64
2022-11-26 21:23:22 GMT 48.176678 -0.376065 36,000 49 499 0
2022-11-26 21:23:18 GMT 48.169884 -0.387774 36,000 49 499 64
2022-11-26 21:23:15 GMT 48.165504 -0.395363 36,000 49 499 128
2022-11-26 21:23:13 GMT 48.160061 -0.404734 36,000 48 498 0
2022-11-26 21:23:08 GMT 48.151886 -0.418716 36,000 48 498 0
2022-11-26 21:23:06 GMT 48.151886 -0.418716 36,000 48 498 0
2022-11-26 21:23:03 GMT 48.148235 -0.424946 36,000 48 498 0
2022-11-26 21:23:01 GMT 48.145203 -0.430115 36,000 49 499 -64
2022-11-26 21:22:59 GMT 48.141113 -0.437129 36,000 49 499 0
2022-11-26 21:22:57 GMT 48.134781 -0.448115 36,000 49 499 64
2022-11-26 21:22:55 GMT 48.129959 -0.456413 36,000 49 499 0
2022-11-26 21:22:52 GMT 48.129959 -0.456413 36,000 48 498 0
2022-11-26 21:22:50 GMT 48.127075 -0.461357 36,000 48 498 64
2022-11-26 21:22:47 GMT 48.123322 -0.467812 36,000 48 498 0
2022-11-26 21:22:44 GMT 48.113926 -0.483891 36,000 48 498 0
2022-11-26 21:22:41 GMT 48.113926 -0.483891 36,000 48 498 0
2022-11-26 21:22:37 GMT 48.108433 -0.493188 36,000 48 498 128
2022-11-26 21:22:35 GMT 48.104801 -0.499385 36,000 48 498 128
2022-11-26 21:22:33 GMT 48.102676 -0.503036 36,000 48 498 0
2022-11-26 21:22:30 GMT 48.096561 -0.513329 36,000 48 499 0
2022-11-26 21:22:27 GMT 48.093071 -0.519315 36,000 48 499 0
2022-11-26 21:22:24 GMT 48.087891 -0.528099 36,000 48 499 -64
2022-11-26 21:22:22 GMT 48.077820 -0.545128 36,000 48 498 -128
2022-11-26 21:22:17 GMT 48.077820 -0.545128 36,000 48 499 -64
2022-11-26 21:22:15 GMT 48.074020 -0.551651 36,000 48 498 -64
2022-11-26 21:22:13 GMT 48.068710 -0.560646 36,000 48 498 -64
2022-11-26 21:22:11 GMT 48.068710 -0.560646 36,000 48 498 0
2022-11-26 21:22:07 GMT 48.062626 -0.571007 36,000 48 498 64
2022-11-26 21:22:05 GMT 48.058685 -0.577675 36,000 48 498 0
2022-11-26 21:22:02 GMT 48.054291 -0.585159 36,000 48 498 0
2022-11-26 21:21:57 GMT 48.046379 -0.598544 36,000 48 497 64
2022-11-26 21:21:55 GMT 48.043350 -0.603699 36,000 48 497 64
2022-11-26 21:21:53 GMT 48.040604 -0.608368 36,000 48 497 64
2022-11-26 21:21:50 GMT 48.037720 -0.613243 36,000 48 497 64
2022-11-26 21:21:47 GMT 48.031219 -0.624298 36,000 48 497 0
2022-11-26 21:21:45 GMT 48.028175 -0.629460 36,000 48 497 -64
2022-11-26 21:21:42 GMT 48.024399 -0.635834 36,000 48 497 0
2022-11-26 21:21:39 GMT 48.019798 -0.643545 36,000 48 497 0
2022-11-26 21:21:35 GMT 48.012955 -0.655095 36,000 48 497 64
2022-11-26 21:21:32 GMT 48.008717 -0.662278 36,000 48 497 -64
2022-11-26 21:21:29 GMT 48.003845 -0.670509 36,000 48 497 0
2022-11-26 21:21:25 GMT 47.997620 -0.681015 36,000 48 497 0
2022-11-26 21:21:22 GMT 47.994003 -0.687195 36,000 48 497 0
2022-11-26 21:21:17 GMT 47.986607 -0.699815 36,000 48 496 -64
2022-11-26 21:21:15 GMT 47.979767 -0.711365 36,025 48 496 -64
2022-11-26 21:21:13 GMT 47.979767 -0.711365 36,000 48 497 -64
2022-11-26 21:21:11 GMT 47.977341 -0.715485 36,000 48 496 -64
2022-11-26 21:21:08 GMT 47.972824 -0.723196 36,000 48 496 -64
2022-11-26 21:21:05 GMT 47.965576 -0.735535 36,025 48 496 0
2022-11-26 21:21:03 GMT 47.965576 -0.735535 36,025 48 496 0
2022-11-26 21:21:00 GMT 47.961655 -0.742211 36,000 48 496 64
2022-11-26 21:20:57 GMT 47.956833 -0.750435 36,000 48 496 0
2022-11-26 21:20:54 GMT 47.951691 -0.759113 36,000 48 496 0
2022-11-26 21:20:51 GMT 47.946709 -0.767564 36,025 48 495 0
2022-11-26 21:20:47 GMT 47.941269 -0.776802 36,025 48 495 128
2022-11-26 21:20:44 GMT 47.937195 -0.783669 35,975 48 495 192
2022-11-26 21:20:42 GMT 47.928680 -0.797951 35,975 48 496 64
2022-11-26 21:20:39 GMT 47.928680 -0.797951 35,975 48 496 64
2022-11-26 21:20:36 GMT 47.924881 -0.804337 35,975 48 497 0
2022-11-26 21:20:34 GMT 47.920643 -0.811509 35,975 48 498 0
2022-11-26 21:20:31 GMT 47.915771 -0.819717 35,975 48 498 0
2022-11-26 21:20:26 GMT 47.909702 -0.830031 36,000 48 498 -64
2022-11-26 21:20:24 GMT 47.906616 -0.835167 36,000 48 498 0
2022-11-26 21:20:22 GMT 47.900116 -0.846222 36,000 48 498 0
2022-11-26 21:20:20 GMT 47.900116 -0.846222 36,000 48 498 64
2022-11-26 21:20:16 GMT 47.894165 -0.856247 36,000 48 498 0
2022-11-26 21:20:14 GMT 47.891731 -0.860384 36,000 48 498 0
2022-11-26 21:20:12 GMT 47.888077 -0.866547 36,000 48 498 64
2022-11-26 21:20:10 GMT 47.884888 -0.871934 36,000 48 498 0
2022-11-26 21:20:07 GMT 47.880466 -0.879399 36,000 48 498 0
2022-11-26 21:20:05 GMT 47.873016 -0.892021 36,000 48 498 0
2022-11-26 21:20:02 GMT 47.873016 -0.892021 36,000 48 498 0
2022-11-26 21:20:00 GMT 47.869217 -0.898407 36,000 48 498 64
2022-11-26 21:19:56 GMT 47.862671 -0.909462 36,000 48 498 0
2022-11-26 21:19:53 GMT 47.858402 -0.916654 36,000 48 498 -128
2022-11-26 21:19:51 GMT 47.856258 -0.920246 36,000 48 498 -64
2022-11-26 21:19:47 GMT 47.849396 -0.931778 36,000 48 498 -64
2022-11-26 21:19:44 GMT 47.843922 -0.941021 36,025 48 498 0
2022-11-26 21:19:41 GMT 47.837219 -0.952309 36,000 48 498 -64
2022-11-26 21:19:36 GMT 47.832504 -0.960274 36,000 48 500 0
2022-11-26 21:19:33 GMT 47.827953 -0.967994 36,000 48 500 0
2022-11-26 21:19:31 GMT 47.825638 -0.971878 36,000 48 500 0
2022-11-26 21:19:27 GMT 47.819530 -0.982150 36,000 48 502 -64
2022-11-26 21:19:25 GMT 47.816921 -0.986586 36,000 48 503 0
2022-11-26 21:19:23 GMT 47.813873 -0.991722 36,000 48 503 -64
2022-11-26 21:19:21 GMT 47.809566 -0.998981 36,000 48 503 0
2022-11-26 21:19:19 GMT 47.807281 -1.002846 36,000 48 503 0
2022-11-26 21:19:16 GMT 47.802677 -1.010672 36,000 48 504 64
2022-11-26 21:19:13 GMT 47.797276 -1.019757 36,000 48 506 0
2022-11-26 21:19:11 GMT 47.794189 -1.024956 36,000 48 506 0
2022-11-26 21:19:07 GMT 47.788147 -1.035118 36,000 48 507 0
2022-11-26 21:19:05 GMT 47.785034 -1.040321 36,000 48 507 0
2022-11-26 21:19:03 GMT 47.781921 -1.045555 36,000 48 507 0
2022-11-26 21:19:01 GMT 47.778980 -1.050462 36,000 48 507 0
2022-11-26 21:18:59 GMT 47.776005 -1.055462 36,000 48 508 -64
2022-11-26 21:18:56 GMT 47.771626 -1.062716 36,000 48 508 -64
2022-11-26 21:18:54 GMT 47.767914 -1.068970 36,000 48 508 -64
2022-11-26 21:18:50 GMT 47.761322 -1.079887 36,000 48 508 -64
2022-11-26 21:18:47 GMT 47.751984 -1.095543 36,000 48 508 0
2022-11-26 21:18:44 GMT 47.751984 -1.095543 36,000 48 508 0
2022-11-26 21:18:40 GMT 47.746216 -1.105156 36,000 48 508 0
2022-11-26 21:18:37 GMT 47.741180 -1.113422 36,000 48 508 0
2022-11-26 21:18:34 GMT 47.736969 -1.120468 36,000 48 508 0
2022-11-26 21:18:32 GMT 47.733719 -1.125961 36,000 48 509 0
2022-11-26 21:18:30 GMT 47.729961 -1.132155 36,000 48 508 0
2022-11-26 21:18:27 GMT 47.725403 -1.139691 36,000 48 508 0
2022-11-26 21:18:24 GMT 47.719757 -1.149033 36,000 48 507 0
2022-11-26 21:18:20 GMT 47.715717 -1.155748 36,000 48 507 0
2022-11-26 21:18:17 GMT 47.709778 -1.165581 36,000 48 506 0
2022-11-26 21:18:14 GMT 47.706665 -1.170731 36,000 48 505 -64
2022-11-26 21:18:12 GMT 47.702312 -1.177932 36,000 48 504 0
2022-11-26 21:18:09 GMT 47.699158 -1.183090 36,025 48 504 0
2022-11-26 21:18:06 GMT 47.693573 -1.192360 36,025 48 503 0
2022-11-26 21:18:03 GMT 47.685040 -1.206454 36,025 48 502 0
2022-11-26 21:18:01 GMT 47.685040 -1.206454 36,000 48 502 0
2022-11-26 21:17:58 GMT 47.677639 -1.218778 36,000 48 502 0
2022-11-26 21:17:56 GMT 47.677639 -1.218778 36,000 48 501 0
2022-11-26 21:17:53 GMT 47.673294 -1.225937 36,000 48 500 0
2022-11-26 21:17:50 GMT 47.668671 -1.233559 36,000 48 500 0
2022-11-26 21:17:47 GMT 47.664043 -1.241244 36,000 48 498 -64
2022-11-26 21:17:44 GMT 47.659298 -1.249131 36,025 48 497 0
2022-11-26 21:17:42 GMT 47.656967 -1.252934 36,000 48 498 0
2022-11-26 21:17:40 GMT 47.653473 -1.258759 36,025 48 497 0
2022-11-26 21:17:35 GMT 47.645657 -1.271738 36,000 48 496 64
2022-11-26 21:17:32 GMT 47.641838 -1.278006 36,000 48 496 64
2022-11-26 21:17:29 GMT 47.637222 -1.285606 36,000 48 495 0
2022-11-26 21:17:26 GMT 47.627361 -1.301950 36,000 48 494 0
2022-11-26 21:17:23 GMT 47.627361 -1.301950 36,000 48 493 0
2022-11-26 21:17:21 GMT 47.619003 -1.315750 36,000 48 492 0
2022-11-26 21:17:18 GMT 47.619003 -1.315750 36,000 48 492 64
2022-11-26 21:17:15 GMT 47.615936 -1.320763 36,000 48 490 0
2022-11-26 21:17:12 GMT 47.605957 -1.337242 36,000 48 489 0
2022-11-26 21:17:09 GMT 47.605957 -1.337242 36,000 48 489 0
2022-11-26 21:17:07 GMT 47.603107 -1.342022 36,000 48 488 0
2022-11-26 21:17:03 GMT 47.597382 -1.351459 36,000 48 488 0
2022-11-26 21:17:00 GMT 47.592121 -1.360122 36,000 48 487 0
2022-11-26 21:16:56 GMT 47.587467 -1.367798 36,000 48 485 0
2022-11-26 21:16:53 GMT 47.582207 -1.376460 36,000 48 484 0
2022-11-26 21:16:50 GMT 47.577271 -1.384629 36,000 48 484 0
2022-11-26 21:16:45 GMT 47.570892 -1.395264 36,000 48 482 0
2022-11-26 21:16:42 GMT 47.564804 -1.405289 36,000 48 482 0
2022-11-26 21:16:40 GMT 47.561954 -1.409983 36,000 48 481 0
2022-11-26 21:16:37 GMT 47.557800 -1.416824 36,000 48 481 0
2022-11-26 21:16:33 GMT 47.551903 -1.426673 36,000 48 480 0
2022-11-26 21:16:31 GMT 47.549107 -1.431321 36,000 48 480 0
2022-11-26 21:16:25 GMT 47.539764 -1.446693 36,000 48 480 0
2022-11-26 21:16:22 GMT 47.531937 -1.459671 36,000 48 480 0
2022-11-26 21:16:19 GMT 47.531937 -1.459671 36,000 48 480 0
2022-11-26 21:16:17 GMT 47.527786 -1.466464 36,000 48 479 64
2022-11-26 21:16:14 GMT 47.524246 -1.472305 36,000 48 479 64
2022-11-26 21:16:11 GMT 47.520386 -1.478647 36,000 48 479 64
2022-11-26 21:16:09 GMT 47.517288 -1.483772 36,000 48 478 64
2022-11-26 21:16:05 GMT 47.510788 -1.494484 36,000 48 478 0
2022-11-26 21:16:02 GMT 47.506210 -1.501968 36,000 48 478 0
2022-11-26 21:15:59 GMT 47.502090 -1.508789 36,000 48 478 0
2022-11-26 21:15:56 GMT 47.497375 -1.516525 36,000 47 477 0
2022-11-26 21:15:53 GMT 47.491474 -1.526184 36,000 47 477 0
2022-11-26 21:15:49 GMT 47.477875 -1.548454 36,000 47 477 0
2022-11-26 21:15:43 GMT 47.477875 -1.548454 36,000 47 477 0
2022-11-26 21:15:39 GMT 47.472107 -1.557861 36,000 47 477 0
2022-11-26 21:15:34 GMT 47.465149 -1.569260 36,000 47 477 0
2022-11-26 21:15:31 GMT 47.461311 -1.575552 36,000 47 477 -64
2022-11-26 21:15:28 GMT 47.456268 -1.583748 36,000 47 477 -64
2022-11-26 21:15:25 GMT 47.451691 -1.591301 36,000 48 478 0
2022-11-26 21:15:22 GMT 47.447578 -1.598018 36,000 48 478 0
2022-11-26 21:15:19 GMT 47.443451 -1.604828 36,000 48 478 0
2022-11-26 21:15:16 GMT 47.438126 -1.613582 36,000 48 478 0
2022-11-26 21:15:12 GMT 47.432831 -1.622337 36,000 48 478 64
2022-11-26 21:15:09 GMT 47.427513 -1.631047 36,000 48 478 64
2022-11-26 21:15:05 GMT 47.423042 -1.638301 36,000 47 479 0
2022-11-26 21:15:02 GMT 47.418015 -1.646541 36,000 47 479 -64
2022-11-26 21:14:59 GMT 47.412384 -1.655766 36,000 47 479 0
2022-11-26 21:14:57 GMT 47.410938 -1.658161 36,000 47 479 0
2022-11-26 21:14:54 GMT 47.406189 -1.665939 36,000 47 479 0
2022-11-26 21:14:51 GMT 47.402298 -1.672256 36,000 47 479 0
2022-11-26 21:14:48 GMT 47.397858 -1.679500 36,000 47 480 0
2022-11-26 21:14:44 GMT 47.391312 -1.690178 36,000 47 480 0
2022-11-26 21:14:41 GMT 47.386734 -1.697662 36,000 47 480 -64
2022-11-26 21:14:37 GMT 47.382431 -1.704666 36,000 47 480 -64
2022-11-26 21:14:33 GMT 47.374374 -1.717712 36,000 47 479 0
2022-11-26 21:14:30 GMT 47.369926 -1.724994 36,000 47 480 0
2022-11-26 21:14:28 GMT 47.367691 -1.728630 36,000 47 480 0
2022-11-26 21:14:26 GMT 47.363068 -1.736115 36,000 47 480 0
2022-11-26 21:14:22 GMT 47.358009 -1.744361 36,000 47 480 0
2022-11-26 21:14:17 GMT 47.351761 -1.754517 36,000 47 480 0
2022-11-26 21:14:15 GMT 47.348793 -1.759362 36,000 47 480 0
2022-11-26 21:14:12 GMT 47.342834 -1.769073 36,000 47 481 0
2022-11-26 21:14:08 GMT 47.337433 -1.777813 36,000 47 481 0
2022-11-26 21:14:03 GMT 47.329987 -1.789997 36,000 47 482 64
2022-11-26 21:14:01 GMT 47.326721 -1.795303 36,000 47 482 0
2022-11-26 21:13:58 GMT 47.322678 -1.801899 36,000 47 482 0
2022-11-26 21:13:54 GMT 47.317474 -1.810410 36,000 47 482 0
2022-11-26 21:13:51 GMT 47.311661 -1.819817 36,000 47 482 0
2022-11-26 21:13:48 GMT 47.307312 -1.826889 36,000 47 482 0
2022-11-26 21:13:43 GMT 47.299988 -1.838768 36,000 47 482 64
2022-11-26 21:13:40 GMT 47.292046 -1.851619 36,000 47 482 0
2022-11-26 21:13:37 GMT 47.292046 -1.851619 36,000 47 482 64
2022-11-26 21:13:33 GMT 47.284691 -1.863521 36,000 47 482 64
2022-11-26 21:13:30 GMT 47.278885 -1.872963 36,000 47 482 0
2022-11-26 21:13:26 GMT 47.274357 -1.880211 36,000 47 482 0
2022-11-26 21:13:24 GMT 47.267166 -1.891846 36,000 47 482 0
2022-11-26 21:13:21 GMT 47.261948 -1.900291 36,000 47 482 0
2022-11-26 21:13:18 GMT 47.261948 -1.900291 36,000 47 482 0
2022-11-26 21:13:14 GMT 47.256851 -1.908593 36,000 47 482 -64
2022-11-26 21:13:12 GMT 47.254620 -1.912184 36,000 47 482 -64
2022-11-26 21:13:09 GMT 47.248196 -1.922678 36,000 47 482 -64
2022-11-26 21:13:05 GMT 47.242981 -1.931129 36,000 47 482 0
2022-11-26 21:13:02 GMT 47.239815 -1.936199 36,000 47 482 0
2022-11-26 21:12:59 GMT 47.233994 -1.945707 36,000 47 481 0
2022-11-26 21:12:56 GMT 47.230877 -1.950777 36,000 47 481 0
2022-11-26 21:12:50 GMT 47.221756 -1.965523 36,000 47 481 0
2022-11-26 21:12:47 GMT 47.211319 -1.982483 36,000 47 481 0
2022-11-26 21:12:43 GMT 47.211319 -1.982483 36,000 47 481 0
2022-11-26 21:12:40 GMT 47.206856 -1.989723 36,000 47 481 0
2022-11-26 21:12:37 GMT 47.200882 -1.999443 36,000 47 480 0
2022-11-26 21:12:33 GMT 47.196381 -2.006625 36,000 47 481 0
2022-11-26 21:12:30 GMT 47.189816 -2.017259 36,000 47 481 0
2022-11-26 21:12:27 GMT 47.186790 -2.022118 36,000 47 481 0
2022-11-26 21:12:20 GMT 47.168427 -2.051765 36,000 47 481 0
2022-11-26 21:12:16 GMT 47.168427 -2.051765 36,000 47 480 0
2022-11-26 21:12:11 GMT 47.163330 -2.059937 36,000 47 480 0
2022-11-26 21:12:08 GMT 47.159134 -2.066666 36,000 47 480 -64
2022-11-26 21:12:06 GMT 47.155228 -2.072895 36,000 47 480 -64
2022-11-26 21:12:04 GMT 47.153133 -2.076275 36,000 47 480 0
2022-11-26 21:12:01 GMT 47.148651 -2.083488 36,000 47 480 0
2022-11-26 21:11:58 GMT 47.136063 -2.103676 36,000 47 480 64
2022-11-26 21:11:55 GMT 47.136063 -2.103676 36,000 47 481 0
2022-11-26 21:11:50 GMT 47.132309 -2.109650 36,000 47 481 0
2022-11-26 21:11:47 GMT 47.126724 -2.118576 36,000 47 481 0
2022-11-26 21:11:43 GMT 47.118778 -2.131277 36,000 47 480 0
2022-11-26 21:11:39 GMT 47.114170 -2.138742 36,000 47 480 0
2022-11-26 21:11:36 GMT 47.109795 -2.145714 36,000 47 481 0
2022-11-26 21:11:33 GMT 47.106071 -2.151701 36,000 47 481 0
2022-11-26 21:11:29 GMT 47.100082 -2.161285 36,000 47 481 0
2022-11-26 21:11:25 GMT 47.094059 -2.170856 36,000 47 481 0
2022-11-26 21:11:22 GMT 47.089279 -2.178589 36,000 47 481 0
2022-11-26 21:11:19 GMT 47.085526 -2.184563 36,000 47 480 0
2022-11-26 21:11:16 GMT 47.079208 -2.194660 36,000 47 480 0
2022-11-26 21:11:11 GMT 47.072643 -2.205224 36,000 47 480 0
2022-11-26 21:11:08 GMT 47.067989 -2.212618 36,000 47 480 0
2022-11-26 21:11:05 GMT 47.064102 -2.218895 36,000 47 480 0
2022-11-26 21:11:00 GMT 47.057373 -2.229675 36,000 47 480 0
2022-11-26 21:10:57 GMT 47.052155 -2.238052 36,000 47 480 0
2022-11-26 21:10:54 GMT 47.047367 -2.245718 36,000 47 480 0
2022-11-26 21:10:51 GMT 47.041351 -2.255356 36,000 47 480 64
2022-11-26 21:10:48 GMT 47.038513 -2.259888 36,000 47 480 64
2022-11-26 21:10:45 GMT 47.033569 -2.267784 36,000 47 480 64
2022-11-26 21:10:40 GMT 47.022369 -2.285790 36,000 47 480 -64
2022-11-26 21:10:38 GMT 47.022369 -2.285790 36,000 47 480 -64
2022-11-26 21:10:34 GMT 47.018143 -2.292503 36,000 47 480 0
2022-11-26 21:10:30 GMT 47.011734 -2.302803 36,000 47 480 0
2022-11-26 21:10:27 GMT 47.007065 -2.310219 36,000 47 480 0
2022-11-26 21:10:22 GMT 46.998535 -2.323820 36,000 47 480 0
2022-11-26 21:10:18 GMT 46.992668 -2.333186 36,000 47 480 0
2022-11-26 21:10:15 GMT 46.988338 -2.340088 36,000 47 480 0
2022-11-26 21:10:12 GMT 46.983810 -2.347229 36,000 47 480 0
2022-11-26 21:10:06 GMT 46.976440 -2.358971 36,000 47 480 0
2022-11-26 21:10:03 GMT 46.971626 -2.366568 36,000 47 480 0
2022-11-26 21:10:00 GMT 46.965637 -2.376137 36,000 47 481 0
2022-11-26 21:09:55 GMT 46.957661 -2.388822 36,000 47 481 0
2022-11-26 21:09:50 GMT 46.949387 -2.402023 36,000 47 481 0
2022-11-26 21:09:47 GMT 46.947281 -2.405319 36,000 47 481 0
2022-11-26 21:09:44 GMT 46.942158 -2.413471 36,000 47 481 0
2022-11-26 21:09:40 GMT 46.936157 -2.423035 36,000 47 481 0
2022-11-26 21:09:37 GMT 46.930573 -2.431892 36,000 47 481 0
2022-11-26 21:09:33 GMT 46.925728 -2.439599 36,000 47 482 0
2022-11-26 21:09:27 GMT 46.911575 -2.462036 36,000 47 482 0
2022-11-26 21:09:24 GMT 46.911575 -2.462036 36,000 47 482 0
2022-11-26 21:09:20 GMT 46.907181 -2.468971 36,000 47 482 0
2022-11-26 21:09:17 GMT 46.900406 -2.479752 36,000 47 482 0
2022-11-26 21:09:14 GMT 46.896912 -2.485234 36,000 47 482 0
2022-11-26 21:09:11 GMT 46.892395 -2.492386 36,000 47 482 0
2022-11-26 21:09:09 GMT 46.890106 -2.496025 36,000 47 482 0
2022-11-26 21:09:06 GMT 46.884842 -2.504402 36,000 47 482 0
2022-11-26 21:09:03 GMT 46.881042 -2.510376 36,000 47 483 0
2022-11-26 21:08:59 GMT 46.874706 -2.520447 36,000 47 482 -64
2022-11-26 21:08:55 GMT 46.868233 -2.530729 36,000 47 483 0
2022-11-26 21:08:52 GMT 46.864742 -2.536194 36,000 47 483 0
2022-11-26 21:08:48 GMT 46.858597 -2.546013 36,000 47 482 64
2022-11-26 21:08:44 GMT 46.850124 -2.559402 36,000 47 482 64
2022-11-26 21:08:40 GMT 46.845612 -2.566580 36,000 47 482 64
2022-11-26 21:08:36 GMT 46.838951 -2.577118 36,000 47 483 0
2022-11-26 21:08:32 GMT 46.831085 -2.589546 36,000 47 483 0
2022-11-26 21:08:23 GMT 46.814392 -2.615818 36,000 47 482 0
2022-11-26 21:08:16 GMT 46.808487 -2.625063 36,000 47 482 0
2022-11-26 21:08:12 GMT 46.803772 -2.632498 36,000 47 483 0
2022-11-26 21:08:06 GMT 46.792679 -2.649902 36,000 47 483 0
2022-11-26 21:08:02 GMT 46.787979 -2.657249 36,000 47 483 0
2022-11-26 21:07:57 GMT 46.781021 -2.668204 36,000 47 483 0
2022-11-26 21:07:54 GMT 46.776482 -2.675377 36,000 47 482 -64
2022-11-26 21:07:51 GMT 46.772057 -2.682243 36,000 47 483 0
2022-11-26 21:07:48 GMT 46.767357 -2.689659 36,000 47 483 -64
2022-11-26 21:07:44 GMT 46.759163 -2.702499 36,000 47 483 -64
2022-11-26 21:07:41 GMT 46.756897 -2.706120 36,000 47 483 -64
2022-11-26 21:07:38 GMT 46.752228 -2.713489 36,000 47 483 0
2022-11-26 21:07:35 GMT 46.746452 -2.722549 36,000 47 483 0
2022-11-26 21:07:31 GMT 46.741287 -2.730638 36,000 47 482 0
2022-11-26 21:07:26 GMT 46.733093 -2.743501 36,000 47 482 0
2022-11-26 21:07:23 GMT 46.729183 -2.749672 36,000 47 482 0
2022-11-26 21:07:19 GMT 46.721878 -2.761119 36,000 47 483 0
2022-11-26 21:07:14 GMT 46.715836 -2.770631 36,000 47 483 -64
2022-11-26 21:07:11 GMT 46.710205 -2.779407 36,000 47 483 0
2022-11-26 21:07:08 GMT 46.706421 -2.785378 36,000 47 483 0
2022-11-26 21:07:04 GMT 46.698624 -2.797494 36,000 46 483 0
2022-11-26 21:06:58 GMT 46.691338 -2.808861 36,000 46 483 0
2022-11-26 21:06:53 GMT 46.684479 -2.819534 36,000 46 483 0
2022-11-26 21:06:47 GMT 46.669418 -2.842980 36,000 47 482 0
2022-11-26 21:06:43 GMT 46.669418 -2.842980 36,000 47 482 0
2022-11-26 21:06:38 GMT 46.653763 -2.867432 36,000 47 482 0
2022-11-26 21:06:34 GMT 46.653763 -2.867432 36,000 47 482 0
2022-11-26 21:06:30 GMT 46.644058 -2.882638 36,000 47 482 0
2022-11-26 21:06:27 GMT 46.644058 -2.882638 36,000 47 482 0
2022-11-26 21:06:24 GMT 46.638748 -2.890945 36,000 47 482 0
2022-11-26 21:06:21 GMT 46.635864 -2.895433 36,000 47 481 0
2022-11-26 21:06:18 GMT 46.629841 -2.904922 36,000 47 481 0
2022-11-26 21:06:13 GMT 46.622856 -2.915771 36,000 47 481 0
2022-11-26 21:06:10 GMT 46.619225 -2.921471 36,000 47 481 0
2022-11-26 21:06:07 GMT 46.614716 -2.928593 36,000 47 480 0
2022-11-26 21:06:03 GMT 46.607494 -2.939941 36,000 47 480 0
2022-11-26 21:05:59 GMT 46.597687 -2.955322 36,000 47 480 0
2022-11-26 21:05:50 GMT 46.589310 -2.968586 36,000 47 479 0
2022-11-26 21:05:48 GMT 46.584641 -2.975888 36,000 47 479 0
2022-11-26 21:05:45 GMT 46.580448 -2.982513 36,000 47 479 0
2022-11-26 21:05:41 GMT 46.572582 -2.994736 36,000 47 479 0
2022-11-26 21:05:37 GMT 46.568253 -3.001545 36,000 47 478 64
2022-11-26 21:05:32 GMT 46.559509 -3.015211 36,000 47 478 0
2022-11-26 21:05:29 GMT 46.556522 -3.019867 36,000 47 477 0
2022-11-26 21:05:26 GMT 46.552597 -3.025997 36,000 47 477 64
2022-11-26 21:05:19 GMT 46.541344 -3.043556 36,000 47 477 0
2022-11-26 21:05:16 GMT 46.536968 -3.050354 36,000 47 477 -64
2022-11-26 21:05:10 GMT 46.528564 -3.063444 36,000 47 477 0
2022-11-26 21:05:07 GMT 46.523621 -3.071148 36,000 47 477 0
2022-11-26 21:05:04 GMT 46.518951 -3.078450 36,000 47 477 0
2022-11-26 21:05:01 GMT 46.515198 -3.084278 36,000 47 477 0
2022-11-26 21:04:58 GMT 46.510849 -3.091044 36,000 47 477 0
2022-11-26 21:04:55 GMT 46.505451 -3.099518 36,000 47 477 0
2022-11-26 21:04:51 GMT 46.500366 -3.107456 36,000 47 477 0
2022-11-26 21:04:48 GMT 46.495697 -3.114758 36,000 47 477 0
2022-11-26 21:04:44 GMT 46.489811 -3.123894 36,000 47 477 0
2022-11-26 21:04:41 GMT 46.483341 -3.133987 36,000 47 478 -64
2022-11-26 21:04:38 GMT 46.480225 -3.138874 36,000 47 478 -64
2022-11-26 21:04:31 GMT 46.467838 -3.158089 36,000 47 478 0
2022-11-26 21:04:28 GMT 46.465466 -3.161797 36,000 46 478 0
2022-11-26 21:04:24 GMT 46.459274 -3.171410 36,000 47 478 64
2022-11-26 21:04:18 GMT 46.449638 -3.186378 36,000 46 478 64
2022-11-26 21:04:13 GMT 46.443146 -3.196419 36,000 46 478 -64
2022-11-26 21:04:08 GMT 46.434647 -3.209518 36,000 46 478 0
2022-11-26 21:04:03 GMT 46.427246 -3.220985 36,000 47 486 0
2022-11-26 21:04:00 GMT 46.423756 -3.226341 36,000 46 478 0
2022-11-26 21:03:57 GMT 46.418015 -3.235206 36,000 46 478 0
2022-11-26 21:03:53 GMT 46.411789 -3.244785 36,000 46 479 0
2022-11-26 21:03:50 GMT 46.407227 -3.251747 36,000 46 479 0
2022-11-26 21:03:44 GMT 46.398102 -3.265755 36,000 46 479 0
2022-11-26 21:03:40 GMT 46.391865 -3.275299 36,000 46 480 0
2022-11-26 21:03:36 GMT 46.386108 -3.284175 36,000 46 480 0
2022-11-26 21:03:31 GMT 46.378784 -3.295363 36,000 46 481 0
2022-11-26 21:03:27 GMT 46.372238 -3.305411 36,000 47 486 0
2022-11-26 21:03:21 GMT 46.364044 -3.318072 36,000 46 482 0
2022-11-26 21:03:16 GMT 46.356392 -3.329819 36,000 46 482 -64
2022-11-26 21:03:11 GMT 46.348480 -3.342041 36,000 46 483 0
2022-11-26 21:03:07 GMT 46.341591 -3.352615 36,000 47 483 0
2022-11-26 21:03:04 GMT 46.337357 -3.359271 36,000 47 484 0
2022-11-26 21:02:59 GMT 46.330929 -3.369164 36,000 47 484 0
2022-11-26 21:02:56 GMT 46.326225 -3.376511 36,000 47 484 0
2022-11-26 21:02:46 GMT 46.310818 -3.400475 36,000 47 485 0
2022-11-26 21:02:36 GMT 46.294945 -3.425194 36,000 47 486 0
2022-11-26 21:02:30 GMT 46.284988 -3.440596 36,000 47 487 0
2022-11-26 21:02:24 GMT 46.276463 -3.453964 36,000 47 487 0
2022-11-26 21:02:19 GMT 46.264023 -3.473220 36,000 47 488 0
2022-11-26 21:02:16 GMT 46.264023 -3.473220 36,000 47 488 0
2022-11-26 21:02:06 GMT 46.242897 -3.506149 36,000 47 488 0
2022-11-26 21:01:56 GMT 46.233353 -3.520917 36,000 47 488 -64
2022-11-26 21:01:52 GMT 46.227070 -3.530663 36,000 47 488 0
2022-11-26 21:01:46 GMT 46.217945 -3.544739 36,000 46 489 0
2022-11-26 21:01:41 GMT 46.210098 -3.556891 36,000 46 489 0
2022-11-26 21:01:36 GMT 46.202545 -3.568547 36,000 46 489 0
2022-11-26 21:01:30 GMT 46.193115 -3.583017 36,000 46 489 0
2022-11-26 21:01:25 GMT 46.186012 -3.594040 36,000 47 490 64
2022-11-26 21:01:19 GMT 46.175354 -3.610483 36,000 46 491 0
2022-11-26 21:01:14 GMT 46.168396 -3.621201 36,000 47 491 0
2022-11-26 21:01:05 GMT 46.155704 -3.640800 36,000 47 491 0
2022-11-26 21:00:56 GMT 46.140717 -3.664009 36,000 47 491 64
2022-11-26 21:00:49 GMT 46.129761 -3.681023 36,000 47 491 64
2022-11-26 21:00:44 GMT 46.121910 -3.693260 36,000 47 491 64
2022-11-26 21:00:34 GMT 46.107197 -3.716057 36,000 47 492 -64
2022-11-26 21:00:27 GMT 46.096397 -3.732811 36,000 46 492 -64
2022-11-26 21:00:23 GMT 46.089569 -3.743323 36,000 46 491 -64
2022-11-26 21:00:16 GMT 46.080246 -3.757668 36,000 46 491 0
2022-11-26 21:00:12 GMT 46.072472 -3.769547 36,000 46 491 64
2022-11-26 21:00:07 GMT 46.064575 -3.781709 36,000 46 491 64
2022-11-26 21:00:04 GMT 46.059902 -3.788841 36,000 46 491 128
2022-11-26 21:00:01 GMT 46.056503 -3.794060 36,000 46 492 64
2022-11-26 20:59:53 GMT 46.043472 -3.814132 36,000 47 493 0
2022-11-26 20:59:42 GMT 46.026989 -3.839516 36,000 47 493 0
2022-11-26 20:59:32 GMT 46.010101 -3.865647 36,000 47 493 -64
2022-11-26 20:59:19 GMT 45.991425 -3.894379 36,000 46 493 0
2022-11-26 20:59:11 GMT 45.978333 -3.914415 36,000 46 493 0
2022-11-26 20:59:06 GMT 45.971172 -3.925415 36,000 46 493 0
2022-11-26 20:59:01 GMT 45.962421 -3.938736 36,000 46 493 0
2022-11-26 20:58:49 GMT 45.943241 -3.967644 36,000 46 493 64
2022-11-26 20:58:39 GMT 45.927795 -3.990784 36,000 46 493 0
2022-11-26 20:58:30 GMT 45.913773 -4.011864 36,000 46 493 0
2022-11-26 20:58:19 GMT 45.896412 -4.037888 36,000 46 493 0
2022-11-26 20:58:09 GMT 45.881287 -4.060520 36,000 46 493 0
2022-11-26 20:57:58 GMT 45.863590 -4.086983 36,000 46 493 0
2022-11-26 20:57:48 GMT 45.848137 -4.110054 36,000 46 493 0
2022-11-26 20:57:38 GMT 45.832031 -4.134142 36,000 46 494 0
2022-11-26 20:57:27 GMT 45.814663 -4.160042 36,000 46 494 0
2022-11-26 20:57:20 GMT 45.802979 -4.177483 36,000 46 494 0
2022-11-26 20:57:17 GMT 45.799164 -4.183178 36,000 46 494 -64
2022-11-26 20:57:07 GMT 45.782452 -4.208176 36,000 46 495 0
2022-11-26 20:56:59 GMT 45.770905 -4.225410 36,000 46 494 0
2022-11-26 20:56:56 GMT 45.765690 -4.233170 36,000 46 494 0
2022-11-26 20:56:46 GMT 45.749397 -4.257477 36,000 46 495 0
2022-11-26 20:56:36 GMT 45.733105 -4.281715 36,000 46 494 -64
2022-11-26 20:56:28 GMT 45.719326 -4.302109 36,000 46 494 64
2022-11-26 20:56:25 GMT 45.716171 -4.306842 36,000 46 494 0
2022-11-26 20:56:19 GMT 45.706787 -4.320708 36,000 46 494 0
2022-11-26 20:56:15 GMT 45.699966 -4.330824 36,000 46 494 0
2022-11-26 20:56:04 GMT 45.683167 -4.355677 36,000 45 495 0
2022-11-26 20:55:53 GMT 45.666023 -4.381004 36,000 45 495 0
2022-11-26 20:55:43 GMT 45.649200 -4.405920 36,000 46 495 0
2022-11-26 20:55:33 GMT 45.633484 -4.429207 36,000 46 495 0
2022-11-26 20:55:21 GMT 45.615509 -4.455760 36,000 45 495 0
2022-11-26 20:55:11 GMT 45.598614 -4.480637 36,000 45 495 0
2022-11-26 20:55:01 GMT 45.583328 -4.503122 36,000 45 495 64
2022-11-26 20:54:51 GMT 45.566448 -4.527946 36,000 45 495 -64
2022-11-26 20:54:41 GMT 45.550507 -4.551354 36,000 45 495 0
2022-11-26 20:54:30 GMT 45.533955 -4.575739 36,000 46 495 0
2022-11-26 20:54:19 GMT 45.516769 -4.601048 36,000 45 495 -64
2022-11-26 20:54:09 GMT 45.500015 -4.625571 36,000 45 496 64
2022-11-26 20:53:58 GMT 45.483261 -4.650160 36,000 45 496 -64
2022-11-26 20:53:48 GMT 45.466595 -4.674415 36,000 45 497 0
2022-11-26 20:53:37 GMT 45.449368 -4.699737 36,000 45 497 0
2022-11-26 20:53:27 GMT 45.433170 -4.723317 36,000 45 496 0
2022-11-26 20:53:14 GMT 45.412537 -4.753418 36,000 45 496 -64
2022-11-26 20:53:06 GMT 45.399124 -4.773036 36,000 45 496 64
2022-11-26 20:52:56 GMT 45.382965 -4.796579 36,000 45 495 0
2022-11-26 20:52:39 GMT 45.355938 -4.835927 36,000 45 495 64
2022-11-26 20:52:32 GMT 45.345043 -4.851737 36,000 45 495 0
2022-11-26 20:52:23 GMT 45.331310 -4.871767 36,000 45 495 0
2022-11-26 20:52:12 GMT 45.312134 -4.899701 36,000 45 496 64
2022-11-26 20:52:04 GMT 45.300430 -4.916709 36,000 45 496 -64
2022-11-26 20:51:53 GMT 45.282028 -4.943521 36,000 45 496 0
2022-11-26 20:51:32 GMT 45.249023 -4.991324 36,000 45 496 0
2022-11-26 20:51:21 GMT 45.231537 -5.016632 36,000 45 495 0
2022-11-26 20:51:12 GMT 45.216293 -5.038605 36,000 45 495 0
2022-11-26 20:50:47 GMT 45.177086 -5.094977 36,000 45 495 0
2022-11-26 20:49:32 GMT 45.055939 -5.269121 36,000 45 497 0
2022-11-26 20:49:28 GMT 45.048981 -5.279061 36,000 45 496 0
2022-11-26 20:48:44 GMT 44.979004 -5.379013 36,000 45 497 0
2022-11-26 20:46:40 GMT 44.776966 -5.665797 36,000 45 495 0
2022-11-26 20:44:53 GMT 44.605797 -5.906491 36,000 45 492 0
2022-11-26 20:44:30 GMT 44.568043 -5.959346 36,000 44 491 -64
2022-11-26 20:43:01 GMT 44.425873 -6.155626 36,000 44 487 0
2022-11-26 20:42:55 GMT 44.416168 -6.168758 36,000 44 487 0
2022-11-26 20:42:46 GMT 44.401665 -6.188451 36,000 44 486 0
2022-11-26 20:42:30 GMT 44.375732 -6.223688 36,000 44 486 64
2022-11-26 20:42:27 GMT 44.371033 -6.230052 36,000 44 486 -64
2022-11-26 20:42:16 GMT 44.351852 -6.256044 36,000 44 485 0
2022-11-26 20:42:05 GMT 44.334274 -6.279733 36,000 44 485 -64
2022-11-26 20:41:57 GMT 44.322151 -6.296037 36,000 44 485 0
2022-11-26 20:41:46 GMT 44.304928 -6.319282 36,000 44 485 -64
2022-11-26 20:41:36 GMT 44.287537 -6.342773 36,000 44 485 0
2022-11-26 20:41:26 GMT 44.271782 -6.364099 36,000 44 485 0
2022-11-26 20:41:16 GMT 44.256729 -6.384561 36,000 44 483 0
2022-11-26 20:41:05 GMT 44.236862 -6.411503 36,000 44 483 64
2022-11-26 20:40:56 GMT 44.224533 -6.428141 36,000 44 483 0
2022-11-26 20:40:44 GMT 44.204819 -6.454729 36,000 44 483 0
2022-11-26 20:40:34 GMT 44.188293 -6.476951 36,000 44 483 -64
2022-11-26 20:40:25 GMT 44.174194 -6.495922 36,000 44 482 64
2022-11-26 20:40:15 GMT 44.158401 -6.517320 36,000 44 481 0
2022-11-26 20:40:06 GMT 44.142242 -6.539037 36,000 44 481 64
2022-11-26 20:39:54 GMT 44.125443 -6.561584 36,000 44 481 0
2022-11-26 20:39:39 GMT 44.100632 -6.594799 36,000 43 481 0
2022-11-26 20:39:29 GMT 44.084599 -6.616189 36,000 43 480 0
2022-11-26 20:39:19 GMT 44.068863 -6.637147 36,000 43 481 0
2022-11-26 20:39:13 GMT 44.059296 -6.650050 36,000 44 481 0
2022-11-26 20:38:58 GMT 44.035717 -6.681519 36,000 43 481 0
2022-11-26 20:38:51 GMT 44.024826 -6.696103 36,000 43 481 0
2022-11-26 20:38:47 GMT 44.016998 -6.706578 36,000 43 481 0
2022-11-26 20:38:31 GMT 43.991959 -6.739916 36,000 43 481 0
2022-11-26 20:38:22 GMT 43.976578 -6.760424 36,000 43 481 0
2022-11-26 20:38:14 GMT 43.963234 -6.778172 36,000 43 481 0
2022-11-26 20:38:03 GMT 43.946709 -6.800210 36,000 43 482 0
2022-11-26 20:37:56 GMT 43.934978 -6.815774 36,000 43 482 0
2022-11-26 20:37:52 GMT 43.928238 -6.824745 36,000 43 482 0
2022-11-26 20:37:45 GMT 43.917755 -6.838662 36,000 43 481 0
2022-11-26 20:37:40 GMT 43.910866 -6.847818 36,000 43 481 0
2022-11-26 20:37:36 GMT 43.901508 -6.860177 36,000 43 481 -64
2022-11-26 20:37:32 GMT 43.896698 -6.866583 36,000 43 483 0
2022-11-26 20:37:25 GMT 43.885437 -6.881465 36,000 43 483 0
2022-11-26 20:37:22 GMT 43.880630 -6.887853 36,000 43 481 0
2022-11-26 20:37:13 GMT 43.864426 -6.909378 36,000 43 482 0
2022-11-26 20:37:05 GMT 43.852814 -6.924722 36,000 43 481 0
2022-11-26 20:37:02 GMT 43.848495 -6.930457 36,000 43 482 0
2022-11-26 20:36:52 GMT 43.832096 -6.952188 36,000 43 482 0
2022-11-26 20:36:42 GMT 43.814987 -6.974785 36,000 43 483 0
2022-11-26 20:36:35 GMT 43.804367 -6.988838 36,000 43 483 0
2022-11-26 20:36:29 GMT 43.795460 -7.000514 36,000 43 482 0
2022-11-26 20:36:24 GMT 43.787384 -7.011130 36,000 43 483 0
2022-11-26 20:36:21 GMT 43.781403 -7.019021 36,000 43 483 0
2022-11-26 20:36:14 GMT 43.771729 -7.031761 36,000 43 483 0
2022-11-26 20:36:10 GMT 43.764782 -7.040928 36,000 43 483 0
2022-11-26 20:36:01 GMT 43.750397 -7.059893 36,000 43 483 0
2022-11-26 20:35:54 GMT 43.738266 -7.075898 36,000 43 484 0
2022-11-26 20:35:49 GMT 43.731354 -7.085096 36,000 43 483 64
2022-11-26 20:35:43 GMT 43.722141 -7.097299 36,000 43 484 64
2022-11-26 20:35:31 GMT 43.700447 -7.125942 36,000 43 485 0
2022-11-26 20:35:28 GMT 43.696518 -7.131085 36,000 43 485 0
2022-11-26 20:35:23 GMT 43.688763 -7.141375 36,000 43 485 -64
2022-11-26 20:35:19 GMT 43.682877 -7.149034 36,000 43 485 0
2022-11-26 20:35:10 GMT 43.667862 -7.168579 36,000 43 485 -64
2022-11-26 20:35:07 GMT 43.662643 -7.175414 36,000 43 485 -64
2022-11-26 20:35:03 GMT 43.656456 -7.183489 36,000 43 485 -64
2022-11-26 20:34:57 GMT 43.646805 -7.195981 36,000 43 485 -64
2022-11-26 20:34:53 GMT 43.639603 -7.205331 36,000 43 485 0
2022-11-26 20:34:50 GMT 43.634399 -7.212141 36,000 43 485 0
2022-11-26 20:34:42 GMT 43.622845 -7.227304 36,000 43 486 0
2022-11-26 20:34:39 GMT 43.616959 -7.234944 36,000 43 486 64
2022-11-26 20:34:30 GMT 43.600548 -7.256535 36,000 43 487 64
2022-11-26 20:34:25 GMT 43.592422 -7.267264 36,000 43 487 64
2022-11-26 20:34:21 GMT 43.587185 -7.274126 36,000 43 487 64
2022-11-26 20:34:18 GMT 43.582485 -7.280339 36,000 43 488 0
2022-11-26 20:34:12 GMT 43.573315 -7.292306 36,000 43 488 0
2022-11-26 20:34:09 GMT 43.568100 -7.299173 36,000 43 488 0
2022-11-26 20:34:02 GMT 43.556442 -7.314340 36,000 43 488 -64
2022-11-26 20:33:59 GMT 43.551224 -7.321174 36,000 43 488 -64
2022-11-26 20:33:52 GMT 43.539890 -7.335924 36,000 43 488 -64
2022-11-26 20:33:48 GMT 43.533791 -7.343772 36,000 43 488 -64
2022-11-26 20:33:42 GMT 43.523117 -7.357646 36,025 43 488 -64
2022-11-26 20:33:39 GMT 43.517220 -7.365287 36,000 43 488 -64
2022-11-26 20:33:31 GMT 43.506371 -7.379347 36,000 43 488 0
2022-11-26 20:33:28 GMT 43.500973 -7.386409 36,000 43 488 0
2022-11-26 20:33:23 GMT 43.493431 -7.396218 36,025 43 488 -64
2022-11-26 20:33:20 GMT 43.487705 -7.403673 36,025 43 488 -64
2022-11-26 20:33:17 GMT 43.482788 -7.410087 36,025 43 488 64
2022-11-26 20:33:13 GMT 43.476856 -7.417733 36,000 43 487 64
2022-11-26 20:33:11 GMT 43.473274 -7.422376 36,000 43 487 128
2022-11-26 20:33:04 GMT 43.462238 -7.436567 36,000 43 487 64
2022-11-26 20:33:01 GMT 43.456512 -7.444004 36,000 43 488 128
2022-11-26 20:32:51 GMT 43.439617 -7.465929 36,000 43 489 128
2022-11-26 20:32:43 GMT 43.426998 -7.482343 36,000 43 488 0
2022-11-26 20:32:38 GMT 43.416805 -7.495553 36,000 43 488 0
2022-11-26 20:32:30 GMT 43.406479 -7.509028 36,000 43 488 0
2022-11-26 20:32:21 GMT 43.389542 -7.530936 36,000 43 488 -64
2022-11-26 20:32:10 GMT 43.373291 -7.552015 36,000 43 489 0
2022-11-26 20:32:06 GMT 43.367043 -7.560098 36,000 43 488 -64
2022-11-26 20:32:00 GMT 43.356033 -7.574307 36,000 43 489 0
2022-11-26 20:31:56 GMT 43.350311 -7.581780 36,000 43 489 0
2022-11-26 20:31:50 GMT 43.339462 -7.595832 36,000 43 488 0
2022-11-26 20:31:47 GMT 43.333740 -7.603306 36,000 43 488 0
2022-11-26 20:31:39 GMT 43.322071 -7.618430 36,000 43 489 0
2022-11-26 20:31:35 GMT 43.315834 -7.626474 36,000 43 489 0
2022-11-26 20:31:29 GMT 43.306431 -7.638637 36,000 43 489 0
2022-11-26 20:31:25 GMT 43.299362 -7.647762 36,000 43 489 0
2022-11-26 20:31:20 GMT 43.288322 -7.661983 36,000 43 489 0
2022-11-26 20:31:14 GMT 43.280594 -7.671988 36,000 43 490 0
2022-11-26 20:31:09 GMT 43.272678 -7.682125 36,000 43 490 0
2022-11-26 20:31:02 GMT 43.255508 -7.704226 36,000 43 490 -64
2022-11-26 20:30:59 GMT 43.255508 -7.704226 36,000 43 489 0
2022-11-26 20:30:55 GMT 43.249100 -7.712530 36,000 43 489 0
2022-11-26 20:30:49 GMT 43.239349 -7.725024 36,000 43 489 0
2022-11-26 20:30:45 GMT 43.231110 -7.735589 36,000 43 489 0
2022-11-26 20:30:38 GMT 43.221424 -7.748108 36,000 43 488 0
2022-11-26 20:30:35 GMT 43.216305 -7.754647 36,000 43 488 64
2022-11-26 20:30:28 GMT 43.205460 -7.768642 36,000 43 488 0
2022-11-26 20:30:24 GMT 43.198334 -7.777732 36,000 43 488 0
2022-11-26 20:30:19 GMT 43.188141 -7.790811 36,000 43 488 0
2022-11-26 20:30:16 GMT 43.185333 -7.794353 36,000 43 488 0
2022-11-26 20:30:06 GMT 43.167801 -7.816645 36,000 42 488 0
2022-11-26 20:30:01 GMT 43.159332 -7.827376 36,000 43 488 -64
2022-11-26 20:29:58 GMT 43.154892 -7.833060 36,000 43 488 -64
2022-11-26 20:29:55 GMT 43.150772 -7.838298 36,000 43 488 0
2022-11-26 20:29:48 GMT 43.138229 -7.854266 36,000 43 488 0
2022-11-26 20:29:45 GMT 43.133789 -7.859951 36,000 43 488 0
2022-11-26 20:29:40 GMT 43.125340 -7.870723 36,000 43 488 0
2022-11-26 20:29:37 GMT 43.121063 -7.876175 36,000 43 488 0
2022-11-26 20:29:33 GMT 43.113842 -7.885437 36,000 43 488 0
2022-11-26 20:29:28 GMT 43.105408 -7.896168 36,000 43 488 0
2022-11-26 20:29:25 GMT 43.099457 -7.903769 36,000 43 488 0
2022-11-26 20:29:20 GMT 43.092224 -7.913031 36,000 43 488 0
2022-11-26 20:29:15 GMT 43.084442 -7.922931 36,000 43 489 0
2022-11-26 20:29:11 GMT 43.078510 -7.930494 36,000 43 489 0
2022-11-26 20:29:07 GMT 43.071388 -7.939519 36,000 43 489 0
2022-11-26 20:29:03 GMT 43.064255 -7.948608 36,000 42 490 0
2022-11-26 20:28:57 GMT 43.054459 -7.961000 36,000 42 490 0
2022-11-26 20:28:54 GMT 43.049835 -7.966919 36,000 42 490 0
2022-11-26 20:28:50 GMT 43.041367 -7.977671 36,000 43 491 0
2022-11-26 20:28:47 GMT 43.038197 -7.981698 36,000 43 491 0
2022-11-26 20:28:43 GMT 43.031399 -7.990330 36,000 43 491 0
2022-11-26 20:28:37 GMT 43.020786 -8.003867 36,000 43 491 0
2022-11-26 20:28:32 GMT 43.013672 -8.012930 36,000 43 491 0
2022-11-26 20:28:28 GMT 43.007538 -8.020722 36,000 43 491 0
2022-11-26 20:28:25 GMT 43.000076 -8.030175 36,000 43 491 64
2022-11-26 20:28:18 GMT 42.990620 -8.042188 36,000 42 490 64
2022-11-26 20:28:14 GMT 42.983822 -8.050820 36,000 43 491 0
2022-11-26 20:28:11 GMT 42.978981 -8.056968 36,000 43 491 0
2022-11-26 20:28:06 GMT 42.969715 -8.068739 36,000 43 491 0
2022-11-26 20:28:03 GMT 42.965378 -8.074249 36,000 43 491 0
2022-11-26 20:27:59 GMT 42.957275 -8.084532 36,000 42 491 0
2022-11-26 20:27:56 GMT 42.953110 -8.089834 36,000 42 491 0
2022-11-26 20:27:51 GMT 42.945137 -8.099932 36,000 42 491 0
2022-11-26 20:27:46 GMT 42.936310 -8.111104 36,000 42 491 0
2022-11-26 20:27:42 GMT 42.929810 -8.119344 36,000 42 491 0
2022-11-26 20:27:38 GMT 42.923630 -8.127136 36,000 42 492 0
2022-11-26 20:27:34 GMT 42.915482 -8.137420 36,000 42 492 0
2022-11-26 20:27:31 GMT 42.911480 -8.142504 36,000 42 492 0
2022-11-26 20:27:28 GMT 42.906315 -8.149043 36,000 42 492 0
2022-11-26 20:27:25 GMT 42.902618 -8.153644 36,000 42 492 0
2022-11-26 20:27:21 GMT 42.895981 -8.162057 36,000 42 492 0
2022-11-26 20:27:17 GMT 42.888931 -8.170954 36,000 42 492 0
2022-11-26 20:27:14 GMT 42.882935 -8.178555 36,000 42 492 0
2022-11-26 20:27:11 GMT 42.878586 -8.183984 36,000 42 493 0
2022-11-26 20:27:08 GMT 42.872421 -8.191812 36,000 42 493 0
2022-11-26 20:27:02 GMT 42.861694 -8.205318 36,000 42 493 -64
2022-11-26 20:26:55 GMT 42.851521 -8.218231 36,000 42 493 0
2022-11-26 20:26:51 GMT 42.844803 -8.226652 36,000 42 493 0
2022-11-26 20:26:48 GMT 42.838814 -8.234253 36,000 42 493 0
2022-11-26 20:26:45 GMT 42.834621 -8.239485 36,000 42 493 0
2022-11-26 20:26:42 GMT 42.830612 -8.244601 36,000 42 493 0
2022-11-26 20:26:39 GMT 42.824940 -8.251713 36,000 42 493 0
2022-11-26 20:26:35 GMT 42.817245 -8.261399 36,000 42 493 0
2022-11-26 20:26:32 GMT 42.808365 -8.272580 36,000 42 493 64
2022-11-26 20:26:24 GMT 42.800499 -8.282478 36,000 42 493 64
2022-11-26 20:26:19 GMT 42.791473 -8.293866 36,000 42 494 0
2022-11-26 20:26:15 GMT 42.784252 -8.302917 36,000 42 494 0
2022-11-26 20:26:10 GMT 42.774857 -8.314715 36,000 42 494 0
2022-11-26 20:26:05 GMT 42.767166 -8.324453 36,000 42 494 0
2022-11-26 20:26:01 GMT 42.761948 -8.330945 36,000 42 494 -64
2022-11-26 20:25:57 GMT 42.755253 -8.339390 36,000 42 494 -64
2022-11-26 20:25:54 GMT 42.749386 -8.346799 36,000 42 494 0
2022-11-26 20:25:50 GMT 42.742310 -8.355602 36,000 42 494 0
2022-11-26 20:25:44 GMT 42.732239 -8.368274 36,000 42 494 0
2022-11-26 20:25:40 GMT 42.725693 -8.376451 36,000 42 494 0
2022-11-26 20:25:36 GMT 42.718826 -8.385128 36,000 42 494 0
2022-11-26 20:25:33 GMT 42.714615 -8.390371 36,000 42 494 0
2022-11-26 20:25:29 GMT 42.708557 -8.397962 36,000 42 494 0
2022-11-26 20:25:23 GMT 42.697632 -8.411657 36,000 42 494 0
2022-11-26 20:25:20 GMT 42.691406 -8.419460 36,000 42 494 0
2022-11-26 20:25:15 GMT 42.684219 -8.428511 36,000 42 494 0
2022-11-26 20:25:11 GMT 42.677322 -8.437181 36,000 42 494 0
2022-11-26 20:25:08 GMT 42.671951 -8.443929 36,000 42 494 64
2022-11-26 20:25:04 GMT 42.664242 -8.453596 36,000 42 494 0
2022-11-26 20:25:00 GMT 42.659679 -8.459281 36,000 42 494 0
2022-11-26 20:24:57 GMT 42.654140 -8.466243 36,000 42 494 0
2022-11-26 20:24:53 GMT 42.646923 -8.475250 36,000 42 493 0
2022-11-26 20:24:48 GMT 42.639221 -8.484879 36,000 42 493 64
2022-11-26 20:24:44 GMT 42.633003 -8.492687 36,000 42 493 64
2022-11-26 20:24:41 GMT 42.624939 -8.502731 36,000 42 493 64
2022-11-26 20:24:38 GMT 42.622604 -8.505665 36,000 42 493 0
2022-11-26 20:24:33 GMT 42.613407 -8.517215 36,000 42 493 0
2022-11-26 20:24:28 GMT 42.605988 -8.526389 36,000 42 493 0
2022-11-26 20:24:23 GMT 42.594738 -8.540465 36,000 42 493 0
2022-11-26 20:24:19 GMT 42.588684 -8.547988 36,000 42 493 0
2022-11-26 20:24:12 GMT 42.577789 -8.561596 36,000 42 494 0
2022-11-26 20:24:08 GMT 42.571564 -8.569336 36,000 42 494 0
2022-11-26 20:24:04 GMT 42.564854 -8.577703 36,000 42 494 0
2022-11-26 20:24:01 GMT 42.559639 -8.584155 36,000 42 494 0
2022-11-26 20:23:58 GMT 42.554752 -8.590223 36,000 42 494 0
2022-11-26 20:23:54 GMT 42.547348 -8.599421 36,000 42 494 0
2022-11-26 20:23:51 GMT 42.541626 -8.606540 36,000 42 494 0
2022-11-26 20:23:47 GMT 42.536922 -8.612387 36,000 42 494 0
2022-11-26 20:23:43 GMT 42.530357 -8.620499 36,000 42 494 0
2022-11-26 20:23:40 GMT 42.523792 -8.628611 36,000 42 494 0
2022-11-26 20:23:37 GMT 42.520256 -8.633018 36,000 42 494 0
2022-11-26 20:23:32 GMT 42.510818 -8.644680 36,000 42 494 0
2022-11-26 20:23:28 GMT 42.502937 -8.654544 36,000 42 494 0
2022-11-26 20:23:22 GMT 42.493999 -8.665594 36,000 42 494 0
2022-11-26 20:23:17 GMT 42.485947 -8.675622 36,000 42 494 0
2022-11-26 20:23:11 GMT 42.476498 -8.687247 36,000 42 494 0
2022-11-26 20:23:07 GMT 42.469116 -8.696428 36,000 42 494 0
2022-11-26 20:23:02 GMT 42.458359 -8.709786 36,000 42 494 0
2022-11-26 20:22:56 GMT 42.451263 -8.718546 36,000 42 494 0
2022-11-26 20:22:51 GMT 42.442017 -8.729949 36,000 42 493 0
2022-11-26 20:22:46 GMT 42.433777 -8.740186 36,000 42 493 0
2022-11-26 20:22:41 GMT 42.425011 -8.750994 36,000 42 493 0
2022-11-26 20:22:37 GMT 42.417435 -8.760348 36,000 42 493 0
2022-11-26 20:22:31 GMT 42.408344 -8.771561 36,000 42 494 0
2022-11-26 20:22:24 GMT 42.397385 -8.785067 36,000 42 494 0
2022-11-26 20:22:20 GMT 42.382927 -8.802987 36,000 42 494 0
2022-11-26 20:22:16 GMT 42.382927 -8.802987 36,000 42 493 0
2022-11-26 20:22:10 GMT 42.372803 -8.815467 36,000 42 494 0
2022-11-26 20:22:06 GMT 42.365887 -8.824002 36,000 42 494 0
2022-11-26 20:22:01 GMT 42.356113 -8.836010 36,000 42 493 0
2022-11-26 20:21:58 GMT 42.351734 -8.841439 36,000 42 494 0
2022-11-26 20:21:55 GMT 42.348522 -8.845399 36,000 42 494 0
2022-11-26 20:21:50 GMT 42.339294 -8.856853 36,000 42 494 0
2022-11-26 20:21:46 GMT 42.331860 -8.865967 36,000 42 494 0
2022-11-26 20:21:40 GMT 42.322586 -8.877390 36,000 42 493 0
2022-11-26 20:21:36 GMT 42.314667 -8.887190 36,000 42 493 0
2022-11-26 20:21:33 GMT 42.310455 -8.892371 36,000 42 493 0
2022-11-26 20:21:30 GMT 42.305416 -8.898606 36,000 42 493 0
2022-11-26 20:21:24 GMT 42.293472 -8.913345 36,000 42 494 0
2022-11-26 20:21:20 GMT 42.288208 -8.919775 36,000 42 494 0
2022-11-26 20:21:16 GMT 42.281162 -8.928436 36,000 42 494 0
2022-11-26 20:21:13 GMT 42.275902 -8.934887 36,000 42 494 0
2022-11-26 20:21:10 GMT 42.271179 -8.940686 36,000 42 494 0
2022-11-26 20:21:05 GMT 42.263100 -8.950664 36,000 42 494 0
2022-11-26 20:21:00 GMT 42.253647 -8.962222 36,000 42 494 0
2022-11-26 20:20:55 GMT 42.246063 -8.971551 36,000 42 494 0
2022-11-26 20:20:50 GMT 42.237125 -8.982537 36,000 42 494 0
2022-11-26 20:20:47 GMT 42.232239 -8.988541 36,000 42 494 0
2022-11-26 20:20:44 GMT 42.229027 -8.992437 36,000 42 494 0
2022-11-26 20:20:41 GMT 42.223438 -8.999272 36,000 42 494 0
2022-11-26 20:20:37 GMT 42.216019 -9.008415 36,000 42 494 0
2022-11-26 20:20:33 GMT 42.207230 -9.019151 36,000 42 494 0
2022-11-26 20:20:28 GMT 42.201839 -9.025780 36,000 42 494 0
2022-11-26 20:20:24 GMT 42.193680 -9.035693 36,000 42 494 0
2022-11-26 20:20:19 GMT 42.185593 -9.045644 36,000 42 494 0
2022-11-26 20:20:16 GMT 42.178982 -9.053692 36,000 42 494 0
2022-11-26 20:20:12 GMT 42.172714 -9.061411 36,000 42 495 0
2022-11-26 20:20:08 GMT 42.167496 -9.067841 36,000 42 495 0
2022-11-26 20:20:05 GMT 42.159531 -9.077578 36,000 42 495 0
2022-11-26 20:20:02 GMT 42.156143 -9.081698 36,000 42 495 0
2022-11-26 20:19:59 GMT 42.150558 -9.088565 36,000 42 495 0
2022-11-26 20:19:56 GMT 42.146347 -9.093746 36,000 42 495 0
2022-11-26 20:19:51 GMT 42.133266 -9.109710 36,000 42 496 0
2022-11-26 20:19:48 GMT 42.133266 -9.109710 36,000 42 496 0
2022-11-26 20:19:44 GMT 42.125492 -9.119227 36,000 42 496 0
2022-11-26 20:19:41 GMT 42.120712 -9.125019 36,000 42 496 0
2022-11-26 20:19:38 GMT 42.116501 -9.130200 36,000 42 496 -64
2022-11-26 20:19:34 GMT 42.108170 -9.140375 36,000 42 495 0
2022-11-26 20:19:31 GMT 42.102402 -9.147396 36,000 42 496 0
2022-11-26 20:19:28 GMT 42.099152 -9.151299 36,000 42 496 0
2022-11-26 20:19:23 GMT 42.091003 -9.161224 36,000 42 496 0
2022-11-26 20:19:20 GMT 42.085373 -9.168091 36,000 42 496 0
2022-11-26 20:19:16 GMT 42.077728 -9.177392 36,000 42 496 0
2022-11-26 20:19:13 GMT 42.073307 -9.182782 36,000 42 496 0
2022-11-26 20:19:10 GMT 42.068512 -9.188531 36,000 42 496 0
2022-11-26 20:19:07 GMT 42.064453 -9.193497 36,000 42 496 0
2022-11-26 20:19:03 GMT 42.054733 -9.205265 36,000 42 496 0
2022-11-26 20:18:58 GMT 42.046921 -9.214783 36,000 42 497 0
2022-11-26 20:18:54 GMT 42.042442 -9.220148 36,000 42 497 0
2022-11-26 20:18:51 GMT 42.034607 -9.229639 36,000 42 497 0
2022-11-26 20:18:47 GMT 42.029343 -9.236069 36,000 42 497 0
2022-11-26 20:18:44 GMT 42.025406 -9.240813 36,000 42 497 0
2022-11-26 20:18:40 GMT 42.017071 -9.250935 36,000 42 497 0
2022-11-26 20:18:37 GMT 42.012650 -9.256301 36,000 42 497 0
2022-11-26 20:18:34 GMT 42.008183 -9.261602 36,000 42 496 0
2022-11-26 20:18:30 GMT 41.999359 -9.272399 36,000 42 496 0
2022-11-26 20:18:27 GMT 41.995102 -9.277517 36,000 42 496 0
2022-11-26 20:18:24 GMT 41.990982 -9.282511 36,000 42 496 0
2022-11-26 20:18:21 GMT 41.984207 -9.290751 36,000 42 496 0
2022-11-26 20:18:18 GMT 41.980621 -9.295072 36,000 42 496 0
2022-11-26 20:18:15 GMT 41.973633 -9.303547 36,000 42 496 0
2022-11-26 20:18:12 GMT 41.969376 -9.308666 36,000 42 496 0
2022-11-26 20:18:09 GMT 41.963791 -9.315532 36,000 42 496 0
2022-11-26 20:18:04 GMT 41.955948 -9.324965 36,000 41 496 0
2022-11-26 20:18:00 GMT 41.947952 -9.334134 36,000 39 493 0
2022-11-26 20:17:57 GMT 41.942459 -9.340189 36,000 38 493 0
2022-11-26 20:17:52 GMT 41.934071 -9.349046 36,000 37 491 0
2022-11-26 20:17:48 GMT 41.928955 -9.354172 36,000 36 490 0
2022-11-26 20:17:44 GMT 41.920303 -9.362536 36,000 34 490 0
2022-11-26 20:17:39 GMT 41.905655 -9.375707 36,000 33 488 0
2022-11-26 20:17:36 GMT 41.905655 -9.375707 36,000 32 488 0
2022-11-26 20:17:33 GMT 41.900692 -9.379897 36,000 31 487 0
2022-11-26 20:17:29 GMT 41.890823 -9.387755 36,000 29 484 0
2022-11-26 20:17:25 GMT 41.885189 -9.392097 36,000 28 484 0
2022-11-26 20:17:21 GMT 41.875580 -9.399241 36,000 28 485 0
2022-11-26 20:17:17 GMT 41.868713 -9.404297 36,000 28 484 0
2022-11-26 20:17:14 GMT 41.861263 -9.409790 36,000 28 484 0
2022-11-26 20:17:09 GMT 41.851456 -9.417031 36,000 28 484 0
2022-11-26 20:17:06 GMT 41.846317 -9.420840 36,000 28 484 0
2022-11-26 20:17:03 GMT 41.841057 -9.424737 36,000 28 484 0
2022-11-26 20:17:00 GMT 41.834381 -9.429640 36,000 28 484 0
2022-11-26 20:16:56 GMT 41.825729 -9.436007 36,000 28 484 0
2022-11-26 20:16:53 GMT 41.822018 -9.438725 36,000 28 484 0
2022-11-26 20:16:48 GMT 41.811031 -9.446837 36,000 28 484 0
2022-11-26 20:16:43 GMT 41.801056 -9.454172 36,000 28 483 0
2022-11-26 20:16:37 GMT 41.791248 -9.461400 36,000 28 483 0
2022-11-26 20:16:33 GMT 41.782196 -9.468030 36,000 28 483 0
2022-11-26 20:16:28 GMT 41.771416 -9.475900 36,000 28 483 0
2022-11-26 20:16:25 GMT 41.766312 -9.479641 36,000 28 483 0
2022-11-26 20:16:22 GMT 41.761002 -9.483511 36,000 28 483 0
2022-11-26 20:16:17 GMT 41.751389 -9.490565 36,000 28 483 0
2022-11-26 20:16:13 GMT 41.742367 -9.497106 36,000 28 483 0
2022-11-26 20:16:05 GMT 41.725891 -9.509166 36,000 28 483 0
2022-11-26 20:16:02 GMT 41.721176 -9.512600 36,000 28 483 0
2022-11-26 20:15:57 GMT 41.711746 -9.519466 36,000 28 483 0
2022-11-26 20:15:54 GMT 41.704880 -9.524460 36,000 28 483 0
2022-11-26 20:15:51 GMT 41.700981 -9.527318 36,000 28 483 0
2022-11-26 20:15:47 GMT 41.691971 -9.533948 36,000 28 483 0
2022-11-26 20:15:44 GMT 41.685665 -9.538496 36,000 28 483 0
2022-11-26 20:15:39 GMT 41.676262 -9.545395 36,000 28 483 0
2022-11-26 20:15:36 GMT 41.670212 -9.549866 36,000 28 483 0
2022-11-26 20:15:32 GMT 41.662159 -9.555742 36,000 28 483 0
2022-11-26 20:15:26 GMT 41.650223 -9.564535 36,000 28 483 0
2022-11-26 20:15:22 GMT 41.642185 -9.570433 36,000 28 482 0
2022-11-26 20:15:16 GMT 41.629105 -9.580014 36,000 28 482 0
2022-11-26 20:15:12 GMT 41.621841 -9.585322 36,000 28 482 0
2022-11-26 20:15:09 GMT 41.615978 -9.589659 36,000 28 482 0
2022-11-26 20:15:05 GMT 41.609528 -9.594373 36,000 28 482 0
2022-11-26 20:15:01 GMT 41.601871 -9.600007 36,000 28 482 0
2022-11-26 20:14:58 GMT 41.596207 -9.604173 36,000 28 482 0
2022-11-26 20:14:54 GMT 41.586823 -9.611040 36,000 28 482 0
2022-11-26 20:14:51 GMT 41.581924 -9.614598 36,000 28 482 0
2022-11-26 20:14:48 GMT 41.576248 -9.618780 36,000 28 482 0
2022-11-26 20:14:45 GMT 41.568649 -9.624398 36,000 28 482 0
2022-11-26 20:14:41 GMT 41.561783 -9.629392 36,000 28 482 0
2022-11-26 20:14:38 GMT 41.556297 -9.633413 36,000 28 482 0
2022-11-26 20:14:35 GMT 41.551411 -9.636990 36,000 28 482 0
2022-11-26 20:14:31 GMT 41.542831 -9.643312 36,000 28 482 0
2022-11-26 20:14:26 GMT 41.531479 -9.651614 36,000 28 482 0
2022-11-26 20:14:23 GMT 41.527588 -9.654486 36,000 28 482 0
2022-11-26 20:14:20 GMT 41.522690 -9.658044 36,000 28 482 0
2022-11-26 20:14:17 GMT 41.515659 -9.663178 36,000 28 482 0
2022-11-26 20:14:14 GMT 41.508816 -9.668160 36,000 28 482 0
2022-11-26 20:14:11 GMT 41.502762 -9.672632 36,000 28 482 0
2022-11-26 20:14:07 GMT 41.496918 -9.676895 36,000 28 482 0
2022-11-26 20:14:03 GMT 41.488098 -9.683299 36,000 28 481 0
2022-11-26 20:14:00 GMT 41.482269 -9.687569 36,000 28 481 0
2022-11-26 20:13:54 GMT 41.471924 -9.695122 36,000 28 481 0
2022-11-26 20:13:50 GMT 41.462906 -9.701614 36,000 28 481 0
2022-11-26 20:13:46 GMT 41.455513 -9.706996 36,000 28 481 0
2022-11-26 20:13:43 GMT 41.447296 -9.712975 36,000 28 481 0
2022-11-26 20:13:40 GMT 41.443409 -9.715810 36,000 28 481 0
2022-11-26 20:13:34 GMT 41.431870 -9.724149 36,000 28 481 0
2022-11-26 20:13:30 GMT 41.423492 -9.730266 36,000 28 481 0
2022-11-26 20:13:26 GMT 41.416672 -9.735260 36,000 28 481 0
2022-11-26 20:13:22 GMT 41.407288 -9.742064 36,000 28 481 0
2022-11-26 20:13:17 GMT 41.397182 -9.749408 36,000 28 480 0
2022-11-26 20:13:14 GMT 41.392296 -9.752985 36,000 28 480 0
2022-11-26 20:13:10 GMT 41.383713 -9.759216 36,000 28 480 0
2022-11-26 20:13:03 GMT 41.372406 -9.767395 36,000 28 480 0
2022-11-26 20:12:59 GMT 41.363804 -9.773587 36,000 28 480 0
2022-11-26 20:12:56 GMT 41.357574 -9.778076 36,000 28 480 0
2022-11-26 20:12:53 GMT 41.351944 -9.782166 36,000 28 480 0
2022-11-26 20:12:49 GMT 41.344116 -9.787842 36,000 28 480 0
2022-11-26 20:12:44 GMT 41.332443 -9.796265 36,000 28 480 0
2022-11-26 20:12:41 GMT 41.328705 -9.798931 36,000 28 480 0
2022-11-26 20:12:38 GMT 41.323654 -9.802612 36,000 28 480 0
2022-11-26 20:12:34 GMT 41.314682 -9.809082 36,000 28 480 0
2022-11-26 20:12:31 GMT 41.308640 -9.813416 36,000 28 479 0
2022-11-26 20:12:28 GMT 41.303787 -9.816895 36,000 28 479 0
2022-11-26 20:12:24 GMT 41.294815 -9.823400 36,000 28 479 0
2022-11-26 20:12:21 GMT 41.289368 -9.827332 36,000 28 479 0
2022-11-26 20:12:18 GMT 41.283691 -9.831421 36,000 28 479 0
2022-11-26 20:12:15 GMT 41.277649 -9.835754 36,000 28 479 0
2022-11-26 20:12:11 GMT 41.270096 -9.841248 36,000 28 479 0
2022-11-26 20:12:07 GMT 41.263252 -9.846184 36,000 28 479 0
2022-11-26 20:12:01 GMT 41.249817 -9.855896 36,000 28 479 0
2022-11-26 20:11:58 GMT 41.243042 -9.860779 36,000 28 479 0
2022-11-26 20:11:55 GMT 41.238579 -9.864037 36,000 28 479 0
2022-11-26 20:11:51 GMT 41.229595 -9.870467 36,000 28 478 0
2022-11-26 20:11:47 GMT 41.223404 -9.874939 36,000 28 478 0
2022-11-26 20:11:44 GMT 41.216995 -9.879578 36,000 28 478 0
2022-11-26 20:11:40 GMT 41.209808 -9.884766 36,000 28 478 0
2022-11-26 20:11:37 GMT 41.203354 -9.889404 36,000 28 478 0
2022-11-26 20:11:34 GMT 41.198730 -9.892752 36,000 28 478 0
2022-11-26 20:11:30 GMT 41.190536 -9.898682 36,000 28 478 0
2022-11-26 20:11:27 GMT 41.183945 -9.903442 36,000 28 478 0
2022-11-26 20:11:24 GMT 41.179276 -9.906799 36,000 28 478 0
2022-11-26 20:11:21 GMT 41.173645 -9.910889 36,000 28 478 0
2022-11-26 20:11:17 GMT 41.164307 -9.917603 36,000 28 478 0
2022-11-26 20:11:14 GMT 41.159454 -9.921143 36,000 28 478 0
2022-11-26 20:11:11 GMT 41.153641 -9.925354 36,000 28 478 0
2022-11-26 20:11:07 GMT 41.143936 -9.932312 36,000 28 478 0
2022-11-26 20:11:02 GMT 41.134209 -9.939319 36,000 28 478 0
2022-11-26 20:10:57 GMT 41.126247 -9.945061 36,000 28 478 0
2022-11-26 20:10:54 GMT 41.119869 -9.949681 36,000 28 477 0
2022-11-26 20:10:50 GMT 41.111305 -9.955860 36,000 28 477 0
2022-11-26 20:10:46 GMT 41.103149 -9.961670 36,000 28 477 0
2022-11-26 20:10:42 GMT 41.092255 -9.969482 36,000 28 477 0
2022-11-26 20:10:39 GMT 41.092255 -9.969482 36,000 28 477 0
2022-11-26 20:10:34 GMT 41.080441 -9.978020 36,000 28 477 0
2022-11-26 20:10:29 GMT 41.072250 -9.983887 36,000 28 477 0
2022-11-26 20:10:23 GMT 41.060425 -9.992378 36,000 28 478 0
2022-11-26 20:10:19 GMT 41.052090 -9.998370 36,000 28 477 0
2022-11-26 20:10:14 GMT 41.043320 -10.004639 36,000 28 477 0
2022-11-26 20:10:11 GMT 41.034775 -10.010792 36,000 28 477 0
2022-11-26 20:10:08 GMT 41.031097 -10.013414 36,000 28 477 0
2022-11-26 20:10:02 GMT 41.017685 -10.023071 36,000 28 477 0
2022-11-26 20:09:58 GMT 41.012650 -10.026672 36,000 28 477 0
2022-11-26 20:09:53 GMT 41.001389 -10.034729 36,000 28 477 0
2022-11-26 20:09:49 GMT 40.993622 -10.040255 36,000 28 477 0
2022-11-26 20:09:43 GMT 40.981750 -10.048767 36,000 28 477 0
2022-11-26 20:09:39 GMT 40.973602 -10.054550 36,000 28 476 0
2022-11-26 20:09:34 GMT 40.964664 -10.060917 36,000 28 476 0
2022-11-26 20:09:31 GMT 40.958660 -10.065162 36,000 28 476 0
2022-11-26 20:09:28 GMT 40.953030 -10.069157 36,000 28 476 0
2022-11-26 20:09:21 GMT 40.940781 -10.077881 36,000 28 476 0
2022-11-26 20:09:18 GMT 40.933804 -10.082827 36,000 28 476 0
2022-11-26 20:09:15 GMT 40.928169 -10.086823 36,000 28 476 0
2022-11-26 20:09:11 GMT 40.921001 -10.091941 36,000 28 477 0
2022-11-26 20:09:08 GMT 40.914368 -10.096619 36,000 28 477 0
2022-11-26 20:09:02 GMT 40.902145 -10.105362 36,000 28 476 0
2022-11-26 20:08:59 GMT 40.896515 -10.109357 36,000 28 476 0
2022-11-26 20:08:53 GMT 40.884876 -10.117659 36,000 28 476 0
2022-11-26 20:08:49 GMT 40.876740 -10.123474 36,000 28 476 0
2022-11-26 20:08:46 GMT 40.872665 -10.126343 36,000 28 476 0
2022-11-26 20:08:42 GMT 40.863007 -10.133240 36,000 28 476 0
2022-11-26 20:08:38 GMT 40.854851 -10.139070 36,000 28 476 0
2022-11-26 20:08:33 GMT 40.845520 -10.145691 36,000 28 476 0
2022-11-26 20:08:30 GMT 40.841675 -10.148496 36,000 28 476 0
2022-11-26 20:08:27 GMT 40.835449 -10.152893 36,000 28 476 0
2022-11-26 20:08:24 GMT 40.829819 -10.156921 36,000 28 476 0
2022-11-26 20:08:20 GMT 40.820911 -10.163290 36,000 28 477 0
2022-11-26 20:08:17 GMT 40.815857 -10.166870 36,000 28 477 0
2022-11-26 20:08:14 GMT 40.809647 -10.171280 36,000 28 477 0
2022-11-26 20:08:10 GMT 40.802849 -10.176149 36,000 28 477 0
2022-11-26 20:08:07 GMT 40.796265 -10.180847 36,000 28 477 0
2022-11-26 20:08:04 GMT 40.790421 -10.185013 36,000 28 477 0
2022-11-26 20:07:59 GMT 40.781296 -10.191528 36,000 28 477 0
2022-11-26 20:07:54 GMT 40.771614 -10.198434 36,000 28 477 0
2022-11-26 20:07:51 GMT 40.763233 -10.204426 36,000 28 477 0
2022-11-26 20:07:47 GMT 40.758224 -10.208008 36,000 28 477 0
2022-11-26 20:07:44 GMT 40.751816 -10.212585 36,000 28 477 0
2022-11-26 20:07:40 GMT 40.743637 -10.218409 36,000 28 477 0
2022-11-26 20:07:37 GMT 40.735657 -10.224060 36,000 28 477 0
2022-11-26 20:07:33 GMT 40.731171 -10.227234 36,000 28 478 0
2022-11-26 20:07:30 GMT 40.724396 -10.232117 36,000 28 478 0
2022-11-26 20:07:27 GMT 40.717987 -10.236633 36,000 28 478 0
2022-11-26 20:07:24 GMT 40.712120 -10.240818 36,000 28 478 0
2022-11-26 20:07:21 GMT 40.706863 -10.244568 36,000 28 478 0
2022-11-26 20:07:17 GMT 40.698898 -10.250183 36,000 28 478 0
2022-11-26 20:07:14 GMT 40.690891 -10.255862 36,000 28 478 0
2022-11-26 20:07:10 GMT 40.684887 -10.260169 36,000 28 479 0
2022-11-26 20:07:07 GMT 40.679207 -10.264164 36,000 28 479 0
2022-11-26 20:07:00 GMT 40.658352 -10.278896 36,000 28 479 0
2022-11-26 20:06:56 GMT 40.658352 -10.278896 36,000 28 479 0
2022-11-26 20:06:51 GMT 40.645828 -10.287698 36,000 28 479 0
2022-11-26 20:06:47 GMT 40.639404 -10.292192 36,000 28 480 0
2022-11-26 20:06:41 GMT 40.628838 -10.299683 36,000 28 480 0
2022-11-26 20:06:38 GMT 40.623001 -10.303772 36,000 28 480 0
2022-11-26 20:06:35 GMT 40.618084 -10.307236 36,000 28 480 0
2022-11-26 20:06:32 GMT 40.612453 -10.311231 36,000 28 480 0
2022-11-26 20:06:29 GMT 40.605377 -10.316223 36,000 28 480 0
2022-11-26 20:06:26 GMT 40.599335 -10.320496 36,000 28 480 0
2022-11-26 20:06:21 GMT 40.588760 -10.327942 36,000 28 480 0
2022-11-26 20:06:17 GMT 40.570358 -10.340881 36,000 28 481 0
2022-11-26 20:06:12 GMT 40.563526 -10.345750 36,000 28 481 0
2022-11-26 20:06:09 GMT 40.563526 -10.345750 36,000 28 481 0
2022-11-26 20:06:05 GMT 40.558594 -10.349182 36,000 28 481 0
2022-11-26 20:06:01 GMT 40.550583 -10.354864 36,000 28 481 0
2022-11-26 20:05:57 GMT 40.534897 -10.365913 36,000 28 481 0
2022-11-26 20:05:51 GMT 40.529217 -10.369908 36,000 28 481 0
2022-11-26 20:05:48 GMT 40.523537 -10.373903 36,000 28 481 0
2022-11-26 20:05:45 GMT 40.518402 -10.377502 36,000 28 481 0
2022-11-26 20:05:42 GMT 40.513527 -10.380956 36,000 28 481 0
2022-11-26 20:05:36 GMT 40.492905 -10.395447 36,000 28 481 0
2022-11-26 20:05:32 GMT 40.483875 -10.401806 36,000 28 482 0
2022-11-26 20:05:27 GMT 40.478195 -10.405801 36,000 28 482 0
2022-11-26 20:05:24 GMT 40.478195 -10.405801 36,000 28 482 0
2022-11-26 20:05:20 GMT 40.467583 -10.413229 36,000 28 481 0
2022-11-26 20:05:16 GMT 40.461903 -10.417224 36,000 28 481 0
2022-11-26 20:05:12 GMT 40.453033 -10.423401 36,000 28 481 0
2022-11-26 20:05:06 GMT 40.443008 -10.430481 36,000 28 482 0
2022-11-26 20:04:59 GMT 40.427490 -10.441345 36,000 28 482 0
2022-11-26 20:04:55 GMT 40.422180 -10.445068 36,000 28 482 0
2022-11-26 20:04:50 GMT 40.410370 -10.453308 36,000 28 482 0
2022-11-26 20:04:45 GMT 40.402500 -10.458860 36,000 28 482 0
2022-11-26 20:04:41 GMT 40.392883 -10.465576 36,000 28 482 0
2022-11-26 20:04:37 GMT 40.384781 -10.471252 36,000 28 482 0
2022-11-26 20:04:33 GMT 40.378109 -10.475901 36,000 28 481 0
2022-11-26 20:04:29 GMT 40.369263 -10.482081 36,000 28 481 0
2022-11-26 20:04:24 GMT 40.358650 -10.489509 36,000 28 481 0
2022-11-26 20:04:19 GMT 40.350769 -10.494995 36,000 28 481 0
2022-11-26 20:04:16 GMT 40.343491 -10.500122 36,000 28 481 0
2022-11-26 20:04:12 GMT 40.336025 -10.505302 36,000 28 481 0
2022-11-26 20:04:09 GMT 40.328342 -10.510670 36,000 28 482 0
2022-11-26 20:04:04 GMT 40.319916 -10.516602 36,000 28 482 0
2022-11-26 20:03:59 GMT 40.310669 -10.523071 36,000 28 482 0
2022-11-26 20:03:56 GMT 40.304581 -10.527344 36,000 28 481 0
2022-11-26 20:03:52 GMT 40.296314 -10.533142 36,000 28 482 0
2022-11-26 20:03:49 GMT 40.289246 -10.538086 36,000 28 482 0
2022-11-26 20:03:44 GMT 40.279232 -10.545065 36,000 28 481 0
2022-11-26 20:03:39 GMT 40.271759 -10.550293 36,000 28 481 0
2022-11-26 20:03:33 GMT 40.259537 -10.558777 36,000 28 481 0
2022-11-26 20:03:29 GMT 40.251301 -10.564541 36,000 28 481 0
2022-11-26 20:03:24 GMT 40.242268 -10.570845 36,000 28 481 0
2022-11-26 20:03:19 GMT 40.231247 -10.578552 36,000 28 481 0
2022-11-26 20:03:15 GMT 40.224205 -10.583454 36,000 28 481 0
2022-11-26 20:03:12 GMT 40.217880 -10.587830 36,000 28 481 0
2022-11-26 20:03:08 GMT 40.209641 -10.593567 36,000 28 481 0
2022-11-26 20:03:03 GMT 40.201584 -10.599182 36,000 28 481 0
2022-11-26 20:02:59 GMT 40.191010 -10.606567 36,000 28 481 0
2022-11-26 20:02:53 GMT 40.170410 -10.620911 36,000 28 481 0
2022-11-26 20:02:48 GMT 40.170410 -10.620911 36,000 28 480 0
2022-11-26 20:02:43 GMT 40.161942 -10.626770 36,000 28 480 0
2022-11-26 20:02:38 GMT 40.142120 -10.640564 36,000 28 480 0
2022-11-26 20:02:33 GMT 40.142120 -10.640564 36,000 28 480 0
2022-11-26 20:02:28 GMT 40.131706 -10.647812 36,000 28 480 0
2022-11-26 20:02:22 GMT 40.119736 -10.656128 36,000 28 480 0
2022-11-26 20:02:18 GMT 40.112293 -10.661295 36,000 28 480 0
2022-11-26 20:02:12 GMT 40.098934 -10.670534 36,000 28 480 0
2022-11-26 20:02:08 GMT 40.091858 -10.675476 36,000 28 480 0
2022-11-26 20:02:00 GMT 40.078537 -10.684692 36,000 27 480 0
2022-11-26 20:01:57 GMT 40.071049 -10.689885 36,000 28 481 0
2022-11-26 20:01:52 GMT 40.051620 -10.703308 36,000 28 480 0
2022-11-26 20:01:47 GMT 40.051620 -10.703308 36,000 28 480 0
2022-11-26 20:01:42 GMT 40.031620 -10.717163 36,000 28 480 0
2022-11-26 20:01:38 GMT 40.031620 -10.717163 36,000 27 480 0
2022-11-26 20:01:32 GMT 40.008636 -10.733032 36,000 28 480 0
2022-11-26 20:01:25 GMT 40.008636 -10.733032 36,000 27 480 0
2022-11-26 20:01:21 GMT 40.000801 -10.738449 36,000 28 480 0
2022-11-26 20:01:16 GMT 39.991165 -10.745066 36,000 28 480 0
2022-11-26 20:01:11 GMT 39.982182 -10.751308 36,000 28 480 0
2022-11-26 20:01:07 GMT 39.973160 -10.757568 36,000 28 480 0
2022-11-26 20:01:01 GMT 39.953522 -10.771118 36,000 27 480 0
2022-11-26 20:00:57 GMT 39.953522 -10.771118 36,000 27 480 0
2022-11-26 20:00:51 GMT 39.941940 -10.779114 36,000 27 480 0
2022-11-26 20:00:47 GMT 39.933113 -10.785203 36,000 27 480 0
2022-11-26 20:00:41 GMT 39.922165 -10.792754 36,000 28 479 0
2022-11-26 20:00:37 GMT 39.912781 -10.799262 36,000 28 479 0
2022-11-26 20:00:31 GMT 39.902576 -10.806335 36,000 28 479 0
2022-11-26 20:00:27 GMT 39.892799 -10.813049 36,000 28 479 0
2022-11-26 20:00:23 GMT 39.886551 -10.817354 36,000 28 479 0
2022-11-26 20:00:20 GMT 39.882233 -10.820374 36,000 28 479 0
2022-11-26 20:00:15 GMT 39.869522 -10.829116 36,000 28 479 0
2022-11-26 20:00:10 GMT 39.862656 -10.833833 36,000 28 479 0
2022-11-26 20:00:05 GMT 39.850716 -10.842041 36,000 28 479 0
2022-11-26 19:59:58 GMT 39.837822 -10.850952 36,000 28 479 0
2022-11-26 19:59:55 GMT 39.831772 -10.855164 36,000 28 479 0
2022-11-26 19:59:50 GMT 39.822372 -10.861597 36,000 28 479 0
2022-11-26 19:59:45 GMT 39.812210 -10.868643 36,000 28 479 0
2022-11-26 19:59:40 GMT 39.802860 -10.875122 36,000 27 478 0
2022-11-26 19:59:35 GMT 39.792294 -10.882385 36,000 27 478 0
2022-11-26 19:59:29 GMT 39.782333 -10.889221 36,000 27 478 0
2022-11-26 19:59:25 GMT 39.773346 -10.895386 36,000 27 477 0
2022-11-26 19:59:19 GMT 39.763184 -10.902378 36,000 27 477 0
2022-11-26 19:59:15 GMT 39.752609 -10.909663 36,000 28 478 0
2022-11-26 19:59:12 GMT 39.746567 -10.913842 36,000 28 478 0
2022-11-26 19:59:09 GMT 39.742676 -10.916529 36,000 28 478 0
2022-11-26 19:59:05 GMT 39.733082 -10.923096 36,000 27 477 0
2022-11-26 19:59:01 GMT 39.726471 -10.927695 36,000 27 477 0
2022-11-26 19:58:58 GMT 39.721767 -10.930908 36,000 27 477 0
2022-11-26 19:58:55 GMT 39.713760 -10.936401 36,000 27 477 0
2022-11-26 19:58:49 GMT 39.702820 -10.943909 36,000 27 477 0
2022-11-26 19:58:44 GMT 39.693466 -10.950384 36,000 27 477 0
2022-11-26 19:58:39 GMT 39.683502 -10.957153 36,000 27 477 0
2022-11-26 19:58:34 GMT 39.673737 -10.963878 36,000 27 477 0
2022-11-26 19:58:31 GMT 39.665905 -10.969177 36,000 27 477 0
2022-11-26 19:58:28 GMT 39.662796 -10.971341 36,000 27 477 0
2022-11-26 19:58:20 GMT 39.646591 -10.982387 36,000 27 477 0
2022-11-26 19:58:17 GMT 39.642071 -10.985474 36,000 27 477 0
2022-11-26 19:58:14 GMT 39.634853 -10.990417 36,000 27 477 0
2022-11-26 19:58:10 GMT 39.627640 -10.995361 36,000 27 477 0
2022-11-26 19:58:07 GMT 39.622559 -10.998807 36,000 27 477 0
2022-11-26 19:58:04 GMT 39.614960 -11.004002 36,000 27 477 0
2022-11-26 19:57:58 GMT 39.604019 -11.011465 36,000 27 477 0
2022-11-26 19:57:53 GMT 39.593674 -11.018571 36,000 27 477 0
2022-11-26 19:57:48 GMT 39.583508 -11.025452 36,000 27 477 0
2022-11-26 19:57:43 GMT 39.574905 -11.031348 36,000 27 477 0
2022-11-26 19:57:37 GMT 39.563187 -11.039349 36,000 27 477 0
2022-11-26 19:57:34 GMT 39.556183 -11.044128 36,000 27 477 0
2022-11-26 19:57:30 GMT 39.547756 -11.049866 36,000 27 477 0
2022-11-26 19:57:27 GMT 39.543869 -11.052485 36,000 27 477 0
2022-11-26 19:57:24 GMT 39.536072 -11.057800 36,000 27 477 0
2022-11-26 19:57:18 GMT 39.525501 -11.065002 36,000 27 477 0
2022-11-26 19:57:07 GMT 39.504463 -11.079346 36,000 27 477 0
2022-11-26 19:57:03 GMT 39.494873 -11.085876 36,000 27 476 0
2022-11-26 19:56:57 GMT 39.484352 -11.093079 36,000 27 476 0
2022-11-26 19:56:52 GMT 39.474609 -11.099714 36,000 27 475 0
2022-11-26 19:56:46 GMT 39.463715 -11.107118 36,000 27 475 0
2022-11-26 19:56:42 GMT 39.454742 -11.113208 36,000 27 475 0
2022-11-26 19:56:36 GMT 39.445015 -11.119873 36,000 27 475 0
2022-11-26 19:56:32 GMT 39.435658 -11.126221 36,000 27 475 0
2022-11-26 19:56:29 GMT 39.428650 -11.131001 36,000 27 475 0
2022-11-26 19:56:26 GMT 39.424988 -11.133509 36,000 27 475 0
2022-11-26 19:56:16 GMT 39.404526 -11.147361 36,000 27 475 0
2022-11-26 19:56:10 GMT 39.392223 -11.155701 36,000 27 475 0
2022-11-26 19:56:06 GMT 39.384842 -11.160676 36,000 27 475 0
2022-11-26 19:56:03 GMT 39.377468 -11.165710 36,000 27 475 0
2022-11-26 19:55:56 GMT 39.365364 -11.173889 36,000 27 475 0
2022-11-26 19:55:52 GMT 39.357193 -11.179425 36,000 27 475 0
2022-11-26 19:55:48 GMT 39.344368 -11.188049 36,000 27 475 0
2022-11-26 19:55:42 GMT 39.336548 -11.193337 36,000 27 475 0
2022-11-26 19:55:35 GMT 39.325653 -11.200681 36,000 27 475 0
2022-11-26 19:55:32 GMT 39.318832 -11.205278 36,000 27 475 0
2022-11-26 19:55:27 GMT 39.308521 -11.212158 36,000 27 474 0
2022-11-26 19:55:22 GMT 39.298981 -11.218567 36,000 27 474 0
2022-11-26 19:55:15 GMT 39.285946 -11.227356 36,000 27 474 0
2022-11-26 19:55:12 GMT 39.280312 -11.231140 36,000 27 474 0
2022-11-26 19:55:09 GMT 39.273098 -11.235962 36,000 27 474 0
2022-11-26 19:55:05 GMT 39.266674 -11.240234 36,000 27 473 0
2022-11-26 19:55:01 GMT 39.259689 -11.244925 36,000 27 473 0
2022-11-26 19:54:56 GMT 39.250195 -11.251343 36,000 27 474 0
2022-11-26 19:54:51 GMT 39.238136 -11.259460 36,000 27 474 64
2022-11-26 19:54:46 GMT 39.229980 -11.264927 36,000 27 474 0
2022-11-26 19:54:42 GMT 39.220825 -11.271077 36,000 27 474 0
2022-11-26 19:54:34 GMT 39.205688 -11.281311 36,000 27 474 -64
2022-11-26 19:54:31 GMT 39.200058 -11.285095 36,000 27 474 0
2022-11-26 19:54:25 GMT 39.189770 -11.292053 36,000 27 474 0
2022-11-26 19:54:21 GMT 39.180458 -11.298340 36,000 27 473 0
2022-11-26 19:54:15 GMT 39.169785 -11.305469 36,000 27 473 0
2022-11-26 19:54:11 GMT 39.160675 -11.311619 36,000 27 473 0
2022-11-26 19:54:03 GMT 39.147034 -11.320695 36,000 27 473 0
2022-11-26 19:54:00 GMT 39.141216 -11.324585 36,000 27 473 0
2022-11-26 19:53:56 GMT 39.130741 -11.331665 36,000 27 473 0
2022-11-26 19:53:51 GMT 39.121429 -11.337891 36,000 27 473 0
2022-11-26 19:53:42 GMT 39.105511 -11.348572 36,000 27 473 0
2022-11-26 19:53:39 GMT 39.100250 -11.352112 36,000 27 473 0
2022-11-26 19:53:34 GMT 39.090752 -11.358459 36,000 27 473 0
2022-11-26 19:53:30 GMT 39.079651 -11.365894 36,000 27 473 0
2022-11-26 19:53:26 GMT 39.066265 -11.374878 36,000 27 473 0
2022-11-26 19:53:22 GMT 39.066265 -11.374878 36,000 27 473 0
2022-11-26 19:53:15 GMT 39.052872 -11.383806 36,000 27 473 0
2022-11-26 19:53:12 GMT 39.047832 -11.387207 36,000 27 473 0
2022-11-26 19:53:09 GMT 39.041824 -11.391235 36,000 27 473 0
2022-11-26 19:53:05 GMT 39.033829 -11.396524 36,000 27 473 0
2022-11-26 19:52:59 GMT 39.021252 -11.404968 36,000 27 472 0
2022-11-26 19:52:52 GMT 39.008076 -11.413818 36,000 27 473 0
2022-11-26 19:52:49 GMT 39.001831 -11.417959 36,000 27 473 0
2022-11-26 19:52:45 GMT 38.994480 -11.422913 36,000 27 473 0
2022-11-26 19:52:40 GMT 38.983841 -11.430080 36,000 27 472 0
2022-11-26 19:52:32 GMT 38.968925 -11.440063 36,000 27 472 0
2022-11-26 19:52:29 GMT 38.964249 -11.443156 36,000 27 472 0
2022-11-26 19:52:24 GMT 38.951477 -11.451754 36,000 27 472 0
2022-11-26 19:52:19 GMT 38.943741 -11.456909 36,000 27 472 0
2022-11-26 19:52:14 GMT 38.933853 -11.463517 36,000 27 471 0
2022-11-26 19:52:09 GMT 38.925934 -11.468831 36,000 27 471 0
2022-11-26 19:52:04 GMT 38.914879 -11.476196 36,000 27 471 0
2022-11-26 19:51:59 GMT 38.905243 -11.482683 36,000 27 471 0
2022-11-26 19:51:53 GMT 38.893417 -11.490601 36,000 27 471 0
2022-11-26 19:51:49 GMT 38.885284 -11.495998 36,000 27 471 0
2022-11-26 19:51:44 GMT 38.873703 -11.503760 36,000 27 471 0
2022-11-26 19:51:39 GMT 38.865967 -11.508955 36,000 27 471 0
2022-11-26 19:51:33 GMT 38.854919 -11.516296 36,000 27 471 0
2022-11-26 19:51:29 GMT 38.847198 -11.521494 36,000 27 471 0
2022-11-26 19:51:23 GMT 38.834667 -11.529907 36,000 27 471 0
2022-11-26 19:51:18 GMT 38.826370 -11.535525 36,000 27 471 0
2022-11-26 19:51:12 GMT 38.814789 -11.543287 36,000 27 471 0
2022-11-26 19:51:08 GMT 38.808228 -11.547668 36,000 27 471 0
2022-11-26 19:51:02 GMT 38.796478 -11.555587 36,000 27 471 0
2022-11-26 19:50:59 GMT 38.788395 -11.561035 36,000 27 471 0
2022-11-26 19:50:50 GMT 38.772400 -11.571708 36,000 27 469 0
2022-11-26 19:50:47 GMT 38.766048 -11.575989 36,000 27 469 0
2022-11-26 19:50:38 GMT 38.748505 -11.587710 36,000 27 469 0
2022-11-26 19:50:31 GMT 38.735825 -11.596129 36,000 27 470 0
2022-11-26 19:50:28 GMT 38.729462 -11.600368 36,000 27 470 0
2022-11-26 19:50:19 GMT 38.713074 -11.611235 36,000 27 469 0
2022-11-26 19:50:08 GMT 38.692825 -11.624573 36,000 27 469 0
2022-11-26 19:50:05 GMT 38.684910 -11.629822 36,000 27 469 0
2022-11-26 19:50:01 GMT 38.677963 -11.634342 36,000 27 469 0
2022-11-26 19:49:58 GMT 38.672153 -11.638184 36,000 27 469 0
2022-11-26 19:49:54 GMT 38.663681 -11.643776 36,000 27 469 0
2022-11-26 19:49:51 GMT 38.659817 -11.646301 36,000 27 469 0
2022-11-26 19:49:48 GMT 38.653069 -11.650757 36,000 27 469 0
2022-11-26 19:49:42 GMT 38.639374 -11.659838 36,000 27 469 0
2022-11-26 19:49:37 GMT 38.632866 -11.664185 36,000 27 469 0
2022-11-26 19:49:31 GMT 38.620331 -11.672496 36,000 27 469 0
2022-11-26 19:49:27 GMT 38.613190 -11.677213 36,000 27 468 0
2022-11-26 19:49:24 GMT 38.607239 -11.681154 36,000 27 468 0
2022-11-26 19:49:21 GMT 38.600697 -11.685486 36,000 27 468 0
2022-11-26 19:49:18 GMT 38.595112 -11.689209 36,000 27 468 0
2022-11-26 19:49:15 GMT 38.590118 -11.692498 36,000 27 468 0
2022-11-26 19:49:11 GMT 38.581467 -11.698230 36,000 27 468 0
2022-11-26 19:49:06 GMT 38.571835 -11.704590 36,000 27 468 0
2022-11-26 19:49:00 GMT 38.561455 -11.711487 36,000 27 468 0
2022-11-26 19:48:55 GMT 38.551071 -11.718323 36,000 27 468 0
2022-11-26 19:48:49 GMT 38.538780 -11.726440 36,000 27 468 0
2022-11-26 19:48:46 GMT 38.533356 -11.729995 36,000 27 467 0
2022-11-26 19:48:41 GMT 38.522964 -11.736802 36,000 27 467 0
2022-11-26 19:48:35 GMT 38.512939 -11.743370 36,000 27 467 0
2022-11-26 19:48:26 GMT 38.493118 -11.756386 36,000 27 467 0
2022-11-26 19:48:16 GMT 38.474262 -11.768738 36,000 27 468 0
2022-11-26 19:48:09 GMT 38.463272 -11.775970 36,000 27 468 0
2022-11-26 19:48:05 GMT 38.455399 -11.781165 36,000 27 468 0
2022-11-26 19:47:59 GMT 38.443085 -11.789226 36,000 27 468 0
2022-11-26 19:47:56 GMT 38.436722 -11.793405 36,000 27 468 0
2022-11-26 19:47:50 GMT 38.424171 -11.801575 36,000 27 468 0
2022-11-26 19:47:46 GMT 38.417404 -11.806004 36,000 27 468 0
2022-11-26 19:47:39 GMT 38.404900 -11.814184 36,000 27 468 0
2022-11-26 19:47:36 GMT 38.397774 -11.818841 36,000 27 468 0
2022-11-26 19:47:29 GMT 38.385441 -11.826961 36,000 27 468 0
2022-11-26 19:47:26 GMT 38.379272 -11.830990 36,000 27 469 0
2022-11-26 19:47:16 GMT 38.360550 -11.843203 36,000 27 469 0
2022-11-26 19:47:08 GMT 38.345306 -11.853196 36,000 27 468 0
2022-11-26 19:47:05 GMT 38.338795 -11.857472 36,000 27 468 0
2022-11-26 19:46:58 GMT 38.325485 -11.866228 36,000 27 468 0
2022-11-26 19:46:55 GMT 38.320679 -11.869383 36,000 27 468 0
2022-11-26 19:46:49 GMT 38.307369 -11.878072 36,000 27 468 0
2022-11-26 19:46:45 GMT 38.301224 -11.882123 36,000 27 468 0
2022-11-26 19:46:38 GMT 38.286392 -11.891882 36,000 27 468 0
2022-11-26 19:46:35 GMT 38.281208 -11.895327 36,000 27 468 0
2022-11-26 19:46:28 GMT 38.267570 -11.904284 36,000 27 468 0
2022-11-26 19:46:24 GMT 38.260620 -11.908887 36,000 27 468 0
2022-11-26 19:46:18 GMT 38.248528 -11.916822 36,000 27 468 0
2022-11-26 19:46:14 GMT 38.241577 -11.921393 36,000 27 468 0
2022-11-26 19:46:08 GMT 38.228699 -11.929839 36,000 27 468 0
2022-11-26 19:46:04 GMT 38.222740 -11.933720 36,000 27 468 0
2022-11-26 19:45:57 GMT 38.208866 -11.942795 36,000 27 467 0
2022-11-26 19:45:54 GMT 38.202908 -11.946677 36,000 27 467 0
2022-11-26 19:45:48 GMT 38.189804 -11.955170 36,000 27 467 0
2022-11-26 19:45:44 GMT 38.182892 -11.959693 36,000 27 467 0
2022-11-26 19:45:37 GMT 38.169762 -11.968171 36,000 27 467 0
2022-11-26 19:45:33 GMT 38.163059 -11.972530 36,000 27 467 0
2022-11-26 19:45:27 GMT 38.150723 -11.980531 36,000 27 467 0
2022-11-26 19:45:23 GMT 38.143433 -11.985266 36,000 27 467 0
2022-11-26 19:45:17 GMT 38.131119 -11.993272 36,000 27 467 0
2022-11-26 19:45:13 GMT 38.124187 -11.997787 36,000 27 467 0
2022-11-26 19:45:06 GMT 38.111107 -12.006265 36,000 27 467 0
2022-11-26 19:45:03 GMT 38.104523 -12.010511 36,000 27 467 0
2022-11-26 19:44:56 GMT 38.091248 -12.019160 36,000 27 467 0
2022-11-26 19:44:53 GMT 38.085297 -12.023017 36,000 27 467 0
2022-11-26 19:44:46 GMT 38.070282 -12.032834 36,000 27 467 0
2022-11-26 19:44:43 GMT 38.065475 -12.035932 36,000 27 467 0
2022-11-26 19:44:36 GMT 38.053009 -12.044061 36,000 27 467 0
2022-11-26 19:44:33 GMT 38.046261 -12.048479 36,000 27 467 0
2022-11-26 19:44:26 GMT 38.032619 -12.057376 36,000 27 467 0
2022-11-26 19:44:22 GMT 38.026661 -12.061257 36,000 27 467 0
2022-11-26 19:44:12 GMT 38.006828 -12.074094 36,000 27 467 0
2022-11-26 19:44:05 GMT 37.992966 -12.083091 36,000 27 467 0
2022-11-26 19:44:02 GMT 37.986813 -12.087051 36,000 27 467 0
2022-11-26 19:43:55 GMT 37.973190 -12.095947 36,000 27 467 0
2022-11-26 19:43:52 GMT 37.967400 -12.099709 36,000 27 467 0
2022-11-26 19:43:46 GMT 37.954739 -12.107889 36,000 27 466 0
2022-11-26 19:43:42 GMT 37.947987 -12.112248 36,000 27 466 0
2022-11-26 19:43:34 GMT 37.933365 -12.121718 36,000 27 466 0
2022-11-26 19:43:31 GMT 37.927048 -12.125867 36,000 27 466 0
2022-11-26 19:43:25 GMT 37.915146 -12.133581 36,000 27 466 0
2022-11-26 19:43:21 GMT 37.908783 -12.137672 36,000 27 466 0
2022-11-26 19:43:15 GMT 37.896149 -12.145912 36,000 27 466 0
2022-11-26 19:43:10 GMT 37.888077 -12.151118 36,000 27 466 0
2022-11-26 19:43:05 GMT 37.876949 -12.158342 36,000 27 466 0
2022-11-26 19:43:01 GMT 37.869827 -12.162940 36,000 27 466 0
2022-11-26 19:42:55 GMT 37.855820 -12.171975 36,000 27 466 0
2022-11-26 19:42:48 GMT 37.845474 -12.178637 36,000 27 466 0
2022-11-26 19:42:44 GMT 37.836449 -12.184435 36,000 27 465 0
2022-11-26 19:42:38 GMT 37.826111 -12.191143 36,000 27 465 0
2022-11-26 19:42:34 GMT 37.817871 -12.196460 36,000 27 465 0
2022-11-26 19:42:28 GMT 37.806610 -12.203721 36,000 27 465 0
2022-11-26 19:42:23 GMT 37.797226 -12.209784 36,000 27 464 0
2022-11-26 19:42:17 GMT 37.785519 -12.217275 36,000 27 464 0
2022-11-26 19:42:11 GMT 37.775002 -12.224081 36,000 27 463 0
2022-11-26 19:42:08 GMT 37.768715 -12.228141 36,000 27 463 0
2022-11-26 19:41:58 GMT 37.749023 -12.240800 36,000 27 463 0
2022-11-26 19:41:54 GMT 37.739433 -12.246950 36,000 27 463 0
2022-11-26 19:41:48 GMT 37.729706 -12.253219 36,000 27 463 0
2022-11-26 19:41:43 GMT 37.720116 -12.259369 36,000 26 463 0
2022-11-26 19:41:37 GMT 37.709221 -12.266355 36,000 26 463 0
2022-11-26 19:41:26 GMT 37.688972 -12.279311 36,000 26 463 0
2022-11-26 19:41:17 GMT 37.670609 -12.291071 36,000 26 463 0
2022-11-26 19:41:06 GMT 37.649414 -12.304629 36,000 26 463 0
2022-11-26 19:40:56 GMT 37.630314 -12.316808 36,000 26 463 0
2022-11-26 19:40:46 GMT 37.612579 -12.328213 36,000 27 462 0
2022-11-26 19:40:36 GMT 37.592697 -12.340919 36,000 27 462 0
2022-11-26 19:40:24 GMT 37.570774 -12.354962 36,000 27 462 64
2022-11-26 19:40:16 GMT 37.553833 -12.365872 36,000 27 462 0
2022-11-26 19:40:05 GMT 37.534378 -12.378319 36,000 27 462 0
2022-11-26 19:39:55 GMT 37.514542 -12.391026 36,000 27 462 0
2022-11-26 19:39:45 GMT 37.496017 -12.402805 36,000 26 462 -64
2022-11-26 19:39:33 GMT 37.473293 -12.417238 36,000 26 461 0
2022-11-26 19:39:25 GMT 37.457291 -12.427466 36,000 26 461 0
2022-11-26 19:39:15 GMT 37.437496 -12.440106 36,000 26 461 0
2022-11-26 19:38:53 GMT 37.396225 -12.466444 36,000 27 461 0
2022-11-26 19:38:49 GMT 37.389778 -12.470617 36,000 26 461 0
2022-11-26 19:38:40 GMT 37.371719 -12.482081 36,000 27 460 0
2022-11-26 19:38:28 GMT 37.349697 -12.496172 36,000 27 460 0
2022-11-26 19:38:18 GMT 37.329773 -12.508830 36,000 26 459 0
2022-11-26 19:38:09 GMT 37.313461 -12.519213 36,000 26 459 0
2022-11-26 19:38:00 GMT 37.294327 -12.531310 36,000 26 458 0
2022-11-26 19:37:47 GMT 37.271988 -12.545452 36,000 26 458 -64
2022-11-26 19:37:39 GMT 37.255898 -12.555642 36,000 26 458 64
2022-11-26 19:37:09 GMT 37.196503 -12.593254 36,000 26 458 0
2022-11-26 19:36:58 GMT 37.178375 -12.604708 36,000 26 458 0
2022-11-26 19:36:46 GMT 37.155109 -12.619470 36,000 26 457 0
2022-11-26 19:36:38 GMT 37.140724 -12.628545 36,000 26 457 0
2022-11-26 19:36:31 GMT 37.127876 -12.636666 36,000 26 457 0
2022-11-26 19:35:51 GMT 37.051529 -12.684826 36,000 26 457 64
2022-11-26 19:35:34 GMT 37.019550 -12.704972 36,000 26 458 0
2022-11-26 19:35:01 GMT 36.957458 -12.744258 36,000 26 458 0
2022-11-26 19:34:37 GMT 36.910664 -12.773756 36,000 26 459 0
2022-11-26 19:34:26 GMT 36.890396 -12.786508 36,000 26 459 0
2022-11-26 19:34:24 GMT 36.886597 -12.788922 36,000 26 459 0
2022-11-26 19:34:09 GMT 36.856010 -12.808029 36,000 26 459 0
2022-11-26 19:33:59 GMT 36.838898 -12.818699 36,000 26 459 0
2022-11-26 19:33:55 GMT 36.831291 -12.823441 36,000 26 459 0
2022-11-26 19:33:44 GMT 36.811367 -12.835888 36,000 26 460 0
2022-11-26 19:33:34 GMT 36.792889 -12.847400 36,000 26 459 0
2022-11-26 19:33:24 GMT 36.773117 -12.859783 36,000 26 459 0
2022-11-26 19:33:07 GMT 36.739212 -12.880885 36,000 26 459 0
2022-11-26 19:33:04 GMT 36.734253 -12.883987 36,000 26 460 0
2022-11-26 19:32:52 GMT 36.711777 -12.897949 36,000 26 460 0
2022-11-26 19:32:11 GMT 36.633957 -12.946336 36,000 26 461 0
2022-11-26 19:32:00 GMT 36.611847 -12.960148 36,000 26 461 0
2022-11-26 19:31:49 GMT 36.592388 -12.972282 36,000 26 461 0
2022-11-26 19:31:34 GMT 36.563049 -12.990589 36,000 26 461 0
2022-11-26 19:31:32 GMT 36.559250 -12.992935 36,000 26 461 0
2022-11-26 19:31:08 GMT 36.514271 -13.020961 36,000 26 461 0
2022-11-26 19:30:57 GMT 36.492004 -13.034821 36,000 26 460 0
2022-11-26 19:27:26 GMT 36.093624 -13.280250 36,000 26 454 0
We lost coverage of the aircraft here for a total of 24 minutes
2022-11-26 19:03:21 GMT 33.418900 -14.860437 36,000 25 432 0
2022-11-26 19:03:15 GMT 33.404800 -14.868457 36,000 25 432 0
2022-11-26 19:03:04 GMT 33.388523 -14.877730 36,000 25 432 0
2022-11-26 19:02:55 GMT 33.370647 -14.887876 36,000 25 432 0
2022-11-26 19:02:45 GMT 33.352535 -14.898190 36,000 25 433 0
2022-11-26 19:02:34 GMT 33.334290 -14.908559 36,000 25 433 0
2022-11-26 19:02:24 GMT 33.314758 -14.919708 36,000 25 433 0
2022-11-26 19:02:10 GMT 33.288528 -14.934624 36,000 25 433 0
2022-11-26 19:01:59 GMT 33.270977 -14.944601 36,000 25 433 -64
2022-11-26 19:01:53 GMT 33.258640 -14.951608 36,000 25 433 0
2022-11-26 19:01:42 GMT 33.239834 -14.962314 36,000 25 432 0
2022-11-26 19:01:32 GMT 33.219910 -14.973580 36,000 25 432 0
2022-11-26 19:01:16 GMT 33.192535 -14.989087 36,000 25 432 0
2022-11-26 19:01:13 GMT 33.186905 -14.992273 36,000 25 432 0
2022-11-26 19:00:47 GMT 33.138908 -15.019376 36,000 25 433 0
2022-11-26 19:00:43 GMT 33.129829 -15.024532 36,000 25 433 0
2022-11-26 19:00:30 GMT 33.109722 -15.035855 36,000 25 433 0
2022-11-26 19:00:12 GMT 33.074890 -15.055499 36,000 25 433 64
2022-11-26 18:59:48 GMT 33.032444 -15.079408 36,000 25 432 64
2022-11-26 18:59:42 GMT 33.018478 -15.087255 36,000 25 432 -64
2022-11-26 18:59:30 GMT 33.000366 -15.097522 36,000 25 432 64
2022-11-26 18:59:21 GMT 32.984261 -15.106594 36,000 25 433 0
2022-11-26 18:59:05 GMT 32.954865 -15.123065 36,000 25 432 0
2022-11-26 18:58:58 GMT 32.942413 -15.130136 36,000 25 432 0
2022-11-26 18:58:49 GMT 32.924816 -15.140001 36,000 25 432 0
2022-11-26 18:58:40 GMT 32.908173 -15.149377 36,000 25 432 0
2022-11-26 18:58:29 GMT 32.890457 -15.159395 36,000 25 432 0
2022-11-26 18:58:20 GMT 32.872166 -15.169653 36,000 25 432 0
2022-11-26 18:58:09 GMT 32.853355 -15.180247 36,000 25 432 0
2022-11-26 18:57:59 GMT 32.835754 -15.190137 36,000 25 432 0
2022-11-26 18:57:50 GMT 32.817490 -15.200464 36,000 25 432 0
2022-11-26 18:57:39 GMT 32.798080 -15.211340 36,000 25 433 0
2022-11-26 18:57:28 GMT 32.778687 -15.222230 36,000 25 433 0
2022-11-26 18:57:19 GMT 32.762718 -15.231199 36,000 25 433 0
2022-11-26 18:57:03 GMT 32.733307 -15.247705 36,000 25 433 0
2022-11-26 18:56:58 GMT 32.724609 -15.252594 36,000 25 433 0
2022-11-26 18:56:43 GMT 32.698105 -15.267426 36,000 25 433 0
2022-11-26 18:56:26 GMT 32.667938 -15.284337 36,000 25 434 0
2022-11-26 18:56:22 GMT 32.659561 -15.289014 36,000 25 434 0
2022-11-26 18:56:11 GMT 32.638824 -15.300659 36,000 25 434 0
2022-11-26 18:56:01 GMT 32.621521 -15.310327 36,000 25 434 0
2022-11-26 18:55:52 GMT 32.602955 -15.320715 36,000 25 434 0
2022-11-26 18:55:44 GMT 32.590759 -15.327521 36,000 25 434 0
2022-11-26 18:55:41 GMT 32.584564 -15.330972 36,000 25 435 0
2022-11-26 18:55:38 GMT 32.576202 -15.335596 36,000 25 435 0
2022-11-26 18:55:31 GMT 32.565804 -15.341398 36,000 25 435 0
2022-11-26 18:55:25 GMT 32.556702 -15.346527 36,000 25 436 0
2022-11-26 18:55:20 GMT 32.547367 -15.351712 36,000 25 436 0
2022-11-26 18:55:14 GMT 32.535732 -15.358270 36,000 25 436 0
2022-11-26 18:55:11 GMT 32.529308 -15.361801 36,000 25 435 0
2022-11-26 18:55:00 GMT 32.510548 -15.372339 36,000 25 436 0
2022-11-26 18:54:56 GMT 32.502678 -15.376711 36,000 25 436 0
2022-11-26 18:54:50 GMT 32.491196 -15.383167 36,000 25 436 0
2022-11-26 18:54:46 GMT 32.484615 -15.386801 36,000 25 436 0
2022-11-26 18:54:39 GMT 32.472141 -15.393695 36,000 25 436 0
2022-11-26 18:54:29 GMT 32.454079 -15.403729 36,000 25 436 0
2022-11-26 18:54:20 GMT 32.435596 -15.413930 36,000 25 435 0
2022-11-26 18:54:09 GMT 32.416992 -15.424255 36,000 25 435 0
2022-11-26 18:53:58 GMT 32.397610 -15.435006 36,000 25 435 0
2022-11-26 18:53:48 GMT 32.378990 -15.445320 36,000 25 435 0
2022-11-26 18:53:39 GMT 32.360928 -15.455353 36,000 25 435 64
2022-11-26 18:53:34 GMT 32.353806 -15.459277 36,000 25 435 0
2022-11-26 18:53:28 GMT 32.342491 -15.465555 36,000 25 435 -64
2022-11-26 18:53:17 GMT 32.322418 -15.476660 36,000 25 435 0
2022-11-26 18:53:07 GMT 32.303970 -15.486823 36,000 25 435 0
2022-11-26 18:52:58 GMT 32.286118 -15.496720 36,000 25 435 0
2022-11-26 18:52:47 GMT 32.266800 -15.507426 36,000 25 434 0
2022-11-26 18:52:37 GMT 32.249130 -15.517200 36,000 25 434 64
2022-11-26 18:52:26 GMT 32.229263 -15.528131 36,000 25 434 0
2022-11-26 18:52:17 GMT 32.211449 -15.538031 36,000 25 434 0
2022-11-26 18:52:06 GMT 32.193432 -15.547952 36,000 25 433 0
2022-11-26 18:51:56 GMT 32.174114 -15.558659 36,000 25 434 0
2022-11-26 18:51:51 GMT 32.163940 -15.564276 36,000 25 434 0
2022-11-26 18:51:46 GMT 32.156330 -15.568468 36,000 25 434 0
2022-11-26 18:51:39 GMT 32.141052 -15.576910 36,000 25 433 0
2022-11-26 18:51:36 GMT 32.137615 -15.578837 36,000 25 433 0
2022-11-26 18:51:33 GMT 32.132172 -15.581854 36,000 25 433 0
2022-11-26 18:51:26 GMT 32.118713 -15.589325 36,000 25 433 0
2022-11-26 18:51:21 GMT 32.108917 -15.594708 36,000 25 433 0
2022-11-26 18:51:15 GMT 32.100559 -15.599353 36,000 25 433 0
2022-11-26 18:51:10 GMT 32.090412 -15.604958 36,000 25 433 0
2022-11-26 18:51:04 GMT 32.080811 -15.610309 36,000 25 433 0
2022-11-26 18:51:01 GMT 32.074081 -15.613989 36,000 25 433 0
2022-11-26 18:50:55 GMT 32.063179 -15.619980 36,000 25 432 -64
2022-11-26 18:50:45 GMT 32.045059 -15.629974 36,000 25 432 0
2022-11-26 18:50:43 GMT 32.039623 -15.632984 36,000 25 432 0
2022-11-26 18:50:32 GMT 32.021004 -15.643298 36,000 25 432 0
2022-11-26 18:50:24 GMT 32.006699 -15.651178 36,000 25 431 0
2022-11-26 18:50:21 GMT 32.002708 -15.653388 36,000 25 431 0
2022-11-26 18:50:14 GMT 31.989166 -15.660846 36,000 25 431 0
2022-11-26 18:50:09 GMT 31.979198 -15.666336 36,000 25 431 0
2022-11-26 18:50:02 GMT 31.966370 -15.673370 36,000 25 430 0
2022-11-26 18:49:57 GMT 31.959322 -15.677210 36,000 25 430 0
2022-11-26 18:49:54 GMT 31.951721 -15.681390 36,000 25 430 0
2022-11-26 18:49:51 GMT 31.948471 -15.683148 36,000 25 430 0
2022-11-26 18:49:45 GMT 31.937988 -15.688916 36,000 25 430 0
2022-11-26 18:49:42 GMT 31.930086 -15.693241 36,000 25 429 0
2022-11-26 18:49:36 GMT 31.921755 -15.697781 36,000 25 429 0
2022-11-26 18:49:31 GMT 31.911667 -15.703363 36,000 25 429 0
2022-11-26 18:49:26 GMT 31.903564 -15.707812 36,000 25 429 0
2022-11-26 18:49:23 GMT 31.896561 -15.711658 36,000 25 428 0
2022-11-26 18:49:19 GMT 31.890610 -15.714899 36,000 25 428 0
2022-11-26 18:49:12 GMT 31.878387 -15.721600 36,000 25 428 0
2022-11-26 18:49:06 GMT 31.867800 -15.727433 36,000 25 428 0
2022-11-26 18:49:02 GMT 31.859344 -15.732037 36,000 25 428 0
2022-11-26 18:48:55 GMT 31.848953 -15.737750 36,000 25 427 0
2022-11-26 18:48:52 GMT 31.840851 -15.742200 36,000 25 427 0
2022-11-26 18:48:45 GMT 31.831209 -15.747500 36,000 25 427 0
2022-11-26 18:48:41 GMT 31.823296 -15.751816 36,000 25 427 0
2022-11-26 18:48:31 GMT 31.804115 -15.762298 36,000 25 427 0
2022-11-26 18:48:22 GMT 31.786926 -15.771753 36,000 25 426 0
2022-11-26 18:48:11 GMT 31.768318 -15.781915 36,000 25 426 0
2022-11-26 18:48:00 GMT 31.730936 -15.802405 36,000 25 425 0
2022-11-26 18:47:50 GMT 31.730936 -15.802405 36,000 25 425 0
2022-11-26 18:47:41 GMT 31.713245 -15.812073 36,000 25 425 0
2022-11-26 18:47:29 GMT 31.692858 -15.823169 36,000 24 425 0
2022-11-26 18:47:20 GMT 31.677122 -15.831683 36,000 24 425 0
2022-11-26 18:47:12 GMT 31.663696 -15.839000 36,000 25 425 0
2022-11-26 18:47:09 GMT 31.657618 -15.842285 36,000 25 425 0
2022-11-26 18:46:59 GMT 31.640076 -15.851817 36,000 25 425 0
2022-11-26 18:46:50 GMT 31.613764 -15.866180 36,000 25 426 0
2022-11-26 18:46:39 GMT 31.603010 -15.872003 36,000 24 426 0
2022-11-26 18:46:33 GMT 31.593187 -15.877386 36,000 24 426 0
2022-11-26 18:46:28 GMT 31.582993 -15.882945 36,000 25 426 0
2022-11-26 18:46:25 GMT 31.578873 -15.885207 36,000 25 426 0
2022-11-26 18:46:19 GMT 31.547707 -15.902161 36,000 24 426 64
2022-11-26 18:46:09 GMT 31.547707 -15.902161 36,000 24 426 0
2022-11-26 18:45:58 GMT 31.530121 -15.911758 36,000 25 427 0
2022-11-26 18:45:55 GMT 31.524012 -15.915070 36,000 25 427 -64
2022-11-26 18:45:48 GMT 31.512512 -15.921332 36,000 25 427 0
2022-11-26 18:45:43 GMT 31.500317 -15.927979 36,000 25 427 0
2022-11-26 18:45:36 GMT 31.489563 -15.933856 36,000 24 427 0
2022-11-26 18:45:28 GMT 31.477890 -15.940139 36,000 24 427 0
2022-11-26 18:45:26 GMT 31.473410 -15.942590 36,000 24 427 0
2022-11-26 18:45:21 GMT 31.463680 -15.947864 36,000 24 427 0
2022-11-26 18:45:16 GMT 31.454498 -15.952795 36,000 24 427 0
2022-11-26 18:45:07 GMT 31.437973 -15.961735 36,000 24 427 64
2022-11-26 18:44:59 GMT 31.425201 -15.968682 36,000 24 427 64
2022-11-26 18:44:57 GMT 31.420712 -15.971100 36,000 24 428 64
2022-11-26 18:44:51 GMT 31.410461 -15.976652 36,000 24 428 0
2022-11-26 18:44:46 GMT 31.401443 -15.981499 36,000 25 428 -64
2022-11-26 18:44:37 GMT 31.382772 -15.991699 36,000 25 428 0
2022-11-26 18:44:30 GMT 31.371599 -15.997742 36,000 25 428 0
2022-11-26 18:44:25 GMT 31.363724 -16.002071 36,000 25 428 0
2022-11-26 18:44:12 GMT 31.340876 -16.014496 36,000 24 427 0
2022-11-26 18:44:07 GMT 31.331909 -16.019360 36,000 24 428 0
2022-11-26 18:44:05 GMT 31.327744 -16.021566 36,000 24 428 0
2022-11-26 18:43:59 GMT 31.316761 -16.027515 36,000 24 429 0
2022-11-26 18:43:54 GMT 31.307739 -16.032393 36,000 24 429 0
2022-11-26 18:43:47 GMT 31.295673 -16.038885 36,000 24 429 0
2022-11-26 18:43:45 GMT 31.290985 -16.041439 36,000 24 429 0
2022-11-26 18:43:40 GMT 31.282196 -16.046232 36,000 24 428 0
2022-11-26 18:43:35 GMT 31.272629 -16.051350 36,000 24 428 0
2022-11-26 18:43:30 GMT 31.263794 -16.056143 36,000 24 428 0
2022-11-26 18:43:24 GMT 31.253860 -16.061474 36,000 24 429 0
2022-11-26 18:43:18 GMT 31.241953 -16.067835 36,000 24 429 0
2022-11-26 18:43:15 GMT 31.235807 -16.071131 36,000 24 428 0
2022-11-26 18:43:09 GMT 31.227356 -16.075691 36,000 24 428 0
2022-11-26 18:43:03 GMT 31.215975 -16.081842 36,000 24 429 0
2022-11-26 18:42:55 GMT 31.202454 -16.089153 36,000 24 429 0
2022-11-26 18:42:53 GMT 31.197775 -16.091675 36,000 24 429 0
2022-11-26 18:42:47 GMT 31.187717 -16.097168 36,000 24 429 0
2022-11-26 18:42:42 GMT 31.178129 -16.102331 36,000 24 429 0
2022-11-26 18:42:38 GMT 31.172012 -16.105635 36,000 24 429 0
2022-11-26 18:42:31 GMT 31.156528 -16.114033 36,000 24 429 0
2022-11-26 18:42:28 GMT 31.152786 -16.116081 36,000 25 429 0
2022-11-26 18:42:23 GMT 31.143959 -16.120897 36,000 25 428 0
2022-11-26 18:42:15 GMT 31.129948 -16.128590 36,000 25 428 0
2022-11-26 18:42:09 GMT 31.117447 -16.135092 36,000 22 427 0
2022-11-26 18:42:03 GMT 31.106415 -16.140209 36,000 20 427 0
2022-11-26 18:41:58 GMT 31.099136 -16.143225 36,000 18 427 0
2022-11-26 18:41:52 GMT 31.087631 -16.147375 36,000 16 426 0
2022-11-26 18:41:47 GMT 31.079111 -16.150343 36,000 16 426 0
2022-11-26 18:41:43 GMT 31.068499 -16.153967 36,000 16 426 0
2022-11-26 18:41:37 GMT 31.059746 -16.156935 36,000 16 426 0
2022-11-26 18:41:30 GMT 31.043839 -16.162397 36,000 16 426 0
2022-11-26 18:41:27 GMT 31.039307 -16.163958 36,000 16 426 0
2022-11-26 18:41:18 GMT 31.022827 -16.169613 36,000 16 426 0
2022-11-26 18:41:13 GMT 31.014126 -16.172588 36,000 16 426 0
2022-11-26 18:41:08 GMT 31.002960 -16.176453 36,000 16 425 0
2022-11-26 18:40:58 GMT 30.983307 -16.183191 36,000 16 425 0
2022-11-26 18:40:48 GMT 30.964594 -16.189672 36,000 16 425 0
2022-11-26 18:40:40 GMT 30.950821 -16.194386 36,000 16 425 -64
2022-11-26 18:40:35 GMT 30.941364 -16.197638 36,000 16 425 0
2022-11-26 18:40:31 GMT 30.932659 -16.200603 36,000 16 425 0
2022-11-26 18:40:26 GMT 30.925095 -16.203163 36,000 16 425 0
2022-11-26 18:40:15 GMT 30.904680 -16.210108 36,000 16 425 0
2022-11-26 18:40:11 GMT 30.894114 -16.213734 36,000 16 425 0
2022-11-26 18:40:06 GMT 30.887283 -16.216036 36,000 16 425 0
2022-11-26 18:40:00 GMT 30.873688 -16.220667 36,000 16 425 0
2022-11-26 18:39:56 GMT 30.867096 -16.222929 36,000 16 425 0
2022-11-26 18:39:47 GMT 30.850075 -16.228674 36,000 16 424 0
2022-11-26 18:39:39 GMT 30.834806 -16.233892 36,000 16 424 64
2022-11-26 18:39:36 GMT 30.830290 -16.235432 36,000 16 424 64
2022-11-26 18:39:30 GMT 30.816324 -16.240210 36,000 16 424 0
2022-11-26 18:39:25 GMT 30.807667 -16.243176 36,000 16 424 0
2022-11-26 18:39:16 GMT 30.792536 -16.248341 36,000 16 424 0
2022-11-26 18:39:06 GMT 30.773300 -16.254866 36,000 16 424 0
2022-11-26 18:38:56 GMT 30.754457 -16.261250 36,000 16 424 0
2022-11-26 18:38:45 GMT 30.733927 -16.268225 36,000 16 424 0
2022-11-26 18:38:35 GMT 30.715073 -16.274652 36,000 16 424 0
2022-11-26 18:38:26 GMT 30.697708 -16.280531 36,000 16 424 0
2022-11-26 18:38:16 GMT 30.677719 -16.287285 36,000 16 424 0
2022-11-26 18:38:05 GMT 30.657394 -16.294125 36,000 16 423 0
2022-11-26 18:37:55 GMT 30.640091 -16.299940 36,000 16 422 0
2022-11-26 18:37:44 GMT 30.619177 -16.307007 36,000 16 423 0
2022-11-26 18:37:35 GMT 30.601318 -16.313082 36,000 16 423 0
2022-11-26 18:37:24 GMT 30.581955 -16.319597 36,000 16 423 0
2022-11-26 18:37:15 GMT 30.563173 -16.325958 36,000 16 422 0
2022-11-26 18:37:05 GMT 30.544373 -16.332361 36,000 16 422 0
2022-11-26 18:36:55 GMT 30.525606 -16.338701 36,000 16 422 0
2022-11-26 18:36:44 GMT 30.506470 -16.345234 36,000 16 422 0
2022-11-26 18:36:34 GMT 30.487518 -16.351641 36,000 16 422 0
2022-11-26 18:36:24 GMT 30.468813 -16.357983 36,000 16 421 0
2022-11-26 18:36:14 GMT 30.448935 -16.364685 36,000 16 421 0
2022-11-26 18:36:03 GMT 30.429062 -16.371407 36,000 16 420 0
2022-11-26 18:35:52 GMT 30.409225 -16.378088 36,000 16 420 0
2022-11-26 18:35:43 GMT 30.392000 -16.383911 36,000 16 420 0
2022-11-26 18:35:32 GMT 30.371752 -16.390722 36,000 16 420 0
2022-11-26 18:35:23 GMT 30.353989 -16.396664 36,000 16 420 0
2022-11-26 18:35:13 GMT 30.335449 -16.402857 36,000 16 420 0
2022-11-26 18:35:03 GMT 30.315994 -16.409374 36,000 16 420 0
2022-11-26 18:34:53 GMT 30.296722 -16.415836 36,000 16 420 0
2022-11-26 18:34:43 GMT 30.278042 -16.422089 36,000 16 420 0
2022-11-26 18:34:32 GMT 30.258224 -16.428761 36,000 16 419 0
2022-11-26 18:34:22 GMT 30.241013 -16.434525 36,000 16 420 0
2022-11-26 18:34:12 GMT 30.222319 -16.440821 36,000 16 420 0
2022-11-26 18:34:01 GMT 30.202515 -16.447449 36,000 16 419 0
2022-11-26 18:33:52 GMT 30.183867 -16.453730 36,000 16 419 0
2022-11-26 18:33:42 GMT 30.164408 -16.460266 36,000 16 419 0
2022-11-26 18:33:31 GMT 30.144995 -16.466858 36,000 16 420 0
2022-11-26 18:33:21 GMT 30.126141 -16.473230 36,000 16 419 0
2022-11-26 18:33:11 GMT 30.107071 -16.479654 36,000 16 420 0
2022-11-26 18:32:59 GMT 30.085373 -16.486923 36,000 16 420 0
2022-11-26 18:32:50 GMT 30.067795 -16.492741 36,000 16 420 0
2022-11-26 18:32:40 GMT 30.050354 -16.498556 36,000 16 420 0
2022-11-26 18:32:29 GMT 30.029778 -16.505421 36,000 16 420 0
2022-11-26 18:32:20 GMT 30.011623 -16.511461 36,000 16 420 0
2022-11-26 18:32:10 GMT 29.993141 -16.517670 36,000 16 420 0
2022-11-26 18:32:00 GMT 29.973869 -16.524097 36,000 16 420 0
2022-11-26 18:31:50 GMT 29.955551 -16.530277 36,000 16 420 0
2022-11-26 18:31:40 GMT 29.936646 -16.536633 36,000 16 420 0
2022-11-26 18:31:28 GMT 29.914215 -16.544119 36,000 16 420 0
2022-11-26 18:31:18 GMT 29.897942 -16.549557 36,000 16 420 0
2022-11-26 18:31:09 GMT 29.879242 -16.555763 36,000 16 420 0
2022-11-26 18:30:59 GMT 29.860336 -16.562048 36,000 16 420 0
2022-11-26 18:30:49 GMT 29.841242 -16.568352 36,000 16 420 0
2022-11-26 18:30:38 GMT 29.820898 -16.575138 36,000 16 420 0
2022-11-26 18:30:29 GMT 29.803488 -16.580954 36,000 16 419 0
2022-11-26 18:30:19 GMT 29.785006 -16.587093 36,000 16 419 0
2022-11-26 18:30:09 GMT 29.745987 -16.600183 36,000 16 419 0
2022-11-26 18:29:57 GMT 29.745987 -16.600183 36,000 16 419 0
2022-11-26 18:29:48 GMT 29.728088 -16.606152 36,000 16 419 0
2022-11-26 18:29:37 GMT 29.705704 -16.613600 36,000 16 418 0
2022-11-26 18:29:27 GMT 29.688766 -16.619251 36,000 16 418 0
2022-11-26 18:29:17 GMT 29.649673 -16.632193 36,000 16 417 0
2022-11-26 18:29:05 GMT 29.649673 -16.632193 36,000 16 417 0
2022-11-26 18:28:56 GMT 29.631866 -16.638107 36,000 16 417 0
2022-11-26 18:28:46 GMT 29.612158 -16.644609 36,000 16 417 0
2022-11-26 18:28:35 GMT 29.592865 -16.650995 36,000 16 416 0
2022-11-26 18:28:26 GMT 29.574356 -16.657104 36,000 16 416 64
2022-11-26 18:28:16 GMT 29.556198 -16.663092 36,000 16 416 0
2022-11-26 18:28:06 GMT 29.537842 -16.669165 36,000 16 415 0
2022-11-26 18:27:55 GMT 29.518799 -16.675503 36,000 16 415 0
2022-11-26 18:27:45 GMT 29.500340 -16.681662 36,000 16 415 0
2022-11-26 18:27:35 GMT 29.481672 -16.687908 36,000 16 415 0
2022-11-26 18:27:24 GMT 29.461933 -16.694481 36,000 16 414 0
2022-11-26 18:27:15 GMT 29.444012 -16.700403 36,000 16 414 0
2022-11-26 18:27:05 GMT 29.424831 -16.706812 36,000 16 414 0
2022-11-26 18:26:55 GMT 29.406555 -16.712898 36,000 16 414 0
2022-11-26 18:26:45 GMT 29.388288 -16.718929 36,000 16 414 0
2022-11-26 18:26:34 GMT 29.369295 -16.725229 36,000 16 414 0
2022-11-26 18:26:23 GMT 29.349510 -16.731693 36,000 15 414 0
2022-11-26 18:26:14 GMT 29.332169 -16.737354 36,000 15 414 0
2022-11-26 18:26:09 GMT 29.322556 -16.740471 36,000 15 414 0
2022-11-26 18:26:04 GMT 29.313711 -16.743380 36,000 15 414 0
2022-11-26 18:26:01 GMT 29.307449 -16.745382 36,000 15 414 0
2022-11-26 18:25:54 GMT 29.295044 -16.749411 36,000 15 414 0
2022-11-26 18:25:51 GMT 29.289318 -16.751242 36,000 15 414 0
2022-11-26 18:25:44 GMT 29.276423 -16.755497 36,000 16 414 0
2022-11-26 18:25:42 GMT 29.271973 -16.756950 36,000 16 414 0
2022-11-26 18:25:34 GMT 29.257801 -16.761690 36,000 16 414 0
2022-11-26 18:25:31 GMT 29.253021 -16.763235 36,000 16 414 0
2022-11-26 18:25:24 GMT 29.238623 -16.767990 36,000 15 414 0
2022-11-26 18:25:21 GMT 29.234390 -16.769361 36,000 15 414 0
2022-11-26 18:25:14 GMT 29.220188 -16.774023 36,000 15 414 0
2022-11-26 18:25:11 GMT 29.215578 -16.775532 36,000 16 414 0
2022-11-26 18:25:04 GMT 29.201754 -16.780054 36,000 16 414 0
2022-11-26 18:25:00 GMT 29.196028 -16.781939 36,000 15 414 0
2022-11-26 18:24:53 GMT 29.182899 -16.786247 36,000 15 414 0
2022-11-26 18:24:50 GMT 29.176987 -16.788166 36,000 15 414 0
2022-11-26 18:24:42 GMT 29.163347 -16.792603 36,000 15 414 0
2022-11-26 18:24:40 GMT 29.158367 -16.794218 36,000 15 414 0
2022-11-26 18:24:33 GMT 29.145264 -16.798517 36,000 16 414 0
2022-11-26 18:24:30 GMT 29.139542 -16.800367 36,000 15 414 0
2022-11-26 18:24:23 GMT 29.126059 -16.804773 36,000 15 414 0
2022-11-26 18:24:20 GMT 29.120892 -16.806442 36,000 15 414 0
2022-11-26 18:24:13 GMT 29.107391 -16.810860 36,000 15 414 0
2022-11-26 18:24:09 GMT 29.101868 -16.812620 36,000 15 414 0
2022-11-26 18:24:03 GMT 29.088772 -16.816891 36,000 15 414 0
2022-11-26 18:23:59 GMT 29.082672 -16.818884 36,000 15 414 0
2022-11-26 18:23:53 GMT 29.070477 -16.822868 36,000 15 414 -64
2022-11-26 18:23:49 GMT 29.064053 -16.824968 36,000 16 414 0
2022-11-26 18:23:43 GMT 29.052063 -16.828890 36,000 16 414 0
2022-11-26 18:23:39 GMT 29.045609 -16.831055 36,000 16 414 0
2022-11-26 18:23:32 GMT 29.032862 -16.835255 36,000 16 414 0
2022-11-26 18:23:29 GMT 29.026611 -16.837339 36,000 16 414 0
2022-11-26 18:23:22 GMT 29.014986 -16.841179 36,000 16 414 0
2022-11-26 18:23:18 GMT 29.007816 -16.843550 36,000 16 414 0
2022-11-26 18:23:12 GMT 28.995438 -16.847639 36,000 16 414 0
2022-11-26 18:23:08 GMT 28.988823 -16.849850 36,000 16 414 0
2022-11-26 18:23:02 GMT 28.976486 -16.853943 36,000 16 413 0
2022-11-26 18:22:58 GMT 28.969690 -16.856205 36,000 16 413 0
2022-11-26 18:22:51 GMT 28.957352 -16.860315 36,000 16 414 0
2022-11-26 18:22:48 GMT 28.951443 -16.862236 36,000 16 414 0
2022-11-26 18:22:41 GMT 28.939665 -16.866114 36,000 15 414 0
2022-11-26 18:22:37 GMT 28.932266 -16.868504 36,000 15 414 0
2022-11-26 18:22:31 GMT 28.921043 -16.872200 36,000 15 414 0
2022-11-26 18:22:27 GMT 28.913874 -16.874569 36,000 15 414 0
2022-11-26 18:22:20 GMT 28.901352 -16.878609 36,000 15 414 0
2022-11-26 18:22:17 GMT 28.894508 -16.880871 36,000 15 414 0
2022-11-26 18:22:11 GMT 28.883476 -16.884424 36,000 16 413 0
2022-11-26 18:22:07 GMT 28.875732 -16.886936 36,000 16 413 0
2022-11-26 18:22:01 GMT 28.864700 -16.890530 36,000 16 413 0
2022-11-26 18:21:57 GMT 28.857147 -16.893011 36,000 16 413 0
2022-11-26 18:21:51 GMT 28.845955 -16.896704 36,000 16 413 0
2022-11-26 18:21:46 GMT 28.837830 -16.899349 36,000 16 413 0
2022-11-26 18:21:40 GMT 28.825890 -16.903275 36,000 16 413 0
2022-11-26 18:21:34 GMT 28.815601 -16.906612 36,000 16 412 0
2022-11-26 18:21:30 GMT 28.808434 -16.908981 36,000 16 412 0
2022-11-26 18:21:24 GMT 28.797638 -16.912500 36,000 16 412 0
2022-11-26 18:21:20 GMT 28.790085 -16.914984 36,000 16 412 0
2022-11-26 18:21:16 GMT 28.781845 -16.917679 36,000 16 412 0
2022-11-26 18:21:13 GMT 28.777058 -16.919214 36,000 16 412 0
2022-11-26 18:21:10 GMT 28.771936 -16.920883 36,000 15 411 0
2022-11-26 18:21:05 GMT 28.762939 -16.923805 36,000 15 411 0
2022-11-26 18:21:00 GMT 28.752869 -16.927078 36,000 15 411 0
2022-11-26 18:20:53 GMT 28.740372 -16.931147 36,000 15 411 0
2022-11-26 18:20:50 GMT 28.734880 -16.932947 36,000 15 411 0
2022-11-26 18:20:45 GMT 28.726089 -16.935795 36,000 15 411 0
2022-11-26 18:20:40 GMT 28.715790 -16.939121 36,000 16 411 0
2022-11-26 18:20:33 GMT 28.704071 -16.942924 36,000 15 410 0
2022-11-26 18:20:30 GMT 28.697296 -16.945143 36,000 15 410 0
2022-11-26 18:20:25 GMT 28.688324 -16.948050 36,000 15 410 0
2022-11-26 18:20:20 GMT 28.678598 -16.951204 36,000 15 410 0
2022-11-26 18:20:14 GMT 28.669289 -16.954220 36,000 15 410 0
2022-11-26 18:20:10 GMT 28.660118 -16.957182 36,000 15 410 0
2022-11-26 18:20:04 GMT 28.651154 -16.960091 36,000 15 410 0
2022-11-26 18:19:59 GMT 28.641815 -16.963102 36,000 16 411 0
2022-11-26 18:19:54 GMT 28.632139 -16.966284 36,000 16 411 0
2022-11-26 18:19:48 GMT 28.622643 -16.969406 36,000 16 411 0
2022-11-26 18:19:44 GMT 28.613480 -16.972399 36,000 16 410 0
2022-11-26 18:19:38 GMT 28.604370 -16.975409 36,000 16 410 0
2022-11-26 18:19:33 GMT 28.594294 -16.978670 36,000 15 410 0
2022-11-26 18:19:29 GMT 28.586426 -16.981255 36,000 15 410 0
2022-11-26 18:19:22 GMT 28.573471 -16.985443 36,000 16 409 0
2022-11-26 18:19:18 GMT 28.567245 -16.987448 36,000 16 409 0
2022-11-26 18:19:13 GMT 28.557541 -16.990622 36,000 16 409 0
2022-11-26 18:19:09 GMT 28.550079 -16.993050 36,000 16 409 0
2022-11-26 18:19:03 GMT 28.538361 -16.996853 36,000 16 409 0
2022-11-26 18:18:59 GMT 28.531820 -16.998974 36,000 16 409 0
2022-11-26 18:18:52 GMT 28.519547 -17.002979 36,000 16 410 0
2022-11-26 18:18:49 GMT 28.512817 -17.005146 36,000 16 409 0
2022-11-26 18:18:42 GMT 28.501328 -17.008883 36,000 16 409 0
2022-11-26 18:18:38 GMT 28.492950 -17.011642 36,000 16 409 0
2022-11-26 18:18:32 GMT 28.482697 -17.014917 36,000 15 409 0
2022-11-26 18:18:28 GMT 28.474319 -17.017611 36,000 15 409 0
2022-11-26 18:18:22 GMT 28.463715 -17.021053 36,000 15 409 0
2022-11-26 18:18:17 GMT 28.455708 -17.023640 36,000 15 409 0
2022-11-26 18:18:11 GMT 28.444580 -17.027246 36,000 15 409 0
2022-11-26 18:18:06 GMT 28.434340 -17.030533 36,000 16 409 0
2022-11-26 18:18:01 GMT 28.426891 -17.032955 36,000 16 409 0
2022-11-26 18:17:57 GMT 28.418325 -17.035755 36,000 16 409 0
2022-11-26 18:17:51 GMT 28.408085 -17.039042 36,000 16 409 0
2022-11-26 18:17:47 GMT 28.399521 -17.041855 36,000 16 409 0
2022-11-26 18:17:41 GMT 28.389084 -17.045181 36,000 16 409 0
2022-11-26 18:17:38 GMT 28.383774 -17.046925 36,000 16 409 0
2022-11-26 18:17:31 GMT 28.371002 -17.051044 36,000 15 410 0
2022-11-26 18:17:28 GMT 28.365326 -17.052841 36,000 15 410 0
2022-11-26 18:17:25 GMT 28.359484 -17.054712 36,000 15 410 0
2022-11-26 18:17:21 GMT 28.352188 -17.057068 36,000 15 410 0
2022-11-26 18:17:18 GMT 28.346682 -17.058805 36,000 15 409 0
2022-11-26 18:17:15 GMT 28.342119 -17.060314 36,000 15 409 0
2022-11-26 18:17:08 GMT 28.327875 -17.064892 36,000 16 409 0
2022-11-26 18:17:05 GMT 28.324198 -17.066076 36,000 16 410 0
2022-11-26 18:17:00 GMT 28.315073 -17.069038 36,000 16 410 0
2022-11-26 18:16:57 GMT 28.309393 -17.070923 36,000 16 410 0
2022-11-26 18:16:55 GMT 28.305389 -17.072214 36,000 16 410 0
2022-11-26 18:16:50 GMT 28.296080 -17.075285 36,000 16 410 0
2022-11-26 18:16:47 GMT 28.291145 -17.076900 36,000 16 410 0
2022-11-26 18:16:44 GMT 28.286209 -17.078516 36,000 16 410 0
2022-11-26 18:16:37 GMT 28.272711 -17.082932 36,000 16 410 0
2022-11-26 18:16:30 GMT 28.259165 -17.087349 36,000 16 410 0
2022-11-26 18:16:27 GMT 28.254229 -17.088909 36,000 15 410 0
2022-11-26 18:16:24 GMT 28.248596 -17.090740 36,000 15 410 0
2022-11-26 18:16:17 GMT 28.235962 -17.094831 36,000 15 410 0
2022-11-26 18:16:13 GMT 28.229187 -17.096998 36,000 15 410 0
2022-11-26 18:16:07 GMT 28.217640 -17.100651 36,000 15 410 0
2022-11-26 18:16:04 GMT 28.212332 -17.102320 36,000 15 410 0
2022-11-26 18:15:57 GMT 28.198786 -17.106628 36,000 15 410 0
2022-11-26 18:15:53 GMT 28.192520 -17.108618 36,000 15 411 0
2022-11-26 18:15:47 GMT 28.180630 -17.112446 36,000 15 411 0
2022-11-26 18:15:41 GMT 28.170547 -17.115643 36,000 15 411 0
2022-11-26 18:15:37 GMT 28.162102 -17.118368 36,000 15 411 0
2022-11-26 18:15:32 GMT 28.153303 -17.121223 36,000 15 411 0
2022-11-26 18:15:26 GMT 28.142876 -17.124561 36,000 15 411 0
2022-11-26 18:15:23 GMT 28.137726 -17.126207 36,000 15 411 0
2022-11-26 18:15:17 GMT 28.125048 -17.130272 36,000 15 411 0
2022-11-26 18:15:11 GMT 28.115503 -17.133286 36,000 15 411 0
2022-11-26 18:15:06 GMT 28.105591 -17.136454 36,000 15 411 0
2022-11-26 18:15:02 GMT 28.097906 -17.138941 36,000 15 411 0
2022-11-26 18:14:56 GMT 28.087620 -17.142225 36,000 15 411 0
2022-11-26 18:14:46 GMT 28.068159 -17.148474 36,000 15 411 0
2022-11-26 18:14:35 GMT 28.048508 -17.154781 36,000 15 411 0
2022-11-26 18:14:32 GMT 28.042831 -17.156576 36,000 15 411 0
2022-11-26 18:14:26 GMT 28.031067 -17.160379 36,000 15 411 0
2022-11-26 18:14:20 GMT 28.021912 -17.163338 36,000 16 412 0
2022-11-26 18:14:15 GMT 28.012894 -17.166243 36,000 16 412 0
2022-11-26 18:14:10 GMT 28.002987 -17.169477 36,000 16 412 0
2022-11-26 18:14:05 GMT 27.994560 -17.172169 36,000 16 412 0
2022-11-26 18:13:59 GMT 27.982084 -17.176262 36,000 16 412 0
2022-11-26 18:13:55 GMT 27.975861 -17.178286 36,000 16 412 0
2022-11-26 18:13:51 GMT 27.967234 -17.181108 36,000 16 412 0
2022-11-26 18:13:44 GMT 27.955856 -17.184784 36,000 16 412 0
2022-11-26 18:13:39 GMT 27.946655 -17.187794 36,000 16 412 0
2022-11-26 18:13:35 GMT 27.938232 -17.190540 36,000 16 412 0
2022-11-26 18:13:29 GMT 27.928665 -17.193604 36,000 15 412 0
2022-11-26 18:13:25 GMT 27.919287 -17.196613 36,000 15 412 0
2022-11-26 18:13:19 GMT 27.910080 -17.199562 36,000 15 412 0
2022-11-26 18:13:15 GMT 27.900879 -17.202517 36,000 15 412 0
2022-11-26 18:13:04 GMT 27.882509 -17.208393 36,000 15 412 0
2022-11-26 18:12:59 GMT 27.872732 -17.211510 36,000 15 412 0
2022-11-26 18:12:54 GMT 27.863190 -17.214573 36,000 15 412 0
2022-11-26 18:12:49 GMT 27.853228 -17.217794 36,000 15 413 0
2022-11-26 18:12:44 GMT 27.844942 -17.220436 36,000 15 413 0
2022-11-26 18:12:38 GMT 27.834421 -17.223763 36,000 15 413 0
2022-11-26 18:12:33 GMT 27.824661 -17.226873 36,000 15 413 0
2022-11-26 18:12:28 GMT 27.815598 -17.229725 36,000 15 413 0
2022-11-26 18:12:24 GMT 27.808044 -17.232159 36,000 15 413 0
2022-11-26 18:12:18 GMT 27.797379 -17.235529 36,000 15 413 0
2022-11-26 18:12:14 GMT 27.788864 -17.238222 36,000 15 413 0
2022-11-26 18:12:07 GMT 27.776882 -17.242039 36,000 15 413 0
2022-11-26 18:12:03 GMT 27.769295 -17.244415 36,000 15 413 0
2022-11-26 18:11:57 GMT 27.758402 -17.247902 36,000 15 414 0
2022-11-26 18:11:47 GMT 27.739929 -17.253769 36,000 15 414 0
2022-11-26 18:11:37 GMT 27.721664 -17.259573 36,000 15 414 0
2022-11-26 18:11:27 GMT 27.703190 -17.265436 36,000 15 414 0
2022-11-26 18:11:17 GMT 27.683779 -17.271511 36,000 15 414 0
2022-11-26 18:11:07 GMT 27.664948 -17.277452 36,000 15 413 -64
2022-11-26 18:10:56 GMT 27.645950 -17.283516 36,000 15 413 0
2022-11-26 18:10:46 GMT 27.626799 -17.289627 36,000 15 413 0
2022-11-26 18:10:34 GMT 27.605570 -17.296389 36,000 15 413 0
2022-11-26 18:10:26 GMT 27.589743 -17.301460 36,000 15 414 0
2022-11-26 18:10:15 GMT 27.570190 -17.307798 36,000 15 414 0
2022-11-26 18:10:05 GMT 27.552176 -17.313608 36,000 16 414 0
2022-11-26 18:09:50 GMT 27.524872 -17.322433 36,000 15 414 0
2022-11-26 18:09:44 GMT 27.513474 -17.326113 36,000 15 413 0
2022-11-26 18:09:34 GMT 27.494659 -17.332073 36,000 15 413 0
2022-11-26 18:09:24 GMT 27.476200 -17.337906 36,000 15 413 0
2022-11-26 18:09:13 GMT 27.455200 -17.344614 36,000 15 413 0
2022-11-26 18:09:04 GMT 27.439007 -17.349789 36,000 16 413 0
2022-11-26 18:08:53 GMT 27.419315 -17.356180 36,000 16 413 0
2022-11-26 18:08:43 GMT 27.400681 -17.362181 36,000 16 413 0
2022-11-26 18:08:28 GMT 27.373077 -17.371042 36,000 15 414 0
2022-11-26 18:08:22 GMT 27.361822 -17.374615 36,000 15 413 0
2022-11-26 18:08:12 GMT 27.344133 -17.380213 36,000 15 413 0
2022-11-26 18:08:02 GMT 27.324766 -17.386288 36,000 15 413 0
2022-11-26 18:07:51 GMT 27.305374 -17.392342 36,000 15 413 0
2022-11-26 18:07:40 GMT 27.285057 -17.398699 36,000 15 413 0
2022-11-26 18:07:30 GMT 27.266438 -17.404562 36,000 15 413 0
2022-11-26 18:07:20 GMT 27.247787 -17.410427 36,000 15 413 0
2022-11-26 18:07:11 GMT 27.230080 -17.415972 36,000 15 413 0
2022-11-26 18:07:00 GMT 27.211086 -17.421991 36,000 15 413 0
2022-11-26 18:06:50 GMT 27.191940 -17.428099 36,000 16 413 0
2022-11-26 18:06:39 GMT 27.172119 -17.433954 36,000 12 412 0
2022-11-26 18:06:30 GMT 27.154266 -17.437841 36,000 8 412 0
2022-11-26 18:06:19 GMT 27.134674 -17.440590 36,000 6 413 0
2022-11-26 18:06:09 GMT 27.115282 -17.442909 36,000 6 413 0
2022-11-26 18:05:59 GMT 27.096056 -17.445286 36,000 6 413 0
2022-11-26 18:05:49 GMT 27.077017 -17.447611 36,000 6 413 0
2022-11-26 18:05:38 GMT 27.056253 -17.450146 36,000 6 413 0
2022-11-26 18:05:28 GMT 27.037216 -17.452456 36,000 6 413 0
2022-11-26 18:05:18 GMT 27.017756 -17.454899 36,000 6 413 0
2022-11-26 18:05:07 GMT 26.997738 -17.457329 36,000 6 413 0
2022-11-26 18:04:57 GMT 26.978092 -17.459759 36,000 6 413 0
2022-11-26 18:04:47 GMT 26.959238 -17.462029 36,000 6 414 0
2022-11-26 18:04:37 GMT 26.939594 -17.464405 36,000 6 414 0
2022-11-26 18:04:26 GMT 26.919531 -17.466837 36,000 6 414 0
2022-11-26 18:04:15 GMT 26.897415 -17.469505 36,000 6 414 0
2022-11-26 18:04:04 GMT 26.876375 -17.472065 36,000 6 414 0
2022-11-26 18:03:55 GMT 26.859970 -17.474066 36,000 6 414 0
2022-11-26 18:03:46 GMT 26.841797 -17.476294 36,000 6 414 0
2022-11-26 18:03:35 GMT 26.821165 -17.478878 36,000 6 415 0
2022-11-26 18:03:25 GMT 26.802200 -17.481216 36,000 6 415 0
2022-11-26 18:03:15 GMT 26.782516 -17.483601 36,000 6 415 0
2022-11-26 18:03:04 GMT 26.761997 -17.486115 36,000 6 415 0
2022-11-26 18:02:54 GMT 26.742073 -17.488544 36,000 6 415 0
2022-11-26 18:02:41 GMT 26.716782 -17.491583 36,000 6 416 0
2022-11-26 18:02:33 GMT 26.702225 -17.493397 36,000 6 416 0
2022-11-26 18:02:22 GMT 26.681881 -17.495832 36,000 6 416 0
2022-11-26 18:02:13 GMT 26.663269 -17.498112 36,000 6 416 0
2022-11-26 18:02:03 GMT 26.644638 -17.500340 36,000 6 416 0
2022-11-26 18:01:53 GMT 26.625460 -17.502701 36,000 6 416 0
2022-11-26 18:01:43 GMT 26.605865 -17.505108 36,000 6 417 0
2022-11-26 18:01:32 GMT 26.585470 -17.507612 36,000 6 417 0
2022-11-26 18:01:22 GMT 26.565685 -17.509989 36,000 6 417 0
2022-11-26 18:01:11 GMT 26.544891 -17.512518 36,000 6 417 0
2022-11-26 18:01:01 GMT 26.525436 -17.514902 36,000 6 418 0
2022-11-26 18:00:13 GMT 26.434036 -17.526152 36,000 6 418 0
2022-11-26 18:00:10 GMT 26.428032 -17.526892 36,000 6 419 0
2022-11-26 18:00:00 GMT 26.408569 -17.529205 36,000 6 419 0
2022-11-26 17:59:50 GMT 26.388834 -17.531591 36,000 6 419 0
2022-11-26 17:59:40 GMT 26.368332 -17.534077 36,000 6 419 0
2022-11-26 17:59:29 GMT 26.348614 -17.536451 36,000 6 420 0
2022-11-26 17:59:19 GMT 26.328873 -17.538843 36,000 6 420 0
2022-11-26 17:59:08 GMT 26.308136 -17.541279 36,000 6 420 0
2022-11-26 17:58:58 GMT 26.288589 -17.543663 36,000 6 420 0
2022-11-26 17:58:48 GMT 26.269409 -17.545942 36,000 6 420 0
2022-11-26 17:58:37 GMT 26.246943 -17.548653 36,000 6 420 0
2022-11-26 17:58:26 GMT 26.225807 -17.551188 36,000 6 420 0
2022-11-26 17:58:17 GMT 26.209122 -17.553198 36,000 6 420 0
2022-11-26 17:57:38 GMT 26.133030 -17.562386 36,000 6 421 0
2022-11-26 17:57:36 GMT 26.128967 -17.562889 36,000 6 421 0
2022-11-26 17:57:26 GMT 26.109522 -17.565184 36,000 6 421 0
2022-11-26 17:57:16 GMT 26.090481 -17.567509 36,000 6 421 0
2022-11-26 17:57:06 GMT 26.070463 -17.569885 36,000 6 421 0
2022-11-26 17:56:55 GMT 26.050278 -17.572321 36,000 6 421 0
2022-11-26 17:56:45 GMT 26.030056 -17.574797 36,000 6 421 0
2022-11-26 17:56:35 GMT 26.009666 -17.577280 36,000 6 421 0
2022-11-26 17:56:25 GMT 25.990860 -17.579576 36,000 6 421 0
2022-11-26 17:56:14 GMT 25.969072 -17.582245 36,000 6 421 0
2022-11-26 17:56:04 GMT 25.950073 -17.584551 36,000 6 421 0
2022-11-26 17:55:54 GMT 25.930847 -17.586884 36,000 6 421 0
2022-11-26 17:55:43 GMT 25.909533 -17.589428 36,000 6 421 0
2022-11-26 17:54:41 GMT 25.789444 -17.603708 36,000 6 420 0
2022-11-26 17:54:32 GMT 25.771408 -17.605896 36,000 6 420 0
2022-11-26 17:54:22 GMT 25.752045 -17.608185 36,000 6 420 0
2022-11-26 17:54:12 GMT 25.732452 -17.610575 36,000 6 420 0
2022-11-26 17:54:01 GMT 25.712709 -17.612949 36,000 6 420 0
2022-11-26 17:53:51 GMT 25.692785 -17.615334 36,000 6 419 0
2022-11-26 17:53:41 GMT 25.672861 -17.617718 36,000 6 419 0
2022-11-26 17:53:31 GMT 25.652756 -17.620087 36,000 6 419 0
2022-11-26 17:53:20 GMT 25.632248 -17.622528 36,000 6 419 0
2022-11-26 17:53:10 GMT 25.612747 -17.624868 36,000 6 419 0
2022-11-26 17:53:00 GMT 25.593246 -17.627207 36,000 6 419 0
2022-11-26 17:52:49 GMT 25.572401 -17.629740 36,000 6 419 0
2022-11-26 17:52:39 GMT 25.553268 -17.632021 36,000 6 419 0
2022-11-26 17:52:29 GMT 25.533966 -17.634378 36,000 6 418 0
2022-11-26 17:52:17 GMT 25.511353 -17.637127 36,000 6 419 0
2022-11-26 17:52:07 GMT 25.492424 -17.639380 36,000 6 419 0
2022-11-26 17:51:58 GMT 25.474274 -17.641550 36,000 6 419 0
2022-11-26 17:51:47 GMT 25.452850 -17.644094 36,000 6 419 0
2022-11-26 17:51:37 GMT 25.433908 -17.646376 36,000 6 419 0
2022-11-26 17:50:36 GMT 25.315712 -17.660419 35,900 6 418 768
2022-11-26 17:50:26 GMT 25.296253 -17.662699 35,775 6 418 704
2022-11-26 17:50:15 GMT 25.275583 -17.665083 35,625 6 419 832
2022-11-26 17:50:04 GMT 25.254496 -17.667570 35,475 6 420 896
2022-11-26 17:49:55 GMT 25.236282 -17.669729 35,325 6 421 960
2022-11-26 17:49:45 GMT 25.216827 -17.672016 35,175 6 422 1088
2022-11-26 17:49:35 GMT 25.197283 -17.674358 35,025 6 424 384
2022-11-26 17:49:25 GMT 25.177500 -17.676743 35,000 6 425 0
2022-11-26 17:49:14 GMT 25.157135 -17.679138 35,000 6 425 0
2022-11-26 17:49:04 GMT 25.136124 -17.681681 35,000 6 425 0
2022-11-26 17:48:54 GMT 25.117126 -17.683969 35,000 6 426 0
2022-11-26 17:48:44 GMT 25.096848 -17.686413 35,000 6 426 0
2022-11-26 17:48:33 GMT 25.075409 -17.688921 35,000 6 426 0
2022-11-26 17:48:23 GMT 25.056335 -17.691193 35,000 6 426 0
2022-11-26 17:48:12 GMT 25.035654 -17.693689 35,000 6 427 0
2022-11-26 17:48:01 GMT 25.013029 -17.696436 35,000 6 427 0
2022-11-26 17:47:51 GMT 24.992779 -17.698872 35,000 6 427 0
2022-11-26 17:47:41 GMT 24.973434 -17.701214 35,000 6 427 0
2022-11-26 17:47:32 GMT 24.955307 -17.703400 35,000 6 427 0
2022-11-26 17:47:21 GMT 24.934822 -17.705814 35,000 5 428 0
2022-11-26 17:47:10 GMT 24.912918 -17.708435 35,000 9 428 0
2022-11-26 17:47:00 GMT 24.893019 -17.712605 35,000 13 427 0
2022-11-26 17:46:50 GMT 24.874741 -17.718454 35,000 20 428 -64
2022-11-26 17:46:40 GMT 24.855103 -17.727255 35,000 25 428 -64
2022-11-26 17:46:30 GMT 24.837713 -17.737738 35,000 31 428 0
2022-11-26 17:46:20 GMT 24.820496 -17.749582 35,000 32 428 0
2022-11-26 17:46:09 GMT 24.803497 -17.761213 35,000 32 428 0
2022-11-26 17:44:50 GMT 24.670033 -17.852989 35,000 32 426 0
2022-11-26 17:44:42 GMT 24.656765 -17.862110 35,000 32 426 0
2022-11-26 17:44:32 GMT 24.640705 -17.873201 35,000 32 426 0
2022-11-26 17:44:27 GMT 24.631674 -17.879419 35,000 32 426 0
2022-11-26 17:44:16 GMT 24.613586 -17.891846 35,000 32 426 0
2022-11-26 17:44:06 GMT 24.597336 -17.902985 35,000 32 426 0
2022-11-26 17:43:56 GMT 24.580444 -17.914581 35,000 32 425 0
2022-11-26 17:43:45 GMT 24.562088 -17.927195 35,000 32 425 0
2022-11-26 17:43:36 GMT 24.546387 -17.937979 35,000 32 425 0
2022-11-26 17:43:26 GMT 24.529221 -17.949726 35,000 32 425 0
2022-11-26 17:42:30 GMT 24.436340 -18.013357 35,000 32 423 0
2022-11-26 17:42:24 GMT 24.426361 -18.020224 35,000 32 423 0
2022-11-26 17:42:14 GMT 24.409561 -18.031717 35,000 32 423 0
2022-11-26 17:42:03 GMT 24.392256 -18.043541 35,000 31 423 0
2022-11-26 17:41:53 GMT 24.374908 -18.055319 35,000 31 423 0
2022-11-26 17:41:43 GMT 24.357971 -18.066916 35,000 31 423 0

Making use of Plane Finder data

You are free to use the raw flight data, aircraft information and images provided in this report for your own purposes provided the data is correctly attributed to Plane Finder. We ask that you please credit Plane Finder and link to planefinder.net in close proximity to the content.

Optionally one of the following logos (no smaller then 150x24px) can be used and must link to planefinder.net

Embedding the Plane Finder map

You are welcome to embed the Plane Finder playback map on your website to offer visitors a more interactive experience. We suggest using the following HTML code:

<iframe src="//planefinder.net/data/report/OR805-PH-TFP-7700-squawk-2022-11-26/map" width="800" height="600" seamless="seamless"></iframe>

Where our data comes from

Plane Finder has a global network of data feeds and antenna radars that receive data broadcast directly from aircraft. The primary technologies used are ADS-B and MLAT. We also show feeds from the FAA and a FLARM glider feed.

Click here to find out more about the Plane Finder network.

How we collect our data